[[{"header":{"parameterUnit":"m.s-1","parameterCategory":1,"la1":30.6,"la2":28.766,"lo1":-90.7593,"lo2":-88.6598,"dy":0.0162,"dx":0.0183,"nx":116,"ny":114,"refTime":"2023-04-01T06:00:00:Z","depth":0,"parameterNumber":2,"parameterNumberName":"U-component_of_WINDS"},"data":[0.0,0.0,0.0,0.0,0.0,0.0,0.0,0.0,0.0,0.0,0.0,0.0,0.0,0.0,0.0,0.0,0.0,0.0,0.0,0.0,0.0,0.0,0.0,0.0,0.0,0.0,0.0,0.0,0.0,0.0,0.0,0.0,0.0,0.0,0.0,0.0,0.0,0.0,0.0,0.0,0.0,0.0,0.0,0.0,0.0,0.0,0.0,0.0,0.0,0.0,0.0,0.0,0.0,0.0,0.0,0.0,0.0,0.0,0.0,0.0,0.0,0.0,0.0,0.0,0.0,0.0,0.0,0.0,0.0,0.0,0.0,0.0,0.0,0.0,0.0,0.0,0.0,0.0,0.0,0.0,0.0,0.0,0.0,0.0,0.0,0.0,0.0,0.0,0.0,0.0,0.0,0.0,0.0,0.0,0.0,0.0,0.0,0.0,0.0,0.0,0.0,0.0,0.0,0.0,0.0,0.0,0.0,0.0,0.0,0.0,0.0,0.0,0.0,0.0,0.0,0.0,0.0,0.0,0.0,0.0,0.0,0.0,0.0,0.0,0.0,0.0,0.0,0.0,0.0,0.0,0.0,0.0,0.0,0.0,0.0,0.0,0.0,0.0,0.0,0.0,0.0,0.0,0.0,0.0,0.0,0.0,0.0,0.0,0.0,0.0,0.0,0.0,0.0,0.0,0.0,0.0,0.0,0.0,0.0,0.0,0.0,0.0,0.0,0.0,0.0,0.0,0.0,0.0,0.0,0.0,0.0,0.0,0.0,0.0,0.0,0.0,0.0,0.0,0.0,0.0,0.0,0.0,0.0,0.0,0.0,0.0,0.0,0.0,0.0,0.0,0.0,0.0,0.0,0.0,0.0,0.0,0.0,0.0,0.0,0.0,0.0,0.0,0.0,0.0,0.0,0.0,0.0,0.0,0.0,0.0,0.0,0.0,0.0,0.0,0.0,0.0,0.0,0.0,0.0,0.0,0.0,0.0,0.0,0.0,0.0,0.0,0.0,0.0,0.0,0.0,0.0,0.0,0.0,0.0,0.0,0.0,0.0,0.0,0.0,0.0,0.0,0.0,0.0,0.0,0.0,0.0,0.0,0.0,0.0,0.0,0.0,0.0,0.0,0.0,0.0,0.0,0.0,0.0,0.0,0.0,0.0,0.0,0.0,0.0,0.0,0.0,0.0,0.0,0.0,0.0,0.0,0.0,0.0,0.0,0.0,0.0,0.0,0.0,0.0,0.0,0.0,0.0,0.0,0.0,0.0,0.0,0.0,0.0,0.0,0.0,0.0,0.0,0.0,0.0,0.0,0.0,0.0,0.0,0.0,0.0,0.0,0.0,0.0,0.0,0.0,0.0,0.0,0.0,0.0,0.0,0.0,0.0,0.0,0.0,0.0,0.0,0.0,0.0,0.0,0.0,0.0,0.0,0.0,0.0,0.0,0.0,0.0,0.0,0.0,0.0,0.0,0.0,0.0,0.0,0.0,0.0,0.0,0.0,0.0,0.0,0.0,0.0,0.0,0.0,0.0,0.0,0.0,0.0,0.0,0.0,0.0,0.0,0.0,0.0,0.0,0.0,0.0,0.0,0.0,0.0,0.0,0.0,0.0,0.0,0.0,0.0,0.0,0.0,0.0,0.0,0.0,0.0,0.0,0.0,0.0,0.0,0.0,0.0,0.0,0.0,0.0,0.0,0.0,0.0,0.0,0.0,0.0,0.0,0.0,0.0,0.0,0.0,0.0,0.0,0.0,0.0,0.0,0.0,0.0,0.0,0.0,0.0,0.0,0.0,0.0,0.0,0.0,0.0,0.0,0.0,0.0,0.0,0.0,0.0,0.0,0.0,0.0,0.0,0.0,0.0,0.0,0.0,0.0,0.0,0.0,0.0,0.0,0.0,0.0,0.0,0.0,0.0,0.0,0.0,0.0,0.0,0.0,0.0,0.0,0.0,0.0,0.0,0.0,0.0,0.0,0.0,0.0,0.0,0.0,0.0,0.0,0.0,0.0,0.0,0.0,0.0,0.0,0.0,0.0,0.0,0.0,0.0,0.0,0.0,0.0,0.0,0.0,0.0,0.0,0.0,0.0,0.0,0.0,0.0,0.0,0.0,0.0,0.0,0.0,0.0,0.0,0.0,0.0,0.0,0.0,0.0,0.0,0.0,0.0,0.0,0.0,0.0,0.0,0.0,0.0,0.0,0.0,0.0,0.0,0.0,0.0,0.0,0.0,0.0,0.0,0.0,0.0,0.0,0.0,0.0,0.0,0.0,0.0,0.0,0.0,0.0,0.0,0.0,0.0,0.0,0.0,0.0,0.0,0.0,0.0,0.0,0.0,0.0,0.0,0.0,0.0,0.0,0.0,0.0,0.0,0.0,0.0,0.0,0.0,0.0,0.0,0.0,0.0,0.0,0.0,0.0,0.0,0.0,0.0,0.0,0.0,0.0,0.0,0.0,0.0,0.0,0.0,0.0,0.0,0.0,0.0,0.0,0.0,0.0,0.0,0.0,0.0,0.0,0.0,0.0,0.0,0.0,0.0,0.0,0.0,0.0,0.0,0.0,0.0,0.0,0.0,0.0,0.0,0.0,0.0,0.0,0.0,0.0,0.0,0.0,0.0,0.0,0.0,0.0,0.0,0.0,0.0,0.0,0.0,0.0,0.0,0.0,0.0,0.0,0.0,0.0,0.0,0.0,0.0,0.0,0.0,0.0,0.0,0.0,0.0,0.0,0.0,0.0,0.0,0.0,0.0,0.0,0.0,0.0,0.0,0.0,0.0,0.0,0.0,0.0,0.0,0.0,0.0,0.0,0.0,0.0,0.0,0.0,0.0,0.0,0.0,0.0,0.0,0.0,0.0,0.0,0.0,0.0,0.0,0.0,0.0,0.0,0.0,0.0,0.0,0.0,0.0,0.0,0.0,0.0,0.0,0.0,0.0,0.0,0.0,0.0,0.0,0.0,0.0,0.0,0.0,0.0,0.0,0.0,0.0,0.0,0.0,0.0,0.0,0.0,0.0,0.0,0.0,0.0,0.0,0.0,0.0,0.0,0.0,0.0,0.0,0.0,0.0,0.0,0.0,0.0,0.0,0.0,0.0,0.0,0.0,0.0,0.0,0.0,0.0,0.0,0.0,0.0,0.0,0.0,0.0,0.0,0.0,0.0,0.0,0.0,0.0,0.0,0.0,0.0,0.0,0.0,0.0,0.0,0.0,0.0,0.0,0.0,0.0,0.0,0.0,0.0,0.0,0.0,0.0,0.0,0.0,0.0,0.0,0.0,0.0,0.0,0.0,0.0,0.0,0.0,0.0,0.0,0.0,0.0,0.0,0.0,0.0,0.0,0.0,0.0,0.0,0.0,0.0,0.0,0.0,0.0,0.0,0.0,0.0,0.0,0.0,0.0,0.0,0.0,0.0,0.0,0.0,0.0,0.0,0.0,0.0,0.0,0.0,0.0,0.0,0.0,0.0,0.0,0.0,0.0,0.0,0.0,0.0,0.0,0.0,0.0,0.0,0.0,0.0,0.0,0.0,0.0,0.0,0.0,0.0,0.0,0.0,0.0,0.0,0.0,0.0,0.0,0.0,0.0,0.0,0.0,0.0,0.0,0.0,0.0,0.0,0.0,0.0,0.0,0.0,0.0,0.0,0.0,0.0,0.0,0.0,0.0,0.0,0.0,0.0,0.0,0.0,0.0,0.0,0.0,0.0,0.0,0.0,0.0,0.0,0.0,0.0,0.0,0.0,0.0,0.0,0.0,0.0,0.0,0.0,0.0,0.0,0.0,0.0,0.0,0.0,0.0,0.0,0.0,0.0,0.0,0.0,0.0,0.0,0.0,0.0,0.0,0.0,0.0,0.0,0.0,0.0,0.0,0.0,0.0,0.0,0.0,0.0,0.0,0.0,0.0,0.0,0.0,0.0,0.0,0.0,0.0,0.0,0.0,0.0,0.0,0.0,0.0,0.0,0.0,0.0,0.0,0.0,0.0,0.0,0.0,0.0,0.0,0.0,0.0,0.0,0.0,0.0,0.0,0.0,0.0,0.0,0.0,0.0,0.0,0.0,0.0,0.0,0.0,0.0,0.0,0.0,0.0,0.0,0.0,0.0,0.0,0.0,0.0,0.0,0.0,0.0,0.0,0.0,0.0,0.0,0.0,0.0,0.0,0.0,0.0,0.0,0.0,0.0,0.0,0.0,0.0,0.0,0.0,0.0,0.0,0.0,0.0,0.0,0.0,0.0,0.0,0.0,0.0,0.0,0.0,0.0,0.0,0.0,0.0,0.0,0.0,0.0,0.0,0.0,0.0,0.0,0.0,0.0,0.0,0.0,0.0,0.0,0.0,0.0,0.0,0.0,0.0,0.0,0.0,0.0,0.0,0.0,0.0,0.0,0.0,0.0,0.0,0.0,0.0,0.0,0.0,0.0,0.0,0.0,0.0,0.0,0.0,0.0,0.0,0.0,0.0,0.0,0.0,0.0,0.0,0.0,0.0,0.0,0.0,0.0,0.0,0.0,0.0,0.0,0.0,0.0,0.0,0.0,0.0,0.0,0.0,0.0,0.0,0.0,0.0,0.0,0.0,0.0,0.0,0.0,0.0,0.0,0.0,0.0,0.0,0.0,0.0,0.0,0.0,0.0,0.0,0.0,0.0,0.0,0.0,0.0,0.0,0.0,0.0,0.0,0.0,0.0,0.0,0.0,0.0,0.0,0.0,0.0,0.0,0.0,0.0,0.0,0.0,0.0,0.0,0.0,0.0,0.0,0.0,0.0,0.0,0.0,0.0,0.0,0.0,0.0,0.0,0.0,0.0,0.0,0.0,0.0,0.0,0.0,0.0,0.0,0.0,0.0,0.0,0.0,0.0,0.0,0.0,0.0,0.0,0.0,0.0,0.0,0.0,0.0,0.0,0.0,0.0,0.0,0.0,0.0,0.0,0.0,0.0,0.0,0.0,0.0,0.0,0.0,0.0,0.0,0.0,0.0,0.0,0.0,0.0,0.0,0.0,0.0,0.0,0.0,0.0,0.0,0.0,0.0,0.0,0.0,0.0,0.0,0.0,0.0,0.0,0.0,0.0,0.0,0.0,0.0,0.0,0.0,0.0,0.0,0.0,0.0,0.0,0.0,0.0,0.0,0.0,0.0,0.0,0.0,0.0,0.0,0.0,0.0,0.0,0.0,0.0,0.0,0.0,0.0,0.0,0.0,0.0,0.0,0.0,0.0,0.0,0.0,0.0,0.0,0.0,0.0,0.0,0.0,0.0,0.0,0.0,0.0,0.0,0.0,0.0,0.0,0.0,0.0,0.0,0.0,0.0,0.0,0.0,0.0,0.0,0.0,0.0,0.0,0.0,0.0,0.0,0.0,0.0,0.0,0.0,0.0,0.0,0.0,0.0,0.0,0.0,0.0,0.0,0.0,0.0,0.0,0.0,0.0,0.0,0.0,0.0,0.0,0.0,0.0,0.0,0.0,0.0,0.0,0.0,0.0,0.0,0.0,0.0,0.0,0.0,0.0,0.0,0.0,0.0,0.0,0.0,0.0,0.0,0.0,0.0,0.0,0.0,0.0,0.0,0.0,0.0,0.0,0.0,0.0,0.0,0.0,0.0,0.0,0.0,0.0,0.0,0.0,0.0,0.0,0.0,0.0,0.0,0.0,0.0,0.0,0.0,0.0,0.0,0.0,0.0,0.0,0.0,0.0,0.0,0.0,0.0,0.0,0.0,0.0,0.0,0.0,0.0,0.0,0.0,0.0,0.0,0.0,0.0,0.0,0.0,0.0,0.0,0.0,0.0,0.0,0.0,0.0,0.0,0.0,0.0,0.0,0.0,0.0,0.0,0.0,0.0,0.0,0.0,0.0,0.0,0.0,0.0,0.0,0.0,0.0,0.0,0.0,0.0,0.0,0.0,0.0,0.0,0.0,0.0,0.0,0.0,0.0,0.0,0.0,0.0,0.0,0.0,0.0,0.0,0.0,0.0,0.0,0.0,0.0,0.0,0.0,0.0,0.0,0.0,0.0,0.0,0.0,0.0,0.0,0.0,0.0,0.0,0.0,0.0,0.0,0.0,0.0,0.0,0.0,0.0,0.0,0.0,0.0,0.0,0.0,0.0,-3.7806,-3.7,0.0,0.0,0.0,0.0,0.0,0.0,0.0,0.0,0.0,0.0,0.0,0.0,0.0,0.0,0.0,0.0,0.0,0.0,0.0,0.0,0.0,0.0,0.0,0.0,0.0,0.0,0.0,0.0,0.0,0.0,0.0,0.0,0.0,0.0,0.0,0.0,0.0,0.0,0.0,0.0,0.0,0.0,0.0,0.0,0.0,0.0,0.0,0.0,0.0,0.0,0.0,0.0,0.0,0.0,0.0,0.0,0.0,0.0,0.0,0.0,0.0,0.0,0.0,0.0,0.0,0.0,0.0,0.0,0.0,0.0,0.0,0.0,0.0,0.0,0.0,0.0,0.0,0.0,0.0,0.0,0.0,0.0,0.0,0.0,0.0,0.0,0.0,0.0,0.0,0.0,0.0,0.0,0.0,0.0,0.0,0.0,0.0,0.0,0.0,0.0,0.0,0.0,0.0,0.0,0.0,0.0,0.0,0.0,0.0,0.0,0.0,0.0,0.0,0.0,-3.8841,-3.8564,0.0,0.0,0.0,0.0,0.0,0.0,0.0,0.0,0.0,0.0,0.0,0.0,0.0,0.0,0.0,0.0,0.0,0.0,0.0,0.0,0.0,0.0,0.0,0.0,0.0,0.0,0.0,0.0,0.0,0.0,0.0,0.0,0.0,0.0,0.0,0.0,0.0,0.0,0.0,0.0,0.0,0.0,0.0,0.0,0.0,0.0,0.0,0.0,0.0,0.0,0.0,0.0,0.0,0.0,0.0,0.0,0.0,0.0,0.0,0.0,0.0,0.0,0.0,0.0,0.0,0.0,0.0,0.0,0.0,0.0,0.0,0.0,0.0,0.0,0.0,0.0,0.0,0.0,0.0,0.0,0.0,0.0,0.0,0.0,0.0,0.0,0.0,0.0,0.0,0.0,0.0,0.0,0.0,0.0,0.0,0.0,0.0,0.0,0.0,0.0,0.0,0.0,0.0,0.0,0.0,0.0,0.0,0.0,-3.9348,-3.9252,-3.965,-3.9804,-3.9256,-3.8346,-4.0025,-4.0123,-3.9025,-3.8384,0.0,0.0,0.0,0.0,0.0,0.0,0.0,0.0,0.0,0.0,0.0,0.0,0.0,0.0,0.0,0.0,0.0,0.0,0.0,0.0,0.0,0.0,-2.8301,-2.8301,-2.8633,-2.8867,0.0,0.0,0.0,0.0,0.0,0.0,0.0,-3.3374,-3.4013,-3.5288,-3.6027,-3.671,-3.7228,-3.7161,-3.7186,-3.7167,-3.7108,0.0,0.0,0.0,0.0,0.0,0.0,0.0,0.0,0.0,0.0,0.0,0.0,0.0,0.0,0.0,0.0,0.0,0.0,0.0,0.0,0.0,0.0,0.0,0.0,0.0,0.0,0.0,0.0,0.0,0.0,0.0,0.0,0.0,0.0,0.0,0.0,0.0,0.0,0.0,0.0,0.0,0.0,0.0,-3.7524,-3.7401,0.0,0.0,0.0,0.0,0.0,0.0,0.0,0.0,0.0,0.0,0.0,0.0,0.0,-3.7,-3.7469,-3.8808,-3.9252,-3.8865,-4.0371,-4.0869,-4.0366,-4.0979,-4.1138,-4.1031,-4.1862,0.0,-3.7799,-3.7312,0.0,0.0,0.0,0.0,0.0,0.0,0.0,0.0,0.0,0.0,0.0,0.0,0.0,0.0,0.0,0.0,0.0,0.0,0.0,0.0,0.0,-2.8359,-2.8652,-2.8652,-2.9258,-2.9629,-2.9629,0.0,0.0,0.0,0.0,0.0,-3.1883,-3.1883,-3.2394,-3.3584,-3.417,-3.5218,-3.6685,-3.6685,-3.7171,-3.7947,-3.7918,-3.7702,-3.7254,-3.7394,0.0,0.0,0.0,0.0,0.0,0.0,0.0,0.0,0.0,0.0,0.0,0.0,0.0,0.0,0.0,0.0,0.0,0.0,0.0,0.0,0.0,0.0,0.0,0.0,0.0,0.0,0.0,0.0,0.0,0.0,0.0,0.0,0.0,0.0,0.0,0.0,0.0,0.0,0.0,-3.6976,-3.7748,-3.6607,-3.6534,-3.555,0.0,0.0,0.0,0.0,0.0,0.0,0.0,0.0,0.0,-3.685,-3.7799,-3.8304,-3.8354,-4.0142,-4.0968,-4.0821,-4.1221,-4.134,-4.1146,-4.1415,-4.1165,-4.0559,-4.1576,-4.0771,-3.8773,-3.8888,-3.8196,-3.7016,0.0,0.0,0.0,0.0,-3.442,-3.442,0.0,0.0,0.0,0.0,0.0,0.0,0.0,0.0,0.0,0.0,0.0,0.0,-2.6739,-2.7358,-2.7808,-2.7903,-2.8632,-2.9044,-2.9044,0.0,0.0,0.0,0.0,-2.9648,-2.9648,-3.0289,-3.106,-3.2018,-3.2995,-3.4441,-3.6377,-3.6377,-3.6978,-3.8078,-3.8326,-3.8082,-3.7449,-3.7878,-3.738,0.0,0.0,0.0,0.0,0.0,0.0,0.0,0.0,0.0,0.0,0.0,0.0,0.0,0.0,0.0,0.0,0.0,0.0,0.0,0.0,0.0,0.0,0.0,0.0,0.0,0.0,0.0,0.0,0.0,0.0,0.0,0.0,0.0,0.0,0.0,0.0,0.0,0.0,-3.7584,-3.8166,-3.6227,-3.704,-3.6212,0.0,0.0,0.0,0.0,0.0,0.0,-3.7563,-3.6978,-3.6988,-3.7842,-3.9097,-3.9694,-3.9537,-4.1223,-4.2086,-4.2162,-4.1521,-4.1305,-4.1512,-4.125,-4.0669,-3.995,-4.0744,-4.0592,-3.9726,-3.9802,-3.9266,-3.8148,-3.6764,-3.5639,-3.4821,-3.5076,-3.4995,-3.4929,0.0,0.0,0.0,0.0,0.0,0.0,0.0,0.0,0.0,0.0,0.0,-2.3031,-2.4338,-2.4521,-2.4762,-2.5265,-2.5737,-2.6012,-2.6012,-2.615,-2.6227,-2.6227,-2.6227,-2.6227,-2.6227,-2.8535,-3.0311,-3.1443,-3.4013,-3.577,-3.6681,-3.6681,-3.675,-3.6848,-3.7904,-3.8188,-3.7718,-3.6407,-3.5815,-3.5636,0.0,0.0,0.0,0.0,0.0,0.0,0.0,0.0,0.0,0.0,0.0,0.0,0.0,0.0,0.0,0.0,0.0,0.0,0.0,0.0,0.0,0.0,0.0,0.0,0.0,0.0,0.0,0.0,0.0,0.0,0.0,0.0,0.0,0.0,0.0,0.0,0.0,0.0,0.0,-3.7308,-3.8567,0.0,0.0,0.0,0.0,-3.5374,-3.5429,-3.6157,-3.7886,-3.7937,-3.8642,-4.0251,-4.0379,-4.0656,-4.1182,-4.1285,-4.1364,-4.1364,-4.0807,-4.0805,-4.1257,-4.0278,-4.0025,-4.045,-3.9975,-3.9749,-3.9597,-3.8591,-3.7808,-3.7127,-3.5441,-3.4457,-3.3878,-3.3417,-3.3543,-3.3997,0.0,0.0,0.0,0.0,0.0,0.0,0.0,0.0,0.0,-2.2284,-2.2646,-2.3223,-2.4097,-2.4818,-2.5523,-2.6104,-2.6575,-2.6851,-2.6788,-2.6701,-2.6579,-2.6269,-2.61,-2.6199,-2.6569,-2.7916,-2.9104,-3.0156,-3.2885,-3.4682,-3.555,-3.6893,-3.7617,-3.7962,-3.8334,-3.8456,-3.8303,-3.809,-3.7444,-3.6432,-3.5391,-3.4422,0.0,0.0,0.0,0.0,0.0,0.0,0.0,0.0,0.0,0.0,0.0,0.0,0.0,0.0,0.0,0.0,0.0,0.0,0.0,0.0,0.0,0.0,0.0,0.0,0.0,0.0,0.0,0.0,0.0,0.0,0.0,0.0,0.0,0.0,0.0,0.0,0.0,-3.9446,-4.0802,0.0,-3.8442,-3.8366,-3.8542,-3.8667,-3.9396,-4.0049,-4.0651,-4.0729,-4.0777,-4.0974,-4.1379,-4.1505,-4.1275,-4.2032,-4.2032,-4.1275,-4.1505,-4.1304,-4.0802,-4.04,-4.0149,-3.9973,-3.9772,-3.9697,-3.9672,-3.9245,-3.8768,-3.8165,-3.7211,-3.6282,-3.55,-3.5299,-3.5102,-3.5002,0.0,0.0,0.0,0.0,0.0,0.0,0.0,0.0,0.0,-2.0656,-2.1248,-2.1886,-2.2678,-2.3626,-2.4515,-2.5356,-2.5605,-2.5732,-2.5681,-2.5381,-2.5043,-2.4625,-2.461,-2.4949,-2.5513,-2.6949,-2.809,-2.9028,-3.1663,-3.3311,-3.3965,-3.6107,-3.7302,-3.7794,-3.8476,-3.8867,-3.9033,-3.9212,-3.8379,-3.6767,-3.5465,-3.4636,-3.4097,0.0,0.0,0.0,0.0,0.0,0.0,0.0,0.0,0.0,0.0,0.0,0.0,0.0,0.0,0.0,0.0,0.0,0.0,0.0,0.0,0.0,0.0,0.0,0.0,0.0,0.0,0.0,0.0,0.0,0.0,0.0,0.0,0.0,0.0,-3.8792,-4.063,-3.9918,-4.1258,-4.135,-3.92,-4.0038,-4.0783,-4.0955,-4.2052,-4.2841,-4.2986,-4.2986,-4.2836,-4.2404,-4.2785,-4.2811,-4.2404,-4.2986,-4.2886,-4.2103,-4.2158,-4.1882,-4.1329,-4.0248,-3.9689,-3.9491,-3.9121,-3.8973,-3.8973,-3.8973,-3.9034,-3.9069,-3.8316,-3.7563,-3.6933,-3.6556,-3.6132,-3.5759,0.0,0.0,0.0,0.0,0.0,0.0,0.0,-1.7434,-1.7675,-1.7942,-1.8317,-1.8958,-2.0107,-2.0775,-2.1603,-2.2834,-2.2605,-2.2432,-2.2432,-2.1884,-2.143,-2.1136,-2.167,-2.2271,-2.2873,-2.5524,-2.7326,-2.8014,-3.05,-3.1811,-3.1977,-3.4259,-3.5638,-3.6222,-3.8139,-3.9304,-3.9788,-3.932,-3.8189,-3.6562,-3.4394,-3.3769,-3.4059,0.0,0.0,0.0,0.0,0.0,0.0,0.0,0.0,0.0,0.0,0.0,0.0,0.0,0.0,0.0,0.0,0.0,0.0,0.0,0.0,0.0,0.0,0.0,0.0,0.0,0.0,0.0,0.0,0.0,0.0,0.0,0.0,0.0,-3.652,-3.8745,-3.9847,-3.8826,-4.0007,-4.0021,-3.7918,-3.9767,-4.1329,-4.1908,-4.3042,-4.3944,-4.4469,-4.4494,-4.4469,-4.4444,-4.4469,-4.4469,-4.4444,-4.3919,-4.3644,-4.3594,-4.2574,-4.2323,-4.2693,-3.9636,-3.8523,-3.8927,-3.7905,-3.74,-3.74,-3.74,-3.8243,-3.9469,-3.8317,-3.7916,-3.7815,-3.6689,-3.6263,-3.5946,0.0,0.0,0.0,0.0,0.0,0.0,0.0,-1.7125,-1.7434,-1.7675,-1.8531,-1.9412,-2.0087,-2.1136,-2.2044,-2.2792,-2.2792,-2.2739,-2.2739,-2.2191,-2.1737,-2.1507,-2.179,-2.2472,-2.35,-2.4661,-2.5695,-2.6613,-2.8728,-2.9915,-3.0146,-3.21,-3.3347,-3.3958,-3.4495,-3.5869,-3.7644,-3.7237,-3.7557,-3.834,-3.6523,-3.5469,-3.4929,0.0,0.0,0.0,0.0,0.0,0.0,0.0,0.0,0.0,0.0,0.0,0.0,0.0,0.0,0.0,0.0,0.0,0.0,0.0,0.0,0.0,0.0,0.0,0.0,0.0,0.0,0.0,0.0,0.0,0.0,0.0,-3.2594,-3.515,-3.6667,-3.8769,-4.0417,-4.1294,-4.1719,-4.1881,-4.1725,-4.1936,-4.2104,-4.224,-4.2321,-4.2269,-4.1976,-4.2015,-4.1692,-4.093,-4.1646,-4.1669,-4.093,-4.0852,-4.0657,-4.0227,-3.9638,-3.9013,-3.841,-3.7519,-3.6848,-3.6333,-3.6004,-3.589,-3.589,-3.589,-3.6108,-3.6441,-3.5663,-3.5855,-3.6343,-3.4594,-3.3704,-3.3287,0.0,0.0,0.0,0.0,0.0,0.0,0.0,-1.678,-1.7166,-1.7528,-1.8517,-1.9452,-2.016,-2.1176,-2.2044,-2.2632,-2.2565,-2.2498,-2.2498,-2.2178,-2.1964,-2.1924,-2.2552,-2.3354,-2.4302,-2.489,-2.5438,-2.6037,-2.7158,-2.786,-2.8032,-2.9869,-3.1125,-3.187,-3.2724,-3.4007,-3.5529,-3.5302,-3.5905,-3.6879,-3.6621,-3.6598,-3.6543,-3.4883,-3.416,-3.4034,-3.3779,-3.3254,-3.2662,-3.2431,0.0,0.0,0.0,0.0,0.0,0.0,0.0,0.0,0.0,0.0,0.0,0.0,0.0,0.0,0.0,0.0,0.0,0.0,0.0,0.0,0.0,0.0,0.0,0.0,-3.3015,-3.5231,-3.7126,-3.8829,-4.0365,-4.1451,-4.116,-4.098,-4.1325,-4.1542,-4.1581,-4.1581,-4.1861,-4.1946,-4.159,-4.1568,-4.1211,-4.0516,-4.103,-4.0963,-4.0204,-3.9842,-3.9545,-3.9215,-3.8559,-3.791,-3.7291,-3.645,-3.5656,-3.4937,-3.474,-3.4522,-3.4403,-3.4403,-3.4736,-3.5244,0.0,0.0,0.0,0.0,-3.2527,-3.2163,0.0,0.0,0.0,0.0,0.0,0.0,0.0,-1.6473,-1.686,-1.7462,-1.8343,-1.9239,-2.0054,-2.0949,-2.171,-2.2231,-2.2071,-2.1964,-2.2031,-2.2004,-2.2164,-2.2552,-2.3621,-2.4489,-2.5117,-2.5678,-2.605,-2.609,-2.605,-2.605,-2.6077,-2.7822,-2.9008,-2.9744,-3.1526,-3.2618,-3.324,-3.3273,-3.3446,-3.382,-3.5211,-3.6775,-3.805,-3.6298,-3.6055,-3.6504,-3.5234,-3.4375,-3.3828,-3.3633,0.0,0.0,0.0,0.0,0.0,0.0,0.0,0.0,0.0,0.0,0.0,0.0,0.0,0.0,0.0,0.0,0.0,0.0,0.0,0.0,0.0,0.0,0.0,0.0,-3.4023,-3.5644,-3.7715,-3.897,-3.9868,-4.0269,-3.9369,-3.8633,-3.8574,-3.9597,-4.0319,-4.0319,-4.1305,-4.1902,-4.1902,-4.1902,0.0,0.0,0.0,-4.1066,-4.0602,-3.963,-3.9144,-3.9122,-3.815,-3.7664,-3.7537,-3.5682,-3.464,-3.4101,-3.3584,-3.3168,-3.2851,-3.2851,-3.3642,-3.4748,-3.4282,-3.3719,-3.3135,-3.2178,-3.1825,-3.1607,0.0,0.0,0.0,0.0,0.0,0.0,0.0,-1.6166,-1.6567,-1.7206,-1.8223,-1.9078,-1.9492,-2.0535,-2.1243,-2.1349,-2.1537,-2.183,-2.2298,-2.2111,-2.2445,-2.346,-2.3955,-2.4583,-2.5411,-2.5772,-2.6079,-2.6306,-2.6079,-2.6079,-2.6293,-2.6198,-2.6389,-2.6809,-2.7184,-2.8361,-2.9946,-3.0129,-3.1243,-3.278,-3.3095,-3.4389,-3.6183,-3.6688,-3.6816,-3.6543,-3.5605,-3.582,-3.6328,-3.4922,-3.4766,-3.4883,-3.3398,0.0,0.0,0.0,0.0,0.0,0.0,0.0,0.0,0.0,0.0,0.0,0.0,0.0,0.0,0.0,0.0,0.0,0.0,0.0,0.0,-3.3066,-3.498,-3.6797,-3.8242,-3.9279,-3.9776,-3.9479,-3.9244,-3.8945,-3.8613,-3.8839,-3.8997,-3.8997,-3.8866,-3.8748,-3.8748,-3.8748,-3.8457,-3.7674,-3.7995,-3.7794,-3.6991,-3.6088,-3.5646,-3.569,-3.4742,0.0,-3.3798,-3.3133,-3.2514,-3.2058,-3.1642,-3.1404,-3.1325,-3.1325,-3.1498,-3.1802,-3.2175,-3.1275,-2.9762,-2.924,-2.9059,-2.8999,0.0,0.0,0.0,0.0,0.0,0.0,0.0,-1.5952,-1.6313,-1.7112,-1.7796,-1.8477,-1.9078,-1.98,-2.0294,-2.0441,-2.0855,-2.1363,-2.1951,-2.2258,-2.2953,-2.4155,-2.4623,-2.5197,-2.5932,-2.6092,-2.6239,-2.6386,-2.6092,-2.6106,-2.6373,-2.5945,-2.5812,-2.6037,-2.6106,-2.6607,-2.7239,-2.7551,-2.8212,-2.9108,-3.0171,-3.1136,-3.2243,-3.3974,-3.4523,-3.4306,-3.3839,-3.4072,-3.4378,-3.357,-3.3248,-3.3278,-3.3181,-3.1624,-3.0014,0.0,0.0,0.0,0.0,0.0,0.0,0.0,0.0,0.0,0.0,0.0,0.0,0.0,0.0,-3.0996,-3.1426,0.0,-3.3672,-3.5391,-3.6582,-3.7832,-3.9336,-3.9922,-4.0039,-3.9609,-3.9551,-3.9473,-3.9258,-3.9238,-3.9141,-3.8906,-3.8691,-3.8476,-3.8262,-3.8242,-3.7851,-3.7012,-3.7187,-3.6894,-3.6035,-3.5137,-3.4707,-3.4687,-3.3828,-3.332,-3.3105,-3.2676,-3.2246,-3.1816,-3.1387,-3.1094,-3.0898,-3.0898,-3.0762,-3.0526,-3.0625,-3.0133,-2.916,-2.8535,-2.8301,-2.8262,0.0,0.0,0.0,0.0,0.0,0.0,0.0,0.0,-1.6415,-1.7005,-1.7367,-1.7796,-1.8584,-1.8985,-1.9319,-1.9599,-2.0214,-2.0882,-2.1655,-2.2405,-2.3447,-2.4743,-2.5264,-2.5785,-2.6373,-2.6386,-2.6386,-2.6386,-2.6159,-2.6159,-2.6386,-2.6092,-2.6037,-2.6037,-2.6146,-2.5959,-2.5531,-2.5772,-2.5732,-2.5657,-2.7287,-2.7997,-2.8118,-2.9934,-3.1199,-3.1919,-3.1919,-3.1762,-3.1573,-3.1721,-3.1342,-3.0965,-3.2244,-3.0872,-2.9025,-3.0927,-3.0471,0.0,0.0,0.0,0.0,0.0,0.0,0.0,0.0,-3.0312,-3.0723,-3.168,-3.25,-3.3422,-3.4394,-3.498,-3.5918,-3.7754,-3.8203,-3.8828,-4.0312,-4.0586,-4.0527,-4.0176,-4.0078,-3.998,-3.9902,-3.9902,-3.9746,-3.9355,-3.9336,-3.9141,-3.8711,-3.8691,-3.8301,-3.7441,-3.7344,-3.6934,-3.6152,-3.5273,-3.4785,-3.4687,-3.3926,-3.3496,-3.3398,-3.2988,-3.2559,-3.2148,-3.1621,-3.1211,-3.0898,-3.0898,-3.0625,-3.0156,-2.9726,-2.9512,-2.9355,-2.8574,-2.8301,-2.8281,0.0,0.0,0.0,0.0,0.0,0.0,0.0,0.0,0.0,-1.6823,-1.7058,-1.738,-1.7689,-1.825,-1.8704,-1.8998,-1.98,-2.0748,-2.1871,-2.2525,-2.3621,-2.5344,-2.5478,-2.5785,-2.6373,-2.6386,-2.6386,-2.6386,-2.636,-2.636,-2.6386,-2.6092,-2.6037,-2.6023,-2.5718,-2.5571,-2.5518,-2.5545,-2.5545,-2.5518,-2.5734,-2.5724,-2.5493,-2.5746,-2.8268,-3.1629,-3.1629,-3.127,-3.0876,-3.147,-3.142,-3.1193,-3.1476,-3.097,-3.0129,-2.9142,0.0,-2.6859,-2.5867,-2.6911,-2.8799,-3.1244,-3.1543,-3.1894,0.0,-3.4101,-3.3926,-3.5195,-3.584,-3.6211,-3.6348,-3.7031,-3.7773,-3.8398,-3.916,-3.9883,-4.0449,-4.0859,-4.1074,-4.1035,-4.0684,-4.0312,-3.9922,-3.9902,-3.9883,-3.9824,-3.9824,-3.9609,-3.916,-3.9141,-3.873,-3.7871,-3.75,-3.707,-3.6601,-3.5742,-3.5117,-3.4687,-3.4219,-3.3789,-3.3398,-3.2988,-3.2559,-3.2129,-3.1309,-3.0937,-3.0898,-3.0898,-3.0625,-3.0156,-2.9726,-2.9336,-2.8926,-2.8457,-2.8301,-2.8242,0.0,0.0,0.0,0.0,0.0,0.0,0.0,0.0,0.0,0.0,-1.8671,-1.8587,-1.8189,-1.8016,-1.8009,-1.813,-1.9265,-2.0401,-2.1403,-2.2352,-2.2994,-2.3242,-2.4553,-2.4903,-2.4115,-2.5479,-2.6132,-2.6132,-2.6306,-2.6386,-2.6386,-2.6266,-2.6119,-2.6037,-2.5999,-2.5745,-2.5277,-2.5438,-2.5985,-2.6683,-2.6683,-2.7247,-2.8091,-2.7909,-2.8719,-2.9824,-2.7985,-2.7156,0.0,0.0,-2.7082,-2.7358,-2.8547,-2.7875,-2.6866,-2.8019,-2.7485,0.0,-2.6951,-2.7315,-2.7888,-2.8955,-2.9415,-3.0201,-3.2714,-3.2951,-3.3452,-3.6219,-3.7109,-3.7559,-3.8047,-3.8652,-3.9219,-3.9648,-4.0019,-4.041,-4.084,-4.1055,-4.1074,-4.082,-4.0859,-4.084,-4.0664,-4.0644,-4.0527,-4.0273,-4.0254,-3.9941,-3.9238,-3.9199,-3.8691,-3.7598,-3.7383,-3.6973,-3.6289,-3.5703,-3.5293,-3.5098,-3.4394,-3.3984,-3.3769,-3.3105,-3.2422,-3.1777,-3.1406,-3.1113,-3.0898,-3.0898,-3.0781,-3.0547,-3.0098,-2.9668,-2.9219,-2.8535,-2.8301,-2.8262,0.0,0.0,0.0,0.0,0.0,0.0,0.0,0.0,0.0,0.0,0.0,-1.9555,-1.8962,-1.8203,-1.7764,-1.7846,-1.871,-1.972,-2.0681,-2.1844,-2.2423,-2.2239,-2.3922,-2.4321,-2.327,-2.4893,-2.5798,-2.6037,-2.6159,-2.6306,-2.6386,-2.6386,-2.6279,-2.6079,-2.6213,-2.5919,-2.5331,-2.5464,-2.6327,-2.764,-2.764,-2.866,-3.0128,-2.9695,-2.908,-2.8164,-2.5509,-2.4368,0.0,0.0,-2.3367,-2.3768,-2.5353,-2.4848,-2.3967,-2.6151,-2.5947,-2.5375,-2.6867,-2.7099,-2.7066,-2.7619,-2.8367,-2.9498,-3.1444,-3.1931,-3.2809,-3.5776,-3.714,-3.7944,-3.867,-3.9621,-4.0351,-4.0664,-4.0703,-4.082,-4.1133,-4.1172,-4.1016,-4.0586,-4.0801,-4.0996,-4.0996,-4.1094,-4.1035,-4.0723,-4.0703,-4.0312,-3.9434,-3.9394,-3.8848,-3.7695,-3.7539,-3.7109,-3.6387,-3.5957,-3.5625,-3.5391,-3.4746,-3.4316,-3.4043,-3.3066,-3.2285,-3.168,-3.1445,-3.1172,-3.0898,-3.0898,-3.082,-3.0644,-3.0195,-2.9766,-2.9297,-2.8555,-2.8301,-2.8301,0.0,0.0,0.0,0.0,0.0,0.0,0.0,0.0,0.0,0.0,0.0,0.0,0.0,-1.8798,-1.8197,-1.8459,-1.8237,-1.8542,-1.976,-2.0935,-2.2258,-2.3656,-2.4075,-2.4502,-2.5002,-2.5104,-2.5384,-2.6037,-2.6037,-2.6119,-2.6386,-2.6386,-2.6386,-2.636,-2.6092,-2.6037,-2.5919,-2.5625,-2.6438,-2.7895,-2.7895,-2.865,-2.9679,-2.9179,-2.8325,-2.7198,-2.5911,0.0,0.0,0.0,-2.1857,-2.1802,-2.2351,-2.2727,0.0,-2.2647,-2.2163,0.0,0.0,-2.5024,-2.62,-2.876,-3.0167,-3.1129,-3.209,-3.2517,-3.2977,-3.3875,-3.58,-3.7451,-3.7849,-3.9729,-4.1133,-4.1152,-4.1152,-4.1152,-4.1172,-4.1172,-4.1016,-4.0586,-4.0527,-4.0547,-4.0547,-4.0918,-4.1172,-4.1152,-4.1152,-4.0781,-3.9922,-3.9883,-3.9473,-3.8555,-3.8125,-3.7695,-3.7266,-3.6836,-3.6211,-3.5391,-3.5371,-3.4902,-3.4023,-3.2754,-3.2168,-3.2109,-3.1269,-3.0898,-3.0898,-3.0898,-3.0625,-3.0176,-2.9746,-2.9316,-2.8887,-2.8457,-2.8301,-2.8301,0.0,0.0,0.0,0.0,0.0,0.0,0.0,0.0,0.0,0.0,0.0,0.0,0.0,0.0,0.0,0.0,-2.0334,-2.0537,-2.138,-2.1917,-2.1928,-2.1358,-2.2601,-2.2761,-2.1579,-2.3346,-2.4409,-2.4796,-2.5184,-2.5424,-2.5531,-2.5919,-2.6106,-2.6106,-2.6199,-2.6132,-2.6101,-2.7276,-2.8747,-3.029,-3.1064,-3.2421,-3.3755,-3.2448,-3.1331,-3.0241,0.0,0.0,0.0,0.0,0.0,0.0,-2.2677,0.0,0.0,-2.1296,0.0,0.0,-2.3101,-2.4025,-2.5014,-2.6498,-2.7434,-2.839,-3.0297,-3.0884,-3.1573,-3.3395,-3.4004,-3.4699,-3.6062,-3.7325,-3.8538,-3.9712,-4.0605,-4.1172,-4.1172,-4.1172,-4.1016,-4.0586,-4.0527,-4.0527,-4.0527,-4.0644,-4.0859,-4.1152,-4.1172,-4.0801,-3.9941,-3.9902,-3.9355,-3.8184,-3.8008,-3.7598,-3.6894,-3.6738,-3.6387,-3.5801,-3.5215,-3.4629,-3.4043,-3.3047,-3.2422,-3.2148,-3.1562,-3.1152,-3.0898,-3.0898,-3.0801,-3.0644,-3.0508,-3.0176,-2.9707,-2.9297,-2.8965,-2.8672,0.0,0.0,0.0,0.0,0.0,0.0,0.0,0.0,0.0,0.0,0.0,0.0,0.0,0.0,0.0,0.0,0.0,-2.227,-2.2894,-2.3228,-2.2894,-2.1838,-2.3296,-2.3412,-2.1946,-2.3568,-2.4751,-2.5305,-2.5639,-2.587,-2.617,-2.6875,-2.6861,-2.6287,-2.7188,-2.7216,-2.6592,-2.8507,-3.0137,-3.1571,-3.2171,-3.3315,-3.4492,-3.3066,-3.1992,0.0,0.0,0.0,0.0,0.0,0.0,0.0,0.0,0.0,0.0,0.0,0.0,-2.2058,-2.3008,-2.3834,-2.473,-2.5598,-2.6266,-2.7175,-2.8721,-2.9258,-2.9777,-3.1091,-3.1432,-3.1804,-3.2875,-3.4705,-3.6331,-3.7454,-3.9099,-4.0351,-4.0684,-4.0723,-4.0664,-4.0547,-4.0527,-4.0527,-4.0527,-4.0527,-4.0644,-4.0918,-4.0937,-4.0566,-3.9687,-3.9648,-3.9199,-3.8184,-3.8008,-3.7598,-3.6894,-3.6738,-3.6445,-3.6016,-3.5117,-3.4551,-3.4258,-3.3262,-3.2559,-3.2148,-3.1699,-3.1269,-3.0898,-3.0898,-3.0898,-3.0879,-3.0703,-3.0371,-2.9922,-2.9492,-2.9062,-2.8652,0.0,0.0,0.0,0.0,0.0,0.0,0.0,0.0,0.0,0.0,0.0,0.0,0.0,0.0,0.0,0.0,0.0,0.0,-2.4198,-2.4754,-2.502,-2.4965,-2.5829,-2.61,-2.572,-2.5772,-2.6282,-2.7356,-2.7107,-2.7278,-2.7957,-2.8806,-2.8325,-2.6665,-2.883,-2.8861,-2.7443,-2.9218,-3.0579,-3.1622,-3.1175,-3.1522,-3.207,-3.1172,0.0,0.0,0.0,0.0,0.0,0.0,0.0,0.0,0.0,0.0,-2.0802,-2.1096,-2.179,-2.2659,-2.3567,-2.4449,-2.5304,-2.6172,-2.6814,-2.7321,-2.7589,-2.7655,-2.7562,-2.7241,-2.8161,-2.8897,-2.8686,-3.1901,-3.4594,-3.4684,-3.6872,-3.8837,-3.9523,-3.9715,-3.9946,-4.0355,-4.0221,-4.0221,-4.0393,-4.0221,-4.0201,-4.0201,-4.0297,-3.9928,-3.898,-3.8996,-3.8876,-3.8409,-3.8092,-3.7734,-3.7266,-3.6855,-3.6426,-3.6016,-3.5051,-3.4622,-3.4648,-3.317,-3.2374,-3.2007,-3.1459,-3.1033,-3.0645,-3.0645,-3.0645,-3.0606,-3.0161,-2.9754,-2.9346,-2.892,-2.8494,-2.8252,0.0,0.0,0.0,0.0,0.0,0.0,0.0,0.0,0.0,0.0,0.0,0.0,0.0,0.0,0.0,0.0,0.0,0.0,-2.6302,-2.5895,-2.5729,-2.5847,-2.6149,-2.6244,-2.6148,-2.6737,-2.7289,-2.7799,-2.7962,-2.7646,-2.6976,-2.795,-2.7685,-2.6412,-2.7493,-2.7713,-2.7442,-2.9445,-3.0469,-3.0793,0.0,-3.1722,-3.1992,0.0,0.0,0.0,0.0,0.0,0.0,0.0,0.0,-2.2593,-2.1231,-2.1176,-2.171,-2.2004,-2.2565,-2.3287,-2.4168,-2.4903,-2.5558,-2.6226,-2.6667,-2.6961,-2.7028,-2.7041,-2.6841,-2.6106,-2.5704,-2.562,-2.622,-2.8324,-3.0422,-3.1798,-3.5428,-3.7607,-3.6209,-3.7371,-3.8448,-3.854,-3.6851,-3.6386,-3.8365,-3.6833,-3.5632,-3.5632,-3.7414,-3.7565,-3.5115,-3.6484,-3.6808,-3.5852,-3.7536,-3.791,-3.6836,-3.6406,-3.6133,-3.5947,-3.383,-3.3416,-3.4583,-3.0606,-2.9411,-3.0217,-2.8491,-2.7539,-2.7271,-2.7271,-2.7271,-2.7254,-2.715,-2.6986,-2.6866,-2.641,-2.6739,-2.7361,0.0,0.0,0.0,0.0,0.0,0.0,0.0,0.0,0.0,0.0,0.0,0.0,0.0,0.0,0.0,0.0,0.0,0.0,0.0,-2.8225,-2.7897,-2.7679,-2.7774,-2.7785,-2.7735,-2.8188,-2.8466,-2.8587,0.0,0.0,-2.796,-2.9198,-2.8661,-2.6814,-2.8382,-2.8386,-2.7243,-2.922,0.0,0.0,0.0,0.0,0.0,0.0,0.0,0.0,0.0,0.0,0.0,-2.4269,-2.3715,-2.263,-2.2214,-2.2405,-2.2846,-2.3273,-2.3728,-2.4262,-2.501,-2.5545,-2.6066,-2.6787,-2.6894,-2.6787,-2.6653,-2.644,-2.5959,-2.4957,-2.4035,-2.3498,-2.3912,-2.5859,-2.8073,-3.0111,-3.3072,-3.521,-3.5474,-3.578,-3.606,-3.6487,-3.5194,-3.4903,-3.6327,-3.5194,-3.3871,-3.2901,-3.4949,-3.5378,-3.338,-3.4358,-3.4613,-3.3856,-3.5669,-3.6589,-3.6387,-3.6152,-3.5587,-3.4727,-3.2985,-3.218,-3.2193,-2.9202,-2.8084,-2.8522,-2.7236,-2.6463,-2.5984,-2.5984,-2.5984,-2.5984,-2.5984,-2.5885,-2.566,-2.5386,-2.552,-2.5851,0.0,0.0,0.0,0.0,0.0,0.0,0.0,0.0,0.0,0.0,0.0,0.0,0.0,0.0,0.0,0.0,0.0,0.0,0.0,0.0,0.0,-2.9864,-2.9939,-2.997,-2.9864,-2.9846,-2.9803,-2.9677,-2.994,0.0,0.0,0.0,0.0,0.0,0.0,0.0,0.0,0.0,0.0,0.0,0.0,0.0,0.0,0.0,0.0,0.0,0.0,0.0,0.0,-2.211,-2.2098,-2.2365,-2.3233,-2.3728,-2.4102,-2.4609,-2.497,-2.5317,-2.5865,-2.6226,-2.664,-2.7442,-2.7228,-2.672,-2.636,-2.5825,-2.505,-2.3848,-2.2939,-2.2258,-2.1924,-2.4008,-2.6497,-2.8737,-3.0364,-3.2271,-3.5124,-3.4121,-3.3401,-3.418,-3.4002,-3.4083,-3.4651,-3.4164,-3.317,-3.1497,-3.2514,-3.2857,-3.2216,-3.2369,-3.2638,-3.2885,-3.3956,-3.4975,-3.5761,-3.5713,-3.4659,-3.2804,-3.1815,-3.0615,-2.9135,-2.8026,-2.7247,-2.6773,-2.6519,-2.5973,-2.5375,-2.5375,-2.5375,-2.5375,-2.5375,-2.5121,-2.4727,-2.4727,-2.4504,-2.4113,0.0,0.0,0.0,0.0,0.0,0.0,0.0,0.0,0.0,0.0,-3.1486,-3.1612,0.0,0.0,0.0,0.0,0.0,0.0,0.0,0.0,0.0,0.0,-3.1129,-3.1104,-3.1075,-3.11,-3.11,-3.1058,-3.1099,0.0,0.0,0.0,0.0,0.0,0.0,0.0,0.0,0.0,0.0,0.0,0.0,0.0,0.0,0.0,0.0,0.0,0.0,0.0,0.0,0.0,-2.2645,-2.3567,-2.4209,-2.4783,-2.5224,-2.5331,-2.5571,-2.5956,-2.6226,-2.6533,-2.6841,-2.7241,-2.7081,-2.6613,-2.5838,-2.5211,-2.4382,-2.2953,-2.2338,-2.1897,-2.1363,-2.2443,-2.3886,-2.5305,-2.8026,-2.9871,-2.9696,-3.0831,-3.1833,-3.1954,-3.0426,-3.0759,-3.4327,-3.1407,-2.9827,-3.0937,-2.9664,-2.8673,-2.8311,-2.9615,-3.1788,-3.4918,-3.5852,-3.5768,-3.4786,-3.4073,-3.2735,-3.0805,-2.8611,-2.8138,-2.9067,-2.5476,-2.4242,-2.4918,-2.3522,-2.2535,-2.1964,-2.1964,-2.1964,-2.1964,-2.1964,-2.1874,-2.1818,-2.1818,-2.2385,-2.3142,0.0,0.0,0.0,0.0,0.0,0.0,0.0,-3.1235,-3.1788,-3.2943,-3.3119,-3.3219,-3.347,-3.352,-3.352,0.0,0.0,0.0,0.0,0.0,0.0,0.0,0.0,0.0,0.0,-3.0984,-3.0984,-3.0984,0.0,-3.1075,-3.0538,-3.1034,-3.0383,0.0,0.0,0.0,0.0,0.0,0.0,0.0,0.0,0.0,0.0,0.0,0.0,0.0,0.0,0.0,0.0,0.0,-2.3103,-2.3514,-2.4716,-2.5398,-2.5772,-2.5932,-2.6172,-2.6466,-2.676,-2.6947,-2.7161,-2.7615,-2.7161,-2.6319,-2.5291,-2.4489,-2.3541,-2.2044,-2.163,-2.1443,-2.1162,-2.1937,-2.327,-2.51,-2.641,-2.7642,-2.8736,-2.908,-2.9406,-2.9731,-2.8796,-2.9048,-3.1076,-2.9313,-2.8343,-2.9238,-2.7976,-2.7175,-2.7041,-2.7693,-2.9305,-3.1906,-3.2267,-3.2457,-3.2584,-3.2014,-3.0751,-2.8828,-2.7296,-2.6559,-2.6279,-2.3942,-2.2997,-2.3196,-2.2372,-2.1657,-2.1109,-2.1109,-2.1109,-2.1109,-2.1109,-2.1109,-2.1109,-2.1109,-2.1347,-2.1765,0.0,0.0,0.0,0.0,0.0,0.0,0.0,-3.1662,-3.239,-3.4198,-3.4901,-3.5077,-3.465,-3.4776,-3.468,0.0,0.0,0.0,0.0,0.0,0.0,0.0,0.0,0.0,0.0,0.0,0.0,-3.0959,-3.126,0.0,0.0,0.0,0.0,0.0,-2.8764,-2.7802,0.0,0.0,0.0,0.0,0.0,0.0,0.0,0.0,0.0,0.0,0.0,0.0,-2.3352,0.0,-2.3695,-2.3311,-2.492,-2.5621,-2.5798,-2.5972,-2.64,-2.6867,-2.7108,-2.7308,-2.7645,-2.8114,-2.7308,-2.6159,-2.4917,-2.3955,-2.2899,-2.1416,-2.1109,-2.1109,-2.1109,-2.167,-2.2804,-2.5092,-2.4946,-2.5609,-2.8497,-2.788,-2.7348,-2.814,-2.8221,-2.8362,-2.8784,-2.8163,-2.7808,-2.8167,-2.7257,-2.6734,-2.6734,-2.689,-2.7636,-2.8818,-2.8943,-2.9412,-3.0219,-2.9848,-2.8757,-2.6852,-2.6325,-2.5257,-2.3754,-2.3207,-2.2632,-2.2071,-2.2004,-2.1683,-2.1203,-2.1136,-2.1109,-2.1109,-2.1109,-2.1109,-2.1109,-2.1109,-2.0962,-2.0775,0.0,0.0,0.0,0.0,0.0,0.0,0.0,-3.2591,-3.374,-3.5902,-3.6609,-3.6935,-3.6885,-3.6031,-3.5408,0.0,0.0,0.0,0.0,0.0,0.0,0.0,0.0,0.0,0.0,0.0,0.0,-3.2064,-3.1612,0.0,0.0,0.0,0.0,0.0,0.0,-2.7133,-2.7363,0.0,0.0,0.0,0.0,0.0,0.0,0.0,0.0,0.0,0.0,-2.4979,-2.3958,-2.5212,-2.458,-2.3486,-2.4899,-2.5241,-2.5117,-2.4863,-2.5758,-2.6827,-2.6854,-2.7455,-2.8154,-2.8207,-2.7455,-2.64,-2.497,-2.3955,-2.2899,-2.1416,-2.1109,-2.1109,-2.1109,-2.1176,-2.1655,-2.2944,-2.3117,-2.3919,-2.6378,-2.6585,-2.6881,-2.81,-2.8221,-2.8854,-3.0595,-2.8923,-2.8276,-2.9759,-2.7764,-2.6426,-2.6426,-2.8168,-2.9067,-2.897,-3.041,-3.0208,-2.8352,-2.7946,-2.6779,-2.4844,-2.4593,-2.4237,-2.3754,-2.3434,-2.2953,-2.2365,-2.2098,-2.1804,-2.1561,-2.1216,-2.1109,-2.1109,-2.1109,-2.1109,-2.1109,-2.1109,-2.1096,-2.1069,0.0,0.0,0.0,0.0,0.0,0.0,-3.1989,-3.2416,-3.347,-3.6078,-3.6883,-3.7312,-3.7638,-3.7287,-3.6586,-3.5583,0.0,0.0,0.0,0.0,0.0,0.0,0.0,0.0,0.0,0.0,-3.1964,-3.2742,-3.2842,0.0,0.0,0.0,0.0,0.0,0.0,-2.696,-2.6448,0.0,0.0,0.0,0.0,0.0,0.0,0.0,0.0,0.0,0.0,0.0,-2.5604,-2.6157,-2.5335,-2.4243,-2.4855,-2.4805,-2.4525,-2.4431,-2.5291,-2.6373,-2.6734,-2.7468,-2.8221,-2.8221,-2.7081,-2.5785,-2.485,-2.3541,-2.2258,-2.1309,-2.1109,-2.1109,-2.1109,-2.1109,-2.1323,-2.2043,-2.2218,-2.2846,-2.4342,-2.485,-2.5571,-2.6921,-2.7241,-2.7757,-2.8881,-2.8098,-2.7595,-2.7843,-2.6994,-2.6386,-2.6386,-2.7162,-2.7479,-2.7172,-2.7597,-2.7355,-2.6322,-2.594,-2.5359,-2.4549,-2.4168,-2.3888,-2.3754,-2.3273,-2.2726,-2.2151,-2.2031,-2.1724,-2.1269,-2.1162,-2.1109,-2.1109,-2.1109,-2.1109,-2.1109,-2.1109,-2.1109,-2.1109,0.0,0.0,0.0,0.0,0.0,-3.0331,-3.1964,-3.2365,-3.3395,-3.6078,-3.6883,-3.7387,-3.7939,-3.7864,-3.7287,-3.6132,-3.5332,0.0,0.0,0.0,0.0,0.0,0.0,0.0,0.0,0.0,-3.3068,-3.3796,-3.3643,-3.3129,0.0,0.0,-2.9913,-2.7639,0.0,0.0,0.0,0.0,0.0,0.0,0.0,0.0,0.0,0.0,0.0,0.0,0.0,0.0,0.0,0.0,0.0,-2.5435,-2.5551,0.0,0.0,0.0,-2.4856,-2.5785,-2.6199,-2.7134,-2.8016,-2.8016,-2.6747,-2.5358,-2.477,-2.326,-2.1817,-2.1229,-2.1109,-2.1109,-2.1109,-2.1109,-2.1176,-2.139,-2.159,-2.2071,-2.306,-2.3541,-2.4315,-2.5705,-2.6052,-2.6413,-2.7001,-2.7028,-2.6841,-2.6426,-2.6386,-2.636,-2.6266,-2.6266,-2.6132,-2.5838,-2.5531,-2.5197,-2.4823,-2.4609,-2.4462,-2.4382,-2.3968,-2.3728,-2.3621,-2.3193,-2.2726,-2.2245,-2.2151,-2.1884,-2.1483,-2.1309,-2.1243,-2.1229,-2.1149,-2.1109,-2.1109,-2.1109,-2.1109,-2.1109,0.0,0.0,0.0,0.0,0.0,0.0,-3.1964,-3.2692,-3.3916,-3.6128,-3.6883,-3.7387,-3.7939,-3.7513,-3.7186,-3.7161,-3.6157,0.0,0.0,0.0,0.0,0.0,0.0,0.0,0.0,0.0,-3.4424,-3.5483,-3.3615,-3.2369,-3.1641,-2.9728,-2.7971,-2.6436,0.0,0.0,0.0,0.0,0.0,0.0,0.0,0.0,0.0,0.0,0.0,0.0,0.0,0.0,0.0,0.0,0.0,0.0,0.0,0.0,0.0,0.0,-2.4399,-2.509,-2.5104,-2.6373,-2.7709,-2.7709,-2.66,-2.5358,-2.477,-2.326,-2.1817,-2.1229,-2.1109,-2.1109,-2.1109,-2.1109,-2.1109,-2.1109,-2.1122,-2.1523,-2.2699,-2.2941,-2.3313,-2.4516,-2.4589,-2.489,-2.5478,-2.6066,-2.64,-2.6386,-2.6386,-2.6266,-2.605,-2.6037,-2.5825,-2.5531,-2.5237,-2.481,-2.4222,-2.4209,-2.4062,-2.3781,-2.3768,-2.3621,-2.3327,-2.3327,-2.3153,-2.2832,-2.2539,-2.2405,-2.2365,-2.1777,-2.1614,-2.1588,-2.1229,-2.1109,-2.1109,-2.1109,-2.1109,-2.1109,0.0,0.0,0.0,0.0,0.0,0.0,0.0,-3.1587,-3.2717,-3.4951,-3.573,-3.6558,-3.7864,-3.7513,-3.7337,-3.7713,-3.636,0.0,0.0,0.0,0.0,0.0,0.0,0.0,0.0,0.0,-3.4718,-3.4124,-3.3935,-3.2814,-3.0743,-2.9838,-2.8655,-2.7246,-2.6953,-2.6738,0.0,0.0,0.0,0.0,0.0,0.0,0.0,0.0,0.0,0.0,0.0,0.0,0.0,0.0,0.0,0.0,0.0,0.0,0.0,0.0,0.0,-2.4762,-2.4296,-2.4877,-2.5611,-2.5611,-2.481,-2.3915,-2.3514,-2.2525,-2.1577,-2.1189,-2.1109,-2.1109,-2.1109,-2.1109,-2.1176,-2.1376,-2.1243,-2.1309,-2.1949,-2.2552,-2.3233,-2.4222,-2.5398,-2.6199,-2.6386,-2.64,-2.6386,-2.6386,-2.6199,-2.6052,-2.6037,-2.5571,-2.5317,-2.5224,-2.513,-2.4796,-2.4209,-2.4209,-2.4062,-2.3768,-2.3567,-2.342,-2.3313,-2.31,-2.2846,-2.2539,-2.2245,-2.2004,-2.1804,-2.1416,-2.1256,-2.1243,-2.1149,-2.1109,-2.1109,-2.1109,-2.1109,-2.1109,0.0,0.0,0.0,0.0,0.0,0.0,0.0,-3.1361,-3.229,-3.3897,-3.4906,-3.5959,-3.7262,-3.7262,-3.7412,-3.7965,-3.7061,0.0,0.0,0.0,0.0,0.0,0.0,0.0,-3.5328,-3.5189,-3.4773,-3.4074,-3.3442,-3.2303,-3.0779,-3.0034,-2.9031,-2.7891,-2.7617,-2.7324,0.0,0.0,0.0,0.0,0.0,0.0,-2.8301,0.0,0.0,0.0,0.0,0.0,0.0,0.0,0.0,0.0,0.0,0.0,0.0,0.0,-2.6644,-2.5624,-2.4527,-2.4747,-2.5239,-2.4609,-2.3808,-2.31,-2.2968,-2.2098,-2.1336,-2.1149,-2.1109,-2.1109,-2.1109,-2.1109,-2.1162,-2.1363,-2.1229,-2.1256,-2.1657,-2.2285,-2.3033,-2.3928,-2.5291,-2.6159,-2.6159,-2.6306,-2.6346,-2.6239,-2.6052,-2.5865,-2.5638,-2.5277,-2.4983,-2.4756,-2.485,-2.469,-2.4209,-2.4209,-2.3995,-2.3607,-2.342,-2.326,-2.314,-2.2953,-2.2766,-2.2565,-2.2271,-2.2044,0.0,-2.1443,-2.1269,-2.1269,-2.1149,-2.1109,-2.1109,-2.1109,-2.1109,-2.1109,0.0,0.0,0.0,0.0,0.0,0.0,0.0,-3.1763,-3.2315,-3.2943,-3.4424,-3.5608,-3.6279,-3.6832,-3.7362,-3.7965,0.0,0.0,0.0,0.0,0.0,0.0,0.0,0.0,-3.638,-3.5114,-3.4572,-3.4846,-3.2285,-3.1165,-3.142,-3.0198,-2.9121,-2.834,-2.834,-2.7871,0.0,0.0,0.0,0.0,0.0,0.0,0.0,0.0,0.0,0.0,0.0,0.0,0.0,0.0,0.0,0.0,0.0,0.0,0.0,0.0,0.0,0.0,0.0,-2.5748,-2.6052,-2.4542,-2.3507,-2.2834,-2.2807,-2.1911,0.0,-2.1109,-2.1109,-2.1109,-2.1109,-2.1109,-2.1109,-2.1109,-2.1109,-2.1309,-2.1897,-2.2325,-2.2899,-2.3794,-2.4649,-2.5157,-2.5117,-2.5865,-2.6239,-2.605,-2.5996,-2.5651,-2.5104,-2.5037,-2.477,-2.4222,-2.4449,-2.4436,-2.4142,-2.4142,-2.3861,-2.33,-2.33,-2.314,-2.2928,-2.2928,-2.2928,-2.2914,-2.2525,-2.2392,-2.2338,-2.1764,-2.1588,-2.1561,-2.1216,-2.1109,-2.1109,-2.1109,-2.1109,-2.1109,0.0,0.0,0.0,0.0,0.0,0.0,0.0,0.0,0.0,0.0,-3.352,-3.465,-3.5629,-3.6232,-3.6983,0.0,0.0,0.0,0.0,0.0,0.0,0.0,0.0,0.0,-3.6405,-3.5405,-3.4404,-3.3481,-3.2136,-3.1011,-3.0052,-2.9738,-2.9277,-2.8769,-2.8769,-2.8476,0.0,0.0,0.0,0.0,0.0,0.0,0.0,0.0,0.0,0.0,-2.8301,-2.8633,0.0,0.0,0.0,0.0,0.0,0.0,0.0,0.0,-2.9911,-2.9787,-2.8069,0.0,-2.4188,-2.3817,-2.2809,-2.1869,0.0,-2.1483,-2.139,-2.1162,-2.1109,-2.1109,-2.1109,-2.1109,-2.1109,-2.1109,-2.1109,-2.1309,-2.1897,-2.322,-2.4356,-2.5024,-2.5678,-2.5905,-2.5451,-2.5798,-2.6104,-2.6037,-2.5545,-2.5224,-2.509,-2.4649,-2.4342,-2.4209,-2.4062,-2.3834,-2.3541,-2.3527,-2.334,-2.2966,-2.2966,-2.2939,-2.2928,-2.2928,-2.2928,-2.2901,-2.2311,-2.2084,-2.2044,-2.1456,-2.1216,-2.1203,-2.1136,-2.1109,-2.1109,-2.1109,-2.1109,-2.1109,0.0,0.0,0.0,0.0,0.0,0.0,0.0,0.0,0.0,0.0,0.0,-3.45,-3.5056,-3.6107,0.0,0.0,0.0,0.0,0.0,0.0,0.0,0.0,0.0,-3.6107,-3.6405,-3.5526,-3.4513,-3.3302,-3.2405,-3.1359,-3.0176,-3.0176,-2.9824,-2.9199,-2.8809,-2.8496,0.0,0.0,0.0,0.0,-2.8379,0.0,0.0,0.0,0.0,0.0,-2.8301,-2.8555,0.0,-2.8236,-2.8858,-2.9657,0.0,0.0,0.0,0.0,-2.9519,-2.953,-2.8664,-2.6608,-2.4579,-2.3941,-2.2567,-2.1336,-2.1323,-2.1336,-2.1309,-2.1149,-2.1109,-2.1109,-2.1109,-2.1216,-2.1269,-2.1136,-2.1443,-2.1964,-2.2699,-2.3634,-2.4502,-2.5224,-2.5598,-2.5718,-2.5531,-2.5651,-2.5705,-2.5571,-2.5264,-2.5024,-2.489,-2.4449,-2.4142,-2.4008,-2.3728,-2.3554,-2.3527,-2.3527,-2.338,-2.3073,-2.3073,-2.3006,-2.2859,-2.2726,-2.2659,-2.2632,-2.2044,-2.179,-2.175,-2.1296,-2.1109,-2.1109,-2.1109,-2.1109,-2.1109,-2.1109,-2.1109,-2.1109,0.0,0.0,0.0,0.0,0.0,0.0,0.0,0.0,0.0,0.0,0.0,0.0,0.0,0.0,0.0,0.0,0.0,0.0,0.0,0.0,0.0,0.0,0.0,-3.5931,-3.6531,-3.5599,-3.4801,-3.4057,-3.3139,-3.2188,-3.1228,-3.1228,-3.064,-2.9531,-2.875,-2.8359,0.0,0.0,-2.832,-2.8379,-2.832,0.0,0.0,0.0,0.0,0.0,0.0,0.0,0.0,-2.7641,-2.8351,-2.9336,-2.6917,0.0,0.0,0.0,0.0,0.0,-2.8051,-2.6952,-2.5525,-2.4263,-2.2567,-2.1229,-2.1443,-2.1296,-2.1109,-2.1109,-2.1109,-2.1122,-2.1162,-2.1349,-2.143,-2.1269,-2.2017,-2.2939,-2.3848,-2.4048,-2.4342,-2.4997,-2.5157,-2.5264,-2.5371,-2.5371,-2.5277,-2.5037,-2.493,-2.477,-2.4516,-2.4222,-2.3955,-2.3714,-2.342,-2.3354,-2.3567,-2.3607,-2.35,-2.326,-2.326,-2.31,-2.2779,-2.2539,-2.2392,-2.2325,-2.179,-2.1614,-2.1601,-2.1229,-2.1109,-2.1109,-2.1109,-2.1109,-2.1109,-2.1109,-2.1109,-2.1109,0.0,0.0,0.0,0.0,0.0,0.0,0.0,0.0,0.0,0.0,0.0,0.0,0.0,0.0,0.0,0.0,0.0,0.0,0.0,0.0,0.0,-3.7914,-3.6835,-3.6531,-3.7036,-3.5719,-3.5395,-3.6237,-3.4803,-3.3648,-3.2758,-3.2758,-3.1604,-2.9607,-2.9043,-2.8633,-2.8301,-2.8301,-2.8496,-2.8789,-2.8437,0.0,0.0,0.0,0.0,0.0,0.0,0.0,0.0,-2.8188,-2.7863,-2.7516,-2.7053,0.0,0.0,0.0,0.0,0.0,-2.6349,-2.5722,-2.4815,-2.3906,-2.2582,-2.143,-2.1229,-2.1149,-2.1109,-2.1109,-2.1109,-2.1189,-2.1443,-2.1309,-2.1323,-2.1777,-2.2819,-2.3875,-2.4756,-2.5304,-2.5491,-2.5117,-2.5518,-2.5545,-2.4836,-2.477,-2.4756,-2.4703,-2.4249,-2.3955,-2.3901,-2.3621,-2.3447,-2.3394,-2.31,-2.2832,-2.2632,-2.2873,-2.2979,-2.2939,-2.2939,-2.2779,-2.2485,-2.2445,-2.2285,-2.2031,-2.1762,-2.1614,-2.1601,-2.1229,-2.1109,-2.1109,-2.1109,-2.1109,-2.1109,-2.1109,-2.1109,-2.1109,0.0,0.0,0.0,0.0,0.0,0.0,0.0,0.0,0.0,0.0,0.0,0.0,0.0,0.0,0.0,0.0,0.0,0.0,0.0,0.0,-3.8417,-3.8467,-3.7688,-3.7236,-3.7186,-3.6801,-3.6812,-3.7096,-3.6717,-3.6022,-3.5124,-3.3543,-3.1696,-2.9607,-2.8867,-2.8476,-2.8301,-2.8301,-2.8398,-2.8574,0.0,0.0,0.0,0.0,0.0,0.0,0.0,0.0,0.0,0.0,-2.764,-2.7641,-2.5384,0.0,0.0,0.0,0.0,0.0,-2.4717,-2.3959,-2.3046,-2.2779,-2.2638,-2.2432,-2.2124,-2.1937,-2.1724,-2.1416,-2.1349,-2.1443,-2.1737,-2.1937,-2.2405,-2.3487,-2.3728,-2.4075,-2.4957,-2.4903,-2.4796,-2.4836,-2.4943,-2.4917,-2.4663,-2.4489,-2.4396,-2.4396,-2.4008,-2.3768,-2.3768,-2.3487,-2.3327,-2.3327,-2.302,-2.2792,-2.2659,-2.2632,-2.2619,-2.2619,-2.2458,-2.2405,-2.2405,-2.2098,-2.1884,-2.1802,-2.1443,-2.1309,-2.1296,-2.1162,-2.1109,-2.1109,-2.1109,-2.1109,-2.1109,-2.1109,-2.1109,-2.1109,0.0,0.0,0.0,0.0,0.0,0.0,0.0,0.0,0.0,0.0,0.0,0.0,0.0,0.0,0.0,0.0,0.0,0.0,0.0,0.0,-3.8341,-3.8668,-3.8366,-3.7841,-3.7122,-3.7816,-3.8109,-3.7887,-3.8617,-3.8288,-3.6849,-3.4078,-3.1649,-2.9587,-2.8769,-2.8379,-2.8301,-2.8301,-2.8121,-2.778,0.0,0.0,0.0,0.0,0.0,0.0,0.0,0.0,0.0,0.0,0.0,0.0,0.0,0.0,0.0,-2.3338,-2.2824,-2.3014,-2.3014,-2.2426,-2.179,-2.1951,-2.2458,-2.2926,-2.2966,-2.2686,-2.2352,-2.2124,-2.2017,-2.2017,-2.2164,-2.2619,-2.3367,-2.4583,-2.4436,-2.4462,-2.5277,-2.481,-2.4502,-2.481,-2.4649,-2.4516,-2.4529,-2.4275,-2.4075,-2.4008,-2.3728,-2.3554,-2.3554,-2.334,-2.322,-2.322,-2.2926,-2.2726,-2.2659,-2.2365,-2.2285,-2.2418,-2.2124,-2.2071,-2.2205,-2.1815,-2.1574,-2.1494,-2.1203,-2.1109,-2.1109,-2.1109,-2.1109,-2.1109,-2.1109,-2.1109,-2.1109,-2.1109,-2.1109,-2.1109,0.0,0.0,0.0,0.0,0.0,0.0,0.0,0.0,0.0,0.0,0.0,0.0,0.0,0.0,0.0,0.0,0.0,0.0,0.0,0.0,-3.8592,-3.809,-3.8542,-3.8186,-3.6781,-3.8135,-3.8874,-3.8959,-4.0395,-3.9685,-3.6871,-3.4423,-3.1958,-2.9551,-2.9082,-2.8652,-2.8301,-2.8301,-2.7511,-2.6264,-2.6264,0.0,0.0,0.0,0.0,0.0,0.0,0.0,0.0,0.0,0.0,0.0,0.0,0.0,-2.1218,-2.124,-2.1285,-2.1299,-2.1299,-2.1789,-2.2298,-2.2044,-2.183,-2.1964,-2.3046,-2.2846,-2.2645,-2.3447,-2.3394,-2.3113,-2.2846,-2.3073,-2.342,-2.3808,-2.4716,-2.5598,-2.6213,-2.6239,-2.6012,-2.5504,-2.5438,-2.5104,-2.4315,-2.3968,-2.3688,-2.3407,-2.31,-2.2926,-2.2926,-2.2913,-2.2968,-2.2968,-2.2605,-2.2325,-2.2058,-2.1764,-2.1884,-2.2418,-2.2124,-2.1857,-2.1681,-2.1641,-2.1403,-2.1136,-2.1122,-2.1109,-2.1109,-2.1109,-2.1109,-2.1109,-2.1109,-2.1109,-2.1109,-2.1109,-2.1109,-2.1109,0.0,0.0,0.0,0.0,0.0,0.0,0.0,0.0,0.0,0.0,0.0,0.0,0.0,0.0,0.0,0.0,0.0,0.0,0.0,-3.7287,-3.7518,-3.6793,-3.8115,-3.7245,-3.3728,-3.6414,-3.8551,-3.9941,-4.0475,-3.8904,-3.5373,-3.459,-3.2577,-2.9607,-2.8848,-2.8437,-2.8301,-2.8301,-2.7457,-2.61,-2.61,-2.5151,0.0,0.0,0.0,0.0,0.0,0.0,0.0,0.0,-2.4076,-2.2994,-2.2296,-2.1818,-2.1367,-2.0557,-2.0548,-2.0802,-2.0615,-2.1203,-2.1857,-2.1815,-2.1695,-2.1976,-2.3287,-2.3567,-2.3527,-2.35,-2.3834,-2.3995,-2.3514,-2.3821,-2.4182,-2.4289,-2.4983,-2.5585,-2.5812,-2.5692,-2.5491,-2.5277,-2.4917,-2.4569,-2.4235,-2.3768,-2.3367,-2.306,-2.2752,-2.2579,-2.2579,-2.2579,-2.2672,-2.2928,-2.2579,-2.2365,-2.2258,-2.179,-2.1735,-2.1884,-2.1577,-2.1483,-2.1614,-2.1363,-2.1216,-2.1109,-2.1109,-2.1109,-2.1109,-2.1109,-2.1109,-2.1109,-2.1109,-2.1109,-2.1109,-2.1109,-2.1109,-2.1109,0.0,0.0,0.0,0.0,0.0,0.0,0.0,0.0,0.0,0.0,0.0,0.0,0.0,0.0,0.0,0.0,0.0,0.0,-3.5805,-3.6533,-3.6674,-3.6158,-3.7717,-3.7251,-3.4387,-3.6247,-3.7731,-3.8607,-3.9395,-3.8069,-3.4808,-3.4466,-3.273,-2.9726,-2.8867,-2.8496,-2.8476,-2.834,-2.7168,-2.5371,-2.5371,-2.4156,0.0,0.0,0.0,0.0,0.0,0.0,0.0,0.0,-2.2853,-2.224,-2.1437,-2.1234,-2.113,-2.0191,-2.0294,-2.0628,-2.0428,-2.0815,-2.136,-2.139,-2.1547,-2.1976,-2.3313,-2.3861,-2.4088,-2.4142,-2.4262,-2.4262,-2.3968,-2.4075,-2.4289,-2.4476,-2.5064,-2.5518,-2.5518,-2.5264,-2.505,-2.4957,-2.4502,-2.4128,-2.3941,-2.3474,-2.306,-2.2752,-2.2445,-2.2285,-2.2285,-2.2285,-2.2378,-2.2579,-2.2298,-2.2151,-2.2151,-2.1657,-2.1416,-2.1403,-2.1203,-2.1216,-2.1403,-2.1203,-2.1109,-2.1109,-2.1109,-2.1109,-2.1109,-2.1109,-2.1109,-2.1109,-2.1109,-2.1109,-2.1109,-2.1109,-2.1109,-2.1109,0.0,0.0,0.0,0.0,0.0,0.0,0.0,0.0,0.0,0.0,0.0,0.0,0.0,0.0,0.0,0.0,0.0,0.0,-3.47,-3.573,-3.6405,-3.6358,-3.7412,-3.8517,-3.9595,-3.8084,-3.6447,-3.4677,-3.7178,-3.7361,-3.5332,-3.3959,-3.2169,-3.0156,-2.9297,-2.8926,-2.8887,-2.8476,-2.6554,-2.3822,-2.3822,-2.204,-1.9591,0.0,0.0,0.0,0.0,0.0,0.0,0.0,-2.0843,-1.9466,-2.004,-2.0027,-1.9853,-2.0147,-2.0441,-2.0668,-2.0668,-2.0668,-2.0748,-2.1029,-2.1336,-2.1871,-2.306,-2.3554,-2.4195,-2.5728,-2.4796,-2.3861,-2.4155,-2.3728,-2.3527,-2.4102,-2.493,-2.5504,-2.5504,-2.5251,-2.4957,-2.4663,-2.4369,-2.3968,-2.338,-2.3046,-2.2739,-2.2432,-2.2151,-2.1977,-2.1977,-2.1977,-2.1977,-2.1991,-2.1775,-2.1614,-2.1614,-2.1256,-2.1109,-2.1109,-2.1109,-2.1109,-2.1109,-2.1109,-2.1109,-2.1109,-2.1109,-2.1109,-2.1109,-2.1109,-2.1109,-2.1109,-2.1109,-2.1109,-2.1109,-2.1109,-2.1109,-2.1109,0.0,0.0,0.0,0.0,0.0,0.0,0.0,0.0,0.0,0.0,0.0,0.0,0.0,0.0,0.0,0.0,0.0,0.0,-3.468,-3.5027,-3.4938,-3.4364,-3.5957,-3.6309,-3.5147,-3.4588,-3.4375,-3.4501,-3.5529,-3.4826,-3.2674,-3.2644,-3.164,-2.9726,-2.918,-2.875,-2.8476,-2.834,-2.7168,-2.5316,-2.4267,-2.2645,-2.0859,0.0,0.0,0.0,0.0,0.0,0.0,0.0,0.0,0.0,-1.9573,-1.9706,-1.9773,-1.9653,-1.9973,-2.0281,-1.9867,-2.0361,-2.0949,-2.0842,-2.1496,-2.2365,-2.3153,-2.3714,-2.4436,-2.5692,-2.4957,-2.4168,-2.4449,-2.4195,-2.3928,-2.3901,-2.4289,-2.4596,-2.4596,-2.4342,-2.4128,-2.4035,-2.3768,-2.3434,-2.3033,-2.2726,-2.2338,-2.1844,-2.1724,-2.1748,-2.1748,-2.1748,-2.1842,-2.1977,-2.1775,-2.1614,-2.1614,-2.1256,-2.1109,-2.1109,-2.1109,-2.1109,-2.1109,-2.1109,-2.1109,-2.1109,-2.1109,-2.1109,-2.1109,-2.1109,-2.1109,-2.1109,-2.1109,-2.1109,-2.1109,-2.1109,-2.1109,-2.1109,0.0,0.0,0.0,0.0,0.0,0.0,0.0,0.0,0.0,0.0,0.0,0.0,0.0,0.0,0.0,0.0,0.0,0.0,0.0,-3.4525,-3.4264,-3.3973,-3.5285,-3.5502,-3.4239,-3.4219,-3.4005,-3.3623,-3.3608,-3.2794,-3.125,-3.1606,-3.1124,-2.9805,-2.9551,-2.9199,-2.8789,-2.8613,-2.759,-2.6045,-2.5096,-2.3487,-2.1472,0.0,0.0,0.0,0.0,0.0,0.0,0.0,0.0,0.0,-1.943,-1.9492,-1.9613,-1.9559,-1.9786,-2.004,-1.992,-2.0307,-2.0828,-2.1122,-2.1817,-2.2645,-2.3487,-2.4222,-2.4957,-2.5785,-2.5117,-2.4502,-2.4903,-2.4369,-2.3875,-2.3928,-2.3995,-2.4035,-2.4035,-2.3781,-2.3594,-2.3594,-2.322,-2.2886,-2.2699,-2.2311,-2.1924,-2.1641,-2.1507,-2.1376,-2.1376,-2.1376,-2.1456,-2.163,-2.147,-2.1376,-2.1376,-2.1203,-2.1109,-2.1109,-2.1109,-2.1109,-2.1109,-2.1109,-2.1109,-2.1096,-2.0989,-2.1002,-2.1096,-2.0989,-2.1002,-2.1109,-2.1109,-2.1109,-2.1109,-2.1109,-2.1109,-2.1109,0.0,0.0,0.0,0.0,0.0,0.0,0.0,0.0,0.0,0.0,0.0,0.0,0.0,0.0,0.0,0.0,0.0,0.0,0.0,0.0,-3.4173,-3.4731,-3.5315,-3.5671,-3.5781,-3.5713,-3.46,-3.2364,-3.1774,-3.123,-3.0762,-3.082,-3.0586,-3.0137,-3.0137,-2.9902,-2.9492,-2.9043,-2.7834,-2.6264,-2.6155,-2.4378,-2.1798,-2.1613,0.0,0.0,0.0,0.0,0.0,0.0,0.0,0.0,-1.9417,-1.943,-1.947,-1.9679,-1.976,-1.988,-2.0441,-2.0441,-2.0548,-2.1697,-2.2285,-2.2873,-2.3995,-2.4877,-2.5545,-2.5785,-2.5237,-2.4863,-2.5384,-2.4342,-2.3581,-2.4115,-2.3941,-2.3728,-2.3728,-2.3447,-2.3247,-2.3247,-2.2726,-2.2365,-2.2338,-2.1857,-2.1601,-2.1574,-2.1256,-2.1109,-2.1109,-2.1109,-2.1109,-2.1109,-2.1109,-2.1109,-2.1109,-2.1109,-2.1109,-2.1109,-2.1082,-2.1069,-2.1069,-2.1096,-2.1096,-2.1056,-2.0762,-2.0788,-2.1002,-2.0748,-2.0788,-2.1029,-2.1029,-2.1029,-2.1029,-2.1029,-2.1042,-2.1069,0.0,0.0,0.0,0.0,0.0,0.0,0.0,0.0,0.0,0.0,0.0,0.0,0.0,0.0,0.0,0.0,0.0,0.0,0.0,0.0,-3.4349,-3.5282,-3.6064,-3.6258,-3.5829,-3.4449,-3.3212,-3.2253,-3.1416,-3.0625,-2.9863,-3.0195,-3.0117,-2.9707,-2.9707,-2.9473,-2.9023,-2.8613,-2.8198,-2.7726,-2.6554,-2.4986,-2.3175,-2.1734,-2.0487,0.0,0.0,0.0,0.0,0.0,0.0,0.0,-1.9292,-1.943,-1.943,-1.9439,-1.9466,-1.9533,-1.9893,-2.0281,-2.0802,-2.175,-2.2913,-2.3955,-2.4436,-2.4863,-2.513,-2.4957,-2.5144,-2.5291,-2.5197,-2.4543,-2.4062,-2.4182,-2.3768,-2.342,-2.342,-2.2953,-2.2619,-2.2619,-2.2298,-2.1991,-2.1764,-2.1695,-2.1521,-2.1229,-2.1149,-2.1109,-2.1109,-2.1109,-2.1109,-2.1109,-2.1109,-2.1109,-2.1109,-2.1109,-2.1109,-2.1109,-2.0882,-2.0775,-2.0775,-2.1002,-2.0989,-2.0748,-2.0454,-2.0361,-2.0414,-2.0347,-2.0361,-2.0366,-2.0366,-2.0366,-2.0366,-2.0366,-2.0575,-2.0775,0.0,0.0,0.0,0.0,0.0,0.0,0.0,0.0,0.0,0.0,0.0,0.0,0.0,0.0,0.0,0.0,0.0,0.0,0.0,0.0,-3.4185,-3.4843,-3.5781,-3.5497,-3.381,-3.3136,-3.2072,-3.064,-3.0142,-2.9922,-2.9883,-3.0098,-3.0078,-2.9863,-2.9863,-2.9629,-2.9199,-2.8769,-2.8476,-2.8228,-2.7438,-2.61,-2.4419,-2.2796,-2.1274,-1.9766,-1.882,0.0,0.0,0.0,0.0,0.0,0.0,0.0,-1.8998,-1.9336,-1.9265,-1.9305,-2.0027,-2.0441,-2.0989,-2.2298,-2.342,-2.4275,-2.4569,-2.4863,-2.4997,-2.4703,-2.4997,-2.5264,-2.5104,-2.4596,-2.4155,-2.4022,-2.3621,-2.322,-2.2939,-2.2619,-2.2365,-2.2231,-2.1951,-2.1724,-2.1628,-2.143,-2.1269,-2.1122,-2.1109,-2.1109,-2.1109,-2.1109,-2.1042,-2.0909,-2.0909,-2.0828,-2.0695,-2.0695,-2.0695,-2.0695,-2.0535,-2.0468,-2.0468,-2.0615,-2.0601,-2.0441,-2.0147,-2.0107,-2.0167,-2.008,-2.0107,-2.0167,-2.0167,-2.0321,-2.0441,-2.0441,-2.0628,-2.0882,0.0,0.0,0.0,0.0,0.0,0.0,0.0,0.0,0.0,0.0,0.0,0.0,0.0,0.0,0.0,0.0,0.0,0.0,0.0,0.0,0.0,-3.404,-3.4727,-3.402,-3.1692,-3.1795,-3.0968,-2.9023,-2.8945,-2.9355,-3.0195,-3.0117,-3.0137,-3.0195,-3.0117,-2.9902,-2.9531,-2.9023,-2.8613,-2.8301,-2.8301,-2.7138,-2.5272,-2.413,-2.2365,-2.0328,-1.9111,-1.859,-1.841,-1.841,0.0,0.0,0.0,0.0,-1.8517,-1.9052,-1.9038,-1.9065,-2.0094,-2.0601,-2.1216,-2.2846,-2.3688,-2.4195,-2.4436,-2.4716,-2.485,-2.4543,-2.481,-2.5064,-2.501,-2.4569,-2.4115,-2.3821,-2.3514,-2.3113,-2.2498,-2.2378,-2.2231,-2.1951,-2.1657,-2.1534,-2.1534,-2.1256,-2.1109,-2.1109,-2.1109,-2.1082,-2.1042,-2.1029,-2.0895,-2.0615,-2.0601,-2.0481,-2.018,-2.0167,-2.0167,-2.0167,-2.0127,-2.0134,-2.008,-2.008,-2.0107,-2.0147,-1.9853,-1.9867,-2.0067,-1.9826,-1.9867,-2.008,-2.008,-2.0227,-2.0454,-2.0508,-2.0708,-2.0962,0.0,0.0,0.0,0.0,0.0,0.0,0.0,0.0,0.0,0.0,0.0,0.0,0.0,0.0,0.0,0.0,0.0,0.0,0.0,0.0,0.0,-3.3368,-3.2678,-3.2179,-3.1746,-3.059,-2.9813,-2.9492,-2.9101,-2.9355,-3.0195,-2.9824,-2.9844,-3.0176,-2.9824,-2.9685,-2.9567,-2.8711,-2.834,-2.8301,-2.8301,-2.7138,-2.5361,-2.4914,-2.2995,-2.0431,-1.9708,-1.8862,-1.8049,-1.8049,-1.8049,0.0,0.0,0.0,-1.8115,-1.8504,-1.8584,-1.8637,-1.9038,-2.0267,-2.1735,-2.2672,-2.338,-2.3834,-2.3875,-2.4115,-2.4235,-2.3941,-2.4529,-2.4997,-2.4743,-2.4422,-2.4115,-2.3821,-2.3514,-2.3113,-2.2498,-2.2205,-2.1937,-2.1708,-2.1349,-2.1162,-2.1162,-2.1136,-2.1109,-2.1109,-2.1109,-2.1002,-2.0748,-2.0735,-2.0601,-2.0307,-2.0294,-2.0267,-2.0167,-2.0167,-2.0167,-2.0227,-1.9973,-1.9733,-1.9479,-1.9479,-1.9626,-1.984,-1.9546,-1.9452,-1.9479,-1.9497,-1.9452,-1.9479,-1.9479,-1.9506,-1.9573,-1.9826,-2.0107,-2.0388,0.0,0.0,0.0,0.0,0.0,0.0,0.0,0.0,0.0,0.0,0.0,0.0,0.0,0.0,0.0,-3.3947,0.0,0.0,0.0,0.0,0.0,-3.1598,-3.1179,-3.0743,-3.0201,-2.953,-2.9082,-2.8848,-2.8652,-2.9004,-2.9844,-2.9902,-3.0156,-3.0547,-2.9883,-2.9626,-2.9567,-2.8652,-2.8301,-2.8262,-2.8027,-2.729,-2.6154,-2.5054,-2.3668,-2.2037,-2.0251,-1.9316,-1.8777,-1.8049,-1.7782,-1.7809,-1.7943,0.0,0.0,0.0,-1.8237,-1.845,-1.9341,-2.0347,-2.1413,-2.2633,-2.3129,-2.3354,-2.3688,-2.3995,-2.4115,-2.3834,-2.4342,-2.4743,-2.4449,-2.4289,-2.4115,-2.3821,-2.338,-2.2859,-2.2258,-2.1924,-2.163,-2.1336,-2.1189,-2.1109,-2.1109,-2.1109,-2.1109,-2.1109,-2.0962,-2.0815,-2.0681,-2.0521,-2.0294,-2.0,-1.9987,-1.9907,-1.9746,-1.9746,-1.9746,-1.9746,-1.9626,-1.9492,-1.943,-1.943,-1.9439,-1.9546,-1.9426,-1.943,-1.943,-1.943,-1.943,-1.943,-1.943,-1.9559,-1.9867,-2.0,-2.0334,-2.0748,0.0,0.0,0.0,0.0,0.0,0.0,0.0,0.0,0.0,0.0,0.0,0.0,0.0,0.0,0.0,0.0,-3.3395,0.0,0.0,0.0,0.0,-2.9467,-2.958,-2.9282,-2.8594,-2.8711,-2.8613,-2.8301,-2.8301,-2.873,-2.9626,-2.9883,-3.0351,-3.0859,-3.0195,-2.9785,-2.9531,-2.8769,-2.8398,-2.8262,-2.7832,-2.7344,0.0,0.0,-2.4345,-2.3434,-2.1355,-2.0195,-1.942,-1.8461,-1.7884,-1.7582,-1.7582,-1.7582,0.0,0.0,0.0,-1.8237,-1.9639,-2.0174,-2.0681,-2.2071,-2.2539,-2.2686,-2.3287,-2.3714,-2.3901,-2.3594,-2.4062,-2.4409,-2.4048,-2.4102,-2.4088,-2.3714,-2.3207,-2.2659,-2.2071,-2.1802,-2.1507,-2.1149,-2.1109,-2.1109,-2.1109,-2.1109,-2.1109,-2.1109,-2.0842,-2.0641,-2.0575,-2.0281,-1.9987,-1.9693,-1.9693,-1.9586,-1.943,-1.943,-1.943,-1.943,-1.943,-1.943,-1.943,-1.943,-1.943,-1.943,-1.943,-1.943,-1.943,-1.943,-1.943,-1.943,-1.943,-1.9626,-2.0027,-2.0174,-2.0508,-2.0909,0.0,0.0,0.0,0.0,0.0,0.0,0.0,0.0,0.0,0.0,0.0,0.0,-3.5508,-3.4575,-3.3922,-3.3897,-3.3395,-3.224,-3.0231,-2.895,0.0,-2.7204,-2.7584,0.0,-2.7787,-2.8125,-2.832,-2.8301,-2.8301,-2.873,-2.9626,-2.959,-3.0059,-3.0898,-3.084,-3.0351,-2.9607,0.0,0.0,0.0,0.0,0.0,0.0,0.0,-2.5232,-2.3683,-2.3534,-2.1811,-1.9576,-1.9524,-1.8655,-1.7582,-1.7582,-1.7582,-1.7582,0.0,0.0,0.0,-1.9078,-1.9426,-1.9779,-2.0909,-2.1416,-2.1842,-2.2352,-2.2953,-2.3287,-2.2979,-2.3607,-2.4048,-2.3474,-2.3821,-2.4022,-2.3447,-2.3073,-2.2659,-2.2071,-2.1802,-2.1507,-2.1149,-2.1109,-2.1109,-2.1109,-2.1109,-2.1109,-2.1109,-2.0842,-2.0548,-2.0267,-1.9987,-1.9693,-1.9457,-1.9444,-1.9386,-1.943,-1.943,-1.943,-1.943,-1.943,-1.943,-1.943,-1.943,-1.943,-1.943,-1.943,-1.943,-1.943,-1.943,-1.943,-1.943,-1.943,-1.9444,-1.9479,-2.0027,-2.0193,-2.0361,0.0,0.0,0.0,0.0,0.0,0.0,0.0,0.0,0.0,0.0,0.0,0.0,0.0,-3.4831,-3.4274,-3.3922,-3.2202,-3.0974,-3.0583,-2.8613,0.0,-2.7474,-2.763,-2.7845,-2.8066,-2.8223,-2.8301,-2.8301,-2.8301,-2.8594,-2.916,-2.9707,-3.0,-3.0039,-3.0039,-2.9863,-2.9531,-2.8809,0.0,0.0,0.0,0.0,0.0,0.0,-2.5566,-2.4873,-2.3998,-2.3085,-2.1963,-2.0179,-1.9265,-1.8731,-1.7667,-1.7353,-1.7353,-1.7353,-1.7353,-1.7581,-1.8531,-1.8811,-1.9078,-2.0254,-2.0909,-2.1376,-2.1777,-2.2472,-2.2939,-2.2645,-2.2281,-2.1904,-2.1361,-2.2582,-2.3567,-2.3367,-2.2752,-2.2231,-2.2017,-2.1577,-2.1229,-2.1122,-2.1109,-2.1109,-2.1109,-2.1109,-2.1109,-2.1109,-2.0668,-2.0347,-2.0241,-1.9786,-1.9479,-1.943,-1.943,-1.943,-1.943,-1.943,-1.943,-1.943,-1.943,-1.943,-1.943,-1.943,-1.943,-1.943,-1.943,-1.943,-1.943,-1.943,-1.943,-1.943,-1.943,-1.9479,-1.9693,-2.0094,-2.0361,-2.0575,0.0,0.0,0.0,0.0,0.0,0.0,0.0,0.0,0.0,-3.696,0.0,0.0,0.0,0.0,-3.457,-3.3547,-3.1553,-3.0278,-3.0176,-2.8166,-2.7148,-2.7441,-2.765,-2.7845,-2.8066,-2.8223,-2.8301,-2.8301,-2.8301,-2.8516,-2.8926,-2.9492,-2.9707,-2.957,-2.9414,-2.9434,0.0,0.0,-2.8555,-2.8223,-2.7519,-2.7148,-2.6953,-2.6387,-2.6122,-2.6004,-2.512,-2.45,-2.3859,-2.1823,-2.0865,-2.0199,-1.856,-1.7633,-1.7206,-1.7206,-1.7206,-1.738,-1.813,-1.8343,-1.8624,-1.98,-2.0307,-2.0708,-2.1467,-2.1595,-2.1584,-2.1449,-2.0563,-1.96,-1.9203,-2.0274,-2.1468,-2.2109,-2.1539,-2.1304,-2.1925,-2.1483,-2.1109,-2.1109,-2.1109,-2.1109,-2.1109,-2.1029,-2.0962,-2.0962,-2.0414,-2.0094,-2.0094,-1.9626,-1.943,-1.943,-1.943,-1.943,-1.943,-1.943,-1.943,-1.943,-1.943,-1.943,-1.943,-1.943,-1.943,-1.943,-1.943,-1.943,-1.943,-1.943,-1.943,-1.943,-1.943,-1.9492,-1.9706,-2.0094,-2.0361,-2.0588,0.0,0.0,0.0,0.0,0.0,0.0,0.0,0.0,0.0,-3.8015,0.0,0.0,0.0,0.0,0.0,-3.2841,-3.159,-3.029,-2.8914,-2.7723,-2.7051,-2.7051,0.0,0.0,0.0,-2.8086,-2.8301,-2.8301,-2.8301,-2.8496,-2.8906,-2.8906,-2.9141,-2.9531,-2.9121,-2.916,-2.9531,0.0,-2.9043,-2.8262,-2.7832,-2.7422,-2.7031,-2.7031,-2.7012,-2.7012,-2.7012,-2.6153,-2.4957,-2.4473,-2.346,-2.2051,-2.0183,0.0,0.0,0.0,0.0,0.0,0.0,0.0,0.0,-1.9466,-1.9546,-1.9733,-2.1162,-2.0113,-1.9006,-1.9387,-1.8382,-1.7368,-1.7168,-1.7037,-1.7669,-1.9634,-1.9492,-1.982,-2.1582,-2.1405,-2.1109,-2.1046,-2.1046,-2.1109,-2.1109,-2.0842,-2.0681,-2.0681,-2.0134,-1.98,-1.9813,-1.9533,-1.943,-1.943,-1.943,-1.943,-1.943,-1.9417,-1.9417,-1.9417,-1.9403,-1.9403,-1.9417,-1.9417,-1.9417,-1.943,-1.943,-1.943,-1.943,-1.943,-1.943,-1.943,-1.943,-1.943,-1.9439,-2.0013,-2.0167,-2.0321,0.0,0.0,0.0,0.0,0.0,0.0,-3.8969,-3.8793,-3.8492,0.0,0.0,0.0,-3.6732,-3.5011,-3.3457,-3.2423,-3.1077,-3.0185,-2.9878,-2.8645,-2.793,-2.793,-2.8047,-2.8125,-2.8125,-2.8242,-2.8301,-2.8301,-2.8301,-2.8359,-2.8476,-2.8769,-2.8984,0.0,-2.9297,-2.9121,-2.8652,-2.8652,0.0,-2.8262,-2.7832,-2.7598,-2.7461,-2.7129,-2.7012,-2.7012,-2.7012,-2.6756,-2.6288,-2.5161,-2.434,-2.3219,0.0,0.0,0.0,0.0,0.0,0.0,-1.7609,0.0,0.0,0.0,0.0,0.0,-1.8165,-1.7414,-1.6667,-1.7011,-1.5962,-1.4967,-1.5032,-1.3994,-1.3737,-1.5698,-1.7765,-1.8953,-1.8206,-1.9829,-2.0652,-1.9355,-2.0322,-2.1109,-2.1109,-2.0842,-2.0762,-2.0975,-2.0254,-1.9893,-2.0107,-1.9639,-1.943,-1.943,-1.943,-1.943,-1.943,-1.9158,-1.9052,-1.9038,-1.8838,-1.8838,-1.9052,-1.9052,-1.9158,-1.943,-1.943,-1.943,-1.943,-1.943,-1.943,-1.943,-1.943,-1.943,-1.9439,-2.0013,-2.0167,-2.0321,0.0,0.0,0.0,0.0,0.0,0.0,-3.8374,-3.7782,-3.7244,0.0,0.0,0.0,-3.5324,-3.415,-3.2959,-3.1774,-3.0967,-3.0171,-2.9513,-2.8741,-2.8301,-2.8301,-2.8301,-2.8301,-2.8301,-2.8301,-2.8301,-2.8301,-2.8301,-2.8301,-2.8301,-2.8535,-2.8652,0.0,0.0,0.0,0.0,0.0,-2.8184,-2.8027,-2.7949,-2.793,-2.7891,-2.7637,-2.7539,-2.7539,-2.7539,-2.7539,-2.7415,-2.6475,-2.5315,-2.3949,0.0,0.0,0.0,0.0,0.0,0.0,0.0,0.0,0.0,0.0,0.0,0.0,-1.7869,-1.6462,-1.5166,-1.5582,-1.3908,-1.2736,-1.3721,-1.2512,-1.1909,-1.3846,-1.5651,-1.6748,-1.6638,-1.8005,-1.863,-1.7549,-1.896,-2.0005,-2.0005,-2.0453,-2.0695,-2.0735,-2.016,-1.9826,-1.9867,-1.9546,-1.943,-1.943,-1.943,-1.9305,-1.9185,-1.9011,-1.8865,-1.8744,-1.8571,-1.8637,-1.8918,-1.8918,-1.9092,-1.943,-1.943,-1.943,-1.943,-1.943,-1.943,-1.943,-1.943,-1.943,-1.9439,-2.0013,-2.0167,-2.0321,0.0,0.0,0.0,-3.9258,-3.8185,-3.7334,-3.7334,-3.62,-3.54,0.0,-3.4843,-3.4244,-3.3652,-3.352,-3.2746,-3.1049,-3.09,-3.0179,-2.8506,-2.8359,-2.834,-2.8301,-2.8301,-2.8301,-2.8301,-2.8301,-2.8301,-2.8301,-2.8301,-2.8301,-2.8301,-2.8301,-2.8262,0.0,0.0,0.0,0.0,0.0,-2.8008,-2.7748,-2.8125,-2.8301,-2.8301,-2.8301,-2.8301,-2.8301,-2.8301,-2.8301,-2.8223,-2.7865,-2.6337,0.0,0.0,0.0,0.0,0.0,-1.868,0.0,0.0,0.0,0.0,0.0,-1.802,0.0,-1.8757,-1.6472,-1.4239,-1.4739,-1.2495,-1.1055,-1.3021,-1.2141,-1.1678,-1.345,-1.3562,-1.4066,-1.5711,-1.6025,-1.5949,-1.5674,-1.7345,-1.8512,-1.8512,-1.9814,-2.0575,-2.0347,-2.0027,-1.9706,-1.9444,-1.943,-1.943,-1.943,-1.943,-1.9225,-1.8931,-1.8891,-1.8731,-1.8437,-1.8437,-1.8597,-1.8878,-1.8905,-1.9092,-1.943,-1.943,-1.943,-1.943,-1.943,-1.943,-1.943,-1.943,-1.943,-1.9439,-2.0013,-2.0167,-2.0321,0.0,0.0,0.0,-3.6379,-3.6154,-3.6205,-3.6205,-3.5983,-3.5893,-3.6295,-3.5525,-3.4637,-3.3763,-3.2937,-3.192,-3.0505,-3.0393,-2.9889,-2.8848,-2.8789,-2.8652,-2.8301,-2.8301,-2.8301,-2.8301,-2.8301,-2.8301,-2.8301,-2.8301,-2.8301,-2.8301,-2.8301,-2.8105,0.0,0.0,0.0,0.0,0.0,-2.7787,-2.7748,-2.8125,-2.8301,-2.8301,-2.8301,-2.8301,-2.8301,-2.8301,-2.8301,-2.8223,-2.7865,-2.7383,-2.6787,0.0,0.0,0.0,-2.2006,0.0,0.0,0.0,0.0,0.0,0.0,-1.6838,0.0,-1.603,-1.4801,-1.3652,-1.3779,-1.2643,-1.1832,-1.248,-1.2548,-1.2637,-1.3145,-1.3261,-1.3017,-1.212,-1.4289,-1.5378,-1.3979,-1.656,-1.8512,-1.8512,-1.9814,-2.0748,-2.0922,-2.0454,-1.992,-1.9457,-1.943,-1.943,-1.943,-1.943,-1.9225,-1.8931,-1.8691,-1.8424,-1.8075,-1.8075,-1.829,-1.8584,-1.8811,-1.9092,-1.943,-1.943,-1.943,-1.943,-1.943,-1.943,-1.943,-1.943,-1.943,-1.9439,-2.0013,-2.0167,-2.0321,0.0,0.0,0.0,0.0,-3.4879,-3.4471,-3.4471,-3.387,-3.3545,-3.4006,-3.3801,-3.3364,-3.2685,0.0,0.0,0.0,0.0,0.0,0.0,-2.8926,-2.873,-2.832,-2.8301,-2.8301,-2.8301,-2.8301,-2.8301,-2.8301,-2.8301,-2.8301,-2.8301,-2.8301,-2.8066,0.0,0.0,0.0,0.0,0.0,-2.7988,-2.7988,-2.8203,-2.8301,-2.8301,-2.8301,-2.8301,-2.8301,-2.8301,-2.8301,-2.8262,-2.8047,-2.7885,0.0,-2.6636,-2.5585,-2.4479,0.0,-2.269,-2.1788,0.0,0.0,0.0,-1.917,-1.8177,0.0,0.0,-1.546,-1.4483,-1.4555,-1.3456,-1.2894,-1.4172,-1.3737,-1.3634,-1.4919,-1.4442,-1.3465,-1.2019,-1.2758,-1.3038,-1.2099,-1.507,-1.7216,-1.7216,-1.9422,-2.0828,-2.0681,-2.0267,-1.9826,-1.9444,-1.943,-1.943,-1.943,-1.943,-1.9225,-1.8931,-1.8637,-1.8343,-1.7995,-1.7995,-1.8196,-1.8504,-1.8784,-1.9092,-1.943,-1.943,-1.943,-1.943,-1.943,-1.943,-1.943,-1.943,-1.943,-1.9439,-2.0013,-2.0167,-2.0321,0.0,0.0,0.0,0.0,-3.3537,-3.2768,0.0,0.0,-3.1172,-3.1582,-3.1953,0.0,0.0,0.0,0.0,0.0,0.0,0.0,0.0,-2.9004,-2.8691,-2.8203,-2.8242,-2.8262,-2.8184,-2.8262,-2.8301,-2.8301,-2.8301,-2.8262,-2.8164,-2.8164,-2.7949,0.0,0.0,0.0,0.0,0.0,0.0,-2.8301,-2.8301,-2.8301,-2.8301,-2.8301,-2.8301,-2.8301,-2.8301,-2.8301,-2.8301,-2.8301,-2.8066,-2.7845,-2.7845,-2.6784,0.0,0.0,0.0,0.0,0.0,0.0,0.0,0.0,0.0,-1.9866,0.0,0.0,0.0,-1.6431,-1.5033,-1.4364,-1.6022,-1.5072,-1.4624,-1.6667,-1.5894,-1.4679,-1.3624,-1.2475,-1.157,-1.1205,-1.4243,-1.6314,-1.6431,-1.9179,-2.0802,-2.0207,-1.996,-1.9679,-1.9386,-1.943,-1.943,-1.943,-1.943,-1.9199,-1.8838,-1.8664,-1.837,-1.7902,-1.8022,-1.8263,-1.8504,-1.8784,-1.9092,-1.943,-1.943,-1.943,-1.943,-1.943,-1.943,-1.943,-1.943,-1.943,-1.9439,-1.996,-2.0187,-2.0307,-3.336,-3.336,0.0,0.0,0.0,0.0,0.0,0.0,0.0,-3.2031,0.0,0.0,0.0,0.0,0.0,0.0,0.0,0.0,-3.0059,-2.9336,-2.8574,-2.7826,-2.8086,-2.8125,-2.7806,-2.8105,-2.8301,-2.8301,-2.8301,-2.8105,-2.7787,0.0,0.0,0.0,-2.6758,0.0,0.0,0.0,-2.7598,-2.8301,-2.8301,-2.8301,-2.8301,-2.8301,-2.8301,-2.8301,-2.8301,-2.8301,-2.8301,0.0,-2.8262,-2.8223,0.0,-2.7877,-2.7369,-2.7311,0.0,0.0,0.0,0.0,0.0,0.0,-2.2032,0.0,-2.1012,0.0,-2.0546,-1.9095,0.0,-1.6749,-1.5944,0.0,0.0,-1.6168,-1.6426,-1.649,-1.6346,-1.5319,-1.4114,-1.299,-1.5811,-1.7938,-1.8157,-1.9776,-2.0588,-2.0254,-1.996,-1.9679,-1.9386,-1.943,-1.943,-1.943,-1.943,-1.9105,-1.8544,-1.8758,-1.845,-1.7649,-1.8183,-1.8464,-1.8504,-1.8784,-1.9092,-1.943,-1.943,-1.943,-1.943,-1.943,-1.943,-1.943,-1.943,-1.943,-1.947,-1.9733,-2.0013,-2.0281,0.0,0.0,0.0,0.0,0.0,0.0,0.0,0.0,0.0,0.0,0.0,0.0,-3.2559,-3.2363,0.0,0.0,0.0,-3.0644,-2.9883,-2.9492,0.0,-2.8066,-2.8203,-2.8203,-2.8027,-2.8203,-2.8301,-2.8301,-2.8301,-2.8066,0.0,0.0,0.0,0.0,-2.7344,-2.7559,-2.7728,-2.7734,-2.7969,-2.8301,-2.8301,-2.8301,0.0,-2.8301,-2.8301,-2.8301,-2.8301,-2.8301,-2.8301,0.0,-2.8301,0.0,0.0,0.0,0.0,0.0,0.0,0.0,0.0,0.0,0.0,0.0,0.0,0.0,-2.1977,0.0,-2.1255,0.0,0.0,0.0,0.0,0.0,0.0,0.0,-1.7679,-1.7687,-1.675,-1.7185,-1.6763,-1.4769,-1.6484,-1.8259,-1.9386,-2.0352,-2.0668,-2.0027,-2.0027,-1.9853,-1.9399,-1.943,-1.943,-1.943,-1.9199,-1.8998,-1.8744,-1.8531,-1.8169,-1.7836,-1.8103,-1.833,-1.8504,-1.8784,-1.9092,-1.943,-1.943,-1.943,-1.943,-1.943,-1.943,-1.943,-1.943,-1.943,-1.9399,-1.9693,-1.9987,-2.0281,0.0,0.0,0.0,0.0,0.0,0.0,-3.0898,-3.1426,-3.1894,-3.2148,-3.2695,-3.3008,-3.2812,-3.2793,-3.2539,0.0,-3.1543,-3.0937,-3.0,-2.959,-2.9004,-2.8164,-2.8223,-2.8242,-2.8125,-2.8242,-2.8301,-2.8301,-2.8301,-2.8066,0.0,0.0,0.0,0.0,-2.7099,-2.729,-2.7304,-2.7868,-2.8184,-2.8301,-2.8301,-2.8301,-2.8301,-2.8301,-2.8301,-2.8301,-2.8301,-2.8301,-2.8301,-2.8301,-2.8301,0.0,-2.8301,-2.8301,0.0,0.0,0.0,0.0,-2.7461,0.0,0.0,0.0,0.0,0.0,0.0,0.0,0.0,0.0,0.0,0.0,0.0,0.0,0.0,0.0,0.0,-1.8507,-1.7342,-1.8468,-1.8538,-1.6271,-1.7433,-1.9,-2.0345,-2.0708,-2.0575,-1.9853,-1.984,-1.9693,-1.9265,-1.9239,-1.9279,-1.9417,-1.9158,-1.8971,-1.8811,-1.8408,-1.8156,-1.7903,-1.8076,-1.8277,-1.8504,-1.8784,-1.9092,-1.943,-1.943,-1.943,-1.943,-1.943,-1.943,-1.943,-1.943,-1.943,-1.9399,-1.9693,-1.9987,-2.0281,0.0,-3.0898,0.0,0.0,0.0,-3.0898,-3.0898,-3.0918,-3.123,-3.2111,-3.2187,-3.2363,-3.2754,-3.2793,-3.2793,0.0,-3.1621,-3.0898,-3.0859,-2.9648,-2.8574,-2.7767,0.0,-2.8105,0.0,-2.8086,-2.8301,-2.8301,-2.8301,-2.8066,0.0,0.0,0.0,0.0,-2.5053,-2.5377,-2.6227,-2.7285,-2.793,-2.8301,-2.8301,-2.8301,-2.8301,0.0,-2.8301,-2.8301,-2.8301,0.0,0.0,-2.8301,-2.8301,-2.8301,-2.8301,0.0,0.0,0.0,0.0,0.0,0.0,0.0,0.0,-2.7175,0.0,0.0,0.0,0.0,-2.5829,0.0,0.0,0.0,0.0,0.0,0.0,0.0,0.0,0.0,0.0,-1.9185,-1.8881,-1.7517,-1.9257,-2.0713,-2.1056,-2.0588,-2.0134,-1.9826,-1.9279,-1.8958,-1.8945,-1.8945,-1.9065,-1.9417,-1.9417,-1.9078,-1.8504,-1.8771,-1.8464,-1.7609,-1.8196,-1.8477,-1.8504,-1.8784,-1.9092,-1.943,-1.943,-1.943,-1.943,-1.943,-1.943,-1.943,-1.943,-1.943,-1.9399,-1.9693,-1.9987,-2.0281,0.0,0.0,0.0,0.0,-3.0898,-3.0898,-3.0898,-3.1133,-3.1621,-3.2461,-3.2832,-3.3262,-3.3984,-3.3809,-3.3535,-3.3242,-3.2305,-3.1504,-3.0918,-3.0176,-2.9512,-2.9,-2.9117,-2.8945,0.0,0.0,0.0,0.0,0.0,0.0,0.0,0.0,0.0,0.0,0.0,-2.5847,-2.6209,-2.7519,0.0,0.0,0.0,-2.8457,-2.8672,0.0,-2.8301,-2.8301,-2.8301,-2.8301,-2.8301,-2.8301,-2.8301,-2.8301,-2.8301,-2.8301,-2.8301,-2.8301,-2.8301,-2.8301,0.0,-2.8301,-2.8164,-2.7578,0.0,0.0,0.0,0.0,0.0,0.0,0.0,0.0,0.0,0.0,0.0,0.0,0.0,0.0,0.0,-1.9011,-1.8999,-1.8751,-1.9713,-2.0267,-1.9987,-2.012,-1.9947,-1.9265,-1.9038,-1.8838,-1.8651,-1.8824,-1.8971,-1.9078,-1.9078,-1.8891,-1.849,-1.8397,-1.809,-1.7582,-1.7996,-1.8303,-1.8504,-1.8784,-1.9092,-1.943,-1.943,-1.943,-1.943,-1.943,-1.943,-1.943,-1.943,-1.943,-1.943,-1.9479,-1.9813,-2.0247,-3.0898,0.0,0.0,0.0,-3.0898,-3.0898,-3.0898,-3.1387,-3.1992,-3.2695,-3.3301,-3.3867,-3.4414,-3.4238,-3.3887,-3.3457,-3.2656,-3.1875,-3.1152,-3.0527,-3.0,-2.9646,-2.9626,-2.9355,0.0,0.0,0.0,0.0,0.0,-2.6409,0.0,0.0,0.0,0.0,0.0,-2.5261,-2.5443,-2.7609,-2.8437,0.0,0.0,-2.8672,0.0,0.0,-2.8516,-2.8496,-2.834,-2.8301,-2.8301,-2.8301,-2.8301,-2.8301,-2.8301,-2.8184,-2.8066,-2.8066,-2.7949,-2.7832,-2.7832,-2.7949,-2.793,-2.7363,-2.7109,0.0,-2.6484,0.0,-2.6388,0.0,0.0,0.0,0.0,0.0,0.0,0.0,0.0,0.0,0.0,-1.8838,-1.8878,-1.9172,-1.9626,-1.9853,-1.9693,-1.992,-1.976,-1.8985,-1.8824,-1.8637,-1.8343,-1.8611,-1.8811,-1.8918,-1.9025,-1.8891,-1.849,-1.8397,-1.8156,-1.7756,-1.8102,-1.8408,-1.8651,-1.8945,-1.9185,-1.943,-1.943,-1.943,-1.943,-1.943,-1.943,-1.943,-1.943,-1.943,-1.943,-1.9479,-1.9893,-2.0454,-3.0898,-3.0898,-3.0898,-3.0898,-3.0898,-3.0898,-3.0898,-3.1561,-3.2263,-3.2773,-3.3491,-3.4018,-3.4141,-3.4101,-3.3906,-3.3496,-3.2656,-3.1992,-3.1582,-3.0723,-3.0059,0.0,-2.9629,-2.9434,-2.8984,0.0,0.0,0.0,0.0,0.0,0.0,0.0,0.0,0.0,-2.3766,0.0,-2.4005,-2.7271,-2.8529,-2.8272,-2.868,-2.8855,-2.8984,-2.8965,-2.8945,-2.8887,-2.8457,-2.8301,-2.8301,-2.8301,-2.8301,-2.8301,-2.8301,-2.8027,-2.7748,-2.7748,-2.7383,-2.7051,-2.707,-2.7363,-2.7532,-2.668,-2.6758,-2.6934,0.0,0.0,-2.7168,0.0,0.0,0.0,0.0,0.0,0.0,0.0,0.0,0.0,0.0,0.0,-1.8584,-1.8865,-1.9118,-1.9519,-2.0134,-1.992,-1.9506,-1.8945,-1.8624,-1.8317,-1.7982,-1.833,-1.8637,-1.8891,-1.9199,-1.9092,-1.8517,-1.8784,-1.8637,-1.8022,-1.8595,-1.8918,-1.8931,-1.9225,-1.943,-1.943,-1.943,-1.943,-1.943,-1.943,-1.943,-1.943,-1.943,-1.943,-1.9426,-1.972,-2.0174,-2.0695,-3.0898,-3.0898,-3.0898,-3.0898,-3.0898,-3.0898,-3.0898,-3.0423,-3.0804,-3.2956,-3.2475,-3.2777,-3.4848,-3.4473,-3.4023,-3.3906,-3.2851,-3.2129,-3.2012,0.0,0.0,-3.0566,-3.0547,-3.0332,-2.9883,-2.8803,0.0,-2.7545,0.0,0.0,-2.5444,0.0,0.0,0.0,0.0,-2.3822,-2.3855,-2.5008,-2.6243,-2.7416,-2.7508,-2.8484,-2.9844,0.0,-2.9394,-2.9297,-2.8555,-2.8301,-2.8301,-2.8301,-2.8301,-2.8301,-2.8301,-2.8223,-2.8125,-2.8125,-2.7832,-2.7578,-2.7891,-2.7812,-2.7748,-2.7773,-2.7656,-2.748,-2.7415,0.0,0.0,0.0,0.0,0.0,0.0,0.0,0.0,0.0,0.0,0.0,0.0,0.0,0.0,-1.8571,-1.8263,-1.845,-1.9492,-1.9132,-1.8758,-1.8611,-1.8116,-1.7782,-1.7702,-1.841,-1.8744,-1.8611,-1.9105,-1.9185,-1.8811,-1.8891,-1.8744,-1.8384,-1.8744,-1.8918,-1.8931,-1.9225,-1.943,-1.943,-1.943,-1.943,-1.943,-1.943,-1.943,-1.943,-1.943,-1.9506,-1.972,-2.0013,-2.0214,-2.0414,-3.0898,-3.0898,-3.045,-2.8979,-2.9443,-3.0049,-3.0049,-2.9097,-2.9,-3.0701,-3.1172,-3.1906,-3.3359,-3.3849,-3.3926,-3.3535,-3.2757,-3.209,-3.1894,0.0,0.0,-3.0898,-3.0898,-3.0664,-3.0215,-2.8663,0.0,-2.7391,0.0,0.0,-2.4483,0.0,0.0,0.0,0.0,-2.2814,-2.2958,-2.4614,-2.6171,-2.7564,-2.8196,-2.8746,0.0,-2.888,-2.8578,-2.8201,-2.7674,-2.7844,-2.8301,-2.8301,-2.8301,-2.8301,-2.8301,-2.8164,-2.8027,-2.8027,-2.7715,-2.7441,-2.7676,-2.7559,-2.7441,-2.7676,-2.7559,-2.7422,-2.7669,-2.7728,-2.7767,0.0,-2.8125,-2.7946,0.0,0.0,0.0,0.0,0.0,0.0,0.0,0.0,0.0,0.0,-1.8223,-1.8437,-1.9105,-1.8517,-1.8156,-1.829,-1.7969,-1.7662,-1.746,-1.837,-1.8731,-1.8303,-1.9118,-1.9359,-1.8931,-1.9185,-1.9092,-1.8677,-1.8971,-1.9118,-1.9118,-1.9292,-1.943,-1.943,-1.943,-1.943,-1.943,-1.943,-1.9439,-1.9573,-1.9693,-1.984,-2.0027,-2.0321,-2.0428,-2.0494,-3.0645,-3.0392,-2.9353,-2.653,-2.7261,-2.8289,-2.8342,-2.7587,-2.721,-2.7716,-2.9613,-3.0864,-3.0721,-3.2217,-3.3065,-3.2541,-3.2038,-3.1733,-3.1483,-3.1133,-3.0898,-3.0898,-3.0898,-3.0703,-3.0293,-2.8795,-2.7885,0.0,0.0,0.0,0.0,0.0,0.0,0.0,0.0,0.0,0.0,-2.502,-2.6804,-2.7481,-2.9008,-2.8795,-2.7552,-2.7552,-2.7013,-2.6338,-2.6507,-2.7178,-2.8067,-2.8228,-2.8067,-2.7726,-2.796,-2.7656,-2.719,-2.719,-2.7006,-2.6782,-2.6892,-2.6975,-2.7109,-2.7168,-2.7187,-2.7285,-2.7708,-2.7806,-2.7851,-2.8223,-2.8301,-2.7709,-2.5718,0.0,0.0,0.0,0.0,0.0,0.0,0.0,0.0,0.0,0.0,0.0,-1.8798,-1.8143,-1.7836,-1.8089,-1.8022,-1.7796,-1.734,-1.8277,-1.8637,-1.8062,-1.9132,-1.9479,-1.9038,-1.9506,-1.9506,-1.9038,-1.9265,-1.943,-1.943,-1.943,-1.943,-1.943,-1.943,-1.9444,-1.9426,-1.9426,-1.9599,-1.988,-2.0174,-2.0294,-2.0321,-2.0628,-2.0735,-2.0775,-2.9098,-2.7751,-2.6651,-2.6106,-2.5372,-2.495,-2.5165,-2.5474,-2.6218,-2.7867,-2.7442,-2.753,-2.901,-2.8983,-2.9317,-3.0528,-3.0039,-3.0162,-3.1404,0.0,0.0,-3.0898,-3.0898,-3.0859,-3.0762,-2.9164,-2.7546,0.0,0.0,0.0,0.0,0.0,0.0,0.0,0.0,0.0,-2.0368,-2.3737,0.0,-2.411,-2.6011,-2.655,-2.6308,-2.6308,-2.5855,-2.5333,-2.6558,-2.6788,-2.6662,-2.7906,-2.6662,-2.482,-2.61,-2.5555,-2.4514,-2.4514,-2.5056,-2.5733,-2.6134,-2.693,-2.7637,-2.7988,-2.8066,-2.8086,-2.8164,-2.8184,-2.8203,-2.8281,-2.8301,-2.8091,-2.7375,0.0,0.0,0.0,0.0,0.0,0.0,0.0,0.0,0.0,0.0,-1.7916,0.0,-1.8277,-1.845,-1.8744,-1.8262,-1.7942,-1.7836,-1.8317,-1.8517,-1.8424,-1.8838,-1.9265,-1.9639,-1.9506,-1.9506,-1.9639,-1.9452,-1.943,-1.943,-1.943,-1.943,-1.943,-1.943,-1.9506,-1.972,-1.972,-1.9893,-2.0187,-2.0481,-2.0601,-2.0641,-2.0922,-2.1029,-2.1042,-2.6244,-2.5984,0.0,-2.3956,-2.4019,-2.4039,-2.3459,-2.3764,-2.4328,-2.5093,-2.5398,-2.5905,-2.6757,-2.7539,-2.814,-2.8535,-2.8282,-2.8228,-2.8612,-2.8475,-2.8742,-2.9589,-2.9589,-3.002,-3.0898,-2.913,-2.7393,-2.578,0.0,0.0,0.0,0.0,0.0,0.0,0.0,-2.0344,0.0,0.0,-2.3638,-2.3278,-2.523,-2.5497,-2.4778,-2.4778,-2.4403,-2.3932,-2.4525,-2.4392,-2.4294,-2.6445,-2.5663,-2.3933,-2.4654,-2.4378,-2.3822,-2.3822,-2.4204,-2.4651,-2.4824,-2.5107,-2.5666,-2.684,-2.6999,-2.7066,-2.8062,-2.8301,-2.8301,-2.8301,-2.8301,-2.7718,-2.5826,-2.3221,0.0,0.0,0.0,0.0,0.0,0.0,0.0,0.0,0.0,0.0,0.0,0.0,-1.8357,-1.8023,-1.8036,-1.7796,-1.7329,-1.8223,-1.8571,-1.8263,-1.8838,-1.9292,-1.9573,-1.9586,-1.9586,-1.9573,-1.9439,-1.943,-1.943,-1.943,-1.943,-1.943,-1.943,-1.9533,-1.9826,-2.0134,-2.0334,-2.0494,-2.0788,-2.0895,-2.0922,-2.1056,-2.1109,-2.1109,-2.3884,-2.4409,-2.4347,-2.2011,-2.2925,-2.3628,-2.2579,-2.2672,-2.2779,-2.2539,-2.3761,-2.4613,-2.4613,-2.5962,-2.6807,-2.6567,-2.6453,-2.6238,-2.6017,-2.5984,-2.6591,-2.7811,-2.7871,-2.8486,-2.9844,-2.8373,-2.6866,0.0,0.0,0.0,0.0,0.0,0.0,0.0,0.0,0.0,0.0,-2.2149,-2.2898,-2.2745,-2.4698,-2.4532,-2.3076,-2.3076,-2.2824,-2.2442,-2.2556,-2.2186,-2.2007,-2.439,-2.4167,-2.2942,-2.3207,-2.3095,-2.2886,-2.2886,-2.3095,-2.3319,-2.3319,-2.3347,-2.3695,-2.5246,-2.5305,-2.5433,-2.6985,-2.7349,-2.7349,-2.7349,-2.7349,-2.6425,-2.3469,-2.1651,0.0,0.0,0.0,0.0,0.0,0.0,0.0,0.0,0.0,0.0,-1.8183,-1.8317,-1.805,-1.7259,-1.7702,-1.7716,-1.7114,-1.8076,-1.849,-1.8102,-1.8878,-1.9332,-1.9452,-1.9626,-1.9626,-1.9452,-1.9457,-1.943,-1.943,-1.943,-1.9457,-1.9466,-1.9466,-1.9666,-2.0027,-2.0548,-2.0775,-2.0788,-2.1015,-2.1109,-2.1109,-2.1109,-2.1109,-2.1109,-2.3636,-2.2757,-2.1896,-2.1679,-2.2136,-2.2512,-2.2418,-2.2672,-2.2914,-2.2887,-2.3024,-2.3092,-2.3092,-2.2767,-2.3135,-2.4545,-2.4182,-2.4548,-2.5924,-2.5984,-2.6045,-2.6227,-2.6227,-2.6288,-2.647,-2.6254,-2.5242,0.0,0.0,-2.1927,0.0,0.0,0.0,0.0,0.0,-1.98,-1.9959,-2.2149,-2.2241,-2.1067,-2.3007,-2.2827,-2.1362,-2.1362,-2.1173,-2.1101,-2.2381,-2.1815,-2.0556,-2.1905,-2.122,-2.004,-2.1373,-2.0873,-1.9809,-1.9809,-2.0759,-2.1813,-2.1813,-2.2742,-2.3789,-2.3989,-2.3972,-2.4011,-2.4211,-2.4211,-2.4211,-2.4211,-2.4211,-2.3651,-2.1763,-2.1229,-2.046,0.0,0.0,0.0,0.0,0.0,-1.8196,-1.7649,0.0,0.0,-1.7407,-1.7769,-1.7822,-1.7246,-1.7702,-1.8075,-1.8317,-1.7929,-1.7929,-1.8437,-1.8784,-1.9225,-1.976,-1.9533,-1.9533,-1.976,-1.9492,-1.943,-1.943,-1.943,-1.9506,-1.976,-1.976,-2.008,-2.0615,-2.0935,-2.1069,-2.1069,-2.1096,-2.1109,-2.1109,-2.1109,-2.1109,-2.1109,-2.2608,-2.2244,-2.1817,-2.1817,-2.2004,-2.2218,-2.2392,-2.2365,-2.2392,-2.2579,-2.2592,-2.2525,-2.2352,-2.2124,-2.2173,-2.2697,-2.251,-2.2602,-2.3014,-2.3062,-2.3497,-2.4532,-2.4532,-2.5024,-2.5984,-2.5984,-2.5128,0.0,0.0,0.0,0.0,0.0,0.0,-1.9907,-2.0187,-2.0321,-2.0408,-2.1493,-2.1548,-2.1011,-2.1797,-2.1727,-2.1109,-2.1109,-2.0922,-2.0779,-2.1127,-2.0698,-1.998,-2.0316,-2.0086,-1.9703,-2.0153,-1.9866,-1.943,-1.943,-1.9809,-2.0256,-2.0256,-2.0702,-2.1373,-2.2266,-2.2476,-2.2702,-2.3599,-2.3822,-2.3822,-2.3822,-2.3095,-2.2276,-2.1575,-2.0671,-1.9861,-1.9139,0.0,0.0,0.0,0.0,0.0,-1.7889,0.0,0.0,0.0,-1.7475,-1.7635,-1.7983,-1.8183,-1.829,-1.8169,-1.8156,-1.8317,-1.8731,-1.8691,-1.8945,-1.9533,-1.9426,-1.9426,-1.9546,-1.9426,-1.943,-1.943,-1.943,-1.9533,-1.9813,-2.0174,-2.0468,-2.0695,-2.0989,-2.1109,-2.1109,-2.1109,-2.1109,-2.1109,-2.1109,-2.1109,-2.1109,-2.1683,-2.179,-2.1857,-2.1857,-2.1924,-2.2084,-2.2378,-2.2245,-2.2151,-2.2271,-2.2298,-2.2218,-2.2004,-2.1911,-2.1842,-2.1641,-2.1534,-2.1336,-2.1122,-2.1109,-2.1601,-2.2841,-2.2827,0.0,-2.4517,-2.4578,-2.3977,-2.2827,-2.261,0.0,0.0,-2.0374,-2.0167,-2.018,-2.0548,-2.0681,-2.0695,-2.0989,-2.1109,-2.1109,-2.1109,-2.1109,-2.1109,-2.1109,-2.0989,-2.0775,-2.0561,-2.0361,-2.0147,-1.9853,-1.9893,-1.9973,-1.9506,-1.943,-1.943,-1.943,-1.943,-1.943,-1.943,-1.943,-1.9649,-2.0702,-2.0973,-2.1202,-2.2266,-2.2492,-2.2492,-2.2492,-2.1699,-2.0973,-2.0973,-2.0097,-1.943,-1.943,0.0,0.0,0.0,-1.8515,0.0,0.0,-1.7488,-1.7194,-1.7487,-1.7393,-1.7594,-1.817,-1.8384,-1.8397,-1.8129,-1.821,-1.8397,-1.8784,-1.8677,-1.8865,-1.9359,-1.943,-1.943,-1.943,-1.9452,-1.9511,-1.943,-1.9546,-1.9773,-2.008,-2.0588,-2.0802,-2.0815,-2.1029,-2.1109,-2.1109,-2.1109,-2.1109,-2.1109,-2.1109,-2.1109,-2.1109,-2.1122,-2.1363,-2.1614,-2.1614,-2.179,-2.2084,-2.2378,-2.2418,-2.2311,-2.2031,-2.1991,-2.1991,-2.1991,-2.1724,-2.1614,-2.1614,-2.1283,-2.1109,-2.1109,-2.1109,-2.1109,0.0,-2.1109,-2.1172,-2.1172,-2.1172,-2.1172,-2.1109,0.0,0.0,-2.0668,-2.0374,-2.0167,-2.018,-2.0548,-2.0681,-2.0695,-2.0989,-2.1109,-2.1109,-2.1109,-2.1109,-2.1109,-2.1109,-2.1109,-2.1096,-2.1096,-2.1096,-2.1042,-2.0762,-2.0668,-2.0508,-1.9698,-1.943,-1.943,-1.943,-1.943,-1.943,-1.943,-1.943,-1.943,-1.943,-1.943,-1.9417,-1.943,-1.9417,-1.9417,-1.9417,-1.943,-1.943,-1.943,-1.9417,-1.943,-1.943,0.0,0.0,0.0,-1.8918,0.0,-1.8062,-1.7982,-1.7796,-1.7259,-1.746,-1.7582,-1.7595,-1.8143,-1.849,-1.849,-1.7916,-1.7876,-1.8477,-1.8771,-1.9065,-1.9417,-1.943,-1.943,-1.943,-1.9653,-1.9639,-1.9444,-1.996,-2.0388,-2.0681,-2.0975,-2.1109,-2.1109,-2.1109,-2.1109,-2.1109,-2.1109,-2.1109,-2.1109,-2.1109,-2.1109,-2.1109,-2.167,-2.1777,-2.179,-2.1655,-2.1695,-2.179,-2.2084,-2.1777,-2.1643,-2.1951,-2.163,-2.139,-2.139,-2.1309,-2.1256,-2.1256,-2.1162,-2.1109,-2.1109,-2.1109,-2.1109,-2.1109,-2.1109,-2.1109,-2.1109,-2.1109,-2.1109,-2.1109,-2.1109,-2.1069,-2.0962,-2.0882,-2.0828,-2.0842,-2.0922,-2.0975,-2.0975,-2.1069,-2.1109,-2.1109,-2.1109,-2.1109,-2.1109,-2.1109,-2.0989,-2.0815,-2.0815,-2.0681,-2.0494,-2.0401,-2.0241,-2.0067,-1.9987,-1.9826,-1.9626,-1.9426,-1.943,-1.943,-1.943,-1.943,-1.943,-1.943,-1.943,-1.943,-1.943,-1.9212,-1.9118,-1.9332,-1.9199,-1.9132,-1.939,-1.943,-1.943,-1.943,-1.943,0.0,-1.9239,0.0,-1.8557,-1.837,-1.7983,-1.7582,-1.7233,-1.746,-1.7675,-1.7876,-1.8022,-1.8277,-1.8477,-1.849,-1.8584,-1.8784,-1.8878,-1.9065,-1.9417,-1.943,-1.9466,-1.9666,-1.976,-1.9853,-1.9973,-2.0361,-2.0588,-2.0695,-2.0989,-2.1109,-2.1109,-2.1109,-2.1109,-2.1109,-2.1109,-2.1109,-2.1109,-2.1109,-2.1109,-2.1109,-2.1617,-2.1657,-2.1603,-2.1416,-2.139,-2.1483,-2.1777,-2.151,-2.1403,-2.1777,-2.1496,-2.1229,-2.1122,-2.1109,-2.1109,-2.1109,-2.1109,-2.1109,-2.1109,-2.1109,-2.1109,-2.1109,-2.1109,-2.1109,-2.1109,-2.1109,-2.1109,-2.1109,-2.1109,-2.1109,-2.1109,-2.1109,-2.1109,-2.1109,-2.1109,-2.1109,-2.1109,-2.1109,-2.1109,-2.1109,-2.1109,-2.1109,-2.1109,-2.1109,-2.1002,-2.0842,-2.0842,-2.0722,-2.0561,-2.0561,-2.0441,-2.0307,-2.0374,-2.0281,-2.0054,-1.9653,-1.9599,-1.9639,-1.9426,-1.9452,-1.9506,-1.9457,-1.943,-1.943,-1.943,-1.9225,-1.9145,-1.939,-1.9225,-1.9145,-1.9332,-1.943,-1.943,-1.943,-1.943,-1.943,-1.943,0.0,-1.8531,0.0,0.0,-1.7729,-1.7715,-1.7822,-1.7956,-1.7982,-1.8195,-1.8302,-1.833,-1.8597,-1.8811,-1.8918,-1.9025,-1.9185,-1.943,-1.9586,-1.9733,-1.98,-1.9907,-2.0174,-2.0561,-2.0641,-2.0735,-2.0855,-2.1029,-2.1109,-2.1109,-2.1109,-2.1109,-2.1109,-2.1109,-2.1109,-2.1109,-2.1109,-2.1109,-2.1109,-2.1109,-2.1109,-2.1109,-2.1109,-2.1109,-2.1203,-2.1574,-2.1601,-2.1601,-2.1614,-2.1601,-2.148,-2.1136,-2.1109,-2.1109,-2.1109,-2.1109,-2.1109,-2.1109,-2.1109,-2.1109,-2.1109,-2.1109,-2.1109,-2.1109,-2.1109,-2.1109,-2.1109,-2.1109,-2.1109,-2.1109,-2.1109,-2.1109,-2.1109,-2.1109,-2.1096,-2.1082,-2.1082,-2.1082,-2.1082,-2.1082,-2.1096,-2.1109,-2.1109,-2.1109,-2.1109,-2.1109,-2.1109,-2.1109,-2.1109,-2.1096,-2.1029,-2.0762,-2.0681,-2.0561,-1.9973,-1.9987,-2.008,-1.9519,-1.9559,-1.9706,-1.9439,-1.943,-1.943,-1.943,-1.9359,-1.9345,-1.9417,-1.9359,-1.9345,-1.9417,-1.943,-1.943,-1.943,-1.943,-1.9417,-1.939,-1.8865,-1.8611,-1.8865,-1.8368,-1.8155,-1.8464,-1.8504,-1.841,-1.8075,-1.8555,-1.8691,-1.8115,-1.8424,-1.8691,-1.8945,-1.9265,-1.9484,-1.9484,-1.996,-2.0107,-1.9867,-2.0147,-2.0575,-2.1096,-2.0828,-2.0855,-2.1109,-2.1109,-2.1109,-2.1109,-2.1109,-2.1109,-2.1109,-2.1109,-2.1109,-2.1109,-2.1109,-2.1109,-2.1109,-2.1109,-2.1109,-2.1109,-2.1109,-2.1109,-2.1203,-2.1574,-2.1363,-2.1296,-2.1588,-2.1363,-2.1189,-2.1122,-2.1109,-2.1109,-2.1109,-2.1109,-2.1109,-2.1109,-2.1109,-2.1109,-2.1109,-2.1109,-2.1109,-2.1109,-2.1109,-2.1109,-2.1109,-2.1109,-2.1109,-2.1109,-2.1109,-2.1109,-2.1109,-2.1109,-2.0989,-2.0775,-2.0775,-2.0775,-2.0775,-2.0775,-2.0909,-2.1109,-2.1109,-2.1109,-2.1109,-2.1109,-2.1109,-2.1109,-2.1109,-2.0962,-2.0762,-2.0695,-2.0681,-2.0561,-1.9973,-1.984,-1.9826,-1.9466,-1.947,-1.9452,-1.9444,-1.943,-1.943,-1.943,-1.9185,-1.9092,-1.9377,-1.9185,-1.9092,-1.9332,-1.943,-1.943,-1.943,-1.943,-1.9292,-1.9065,-1.8905,-1.8771,0.0,-1.8664,-1.8664,-1.8504,-1.8691,-1.8798,0.0,0.0,-1.8958,-1.9052,-1.9332,-1.9426,-1.9265,-1.976,-2.0027,-2.0027,-2.016,-2.0307,-2.0468,-2.0762,-2.0975,-2.1109,-2.1042,-2.1042,-2.1109,-2.1109,-2.1109,-2.1109,-2.1109,-2.1109,-2.1109,-2.1109,-2.1109,-2.1109,-2.1109,-2.1109,-2.1109,-2.1109,-2.1109,-2.1109,-2.1109,-2.1109,-2.1162,-2.1323,-2.1216,-2.1162,-2.1323,-2.1203,-2.1109,-2.1109,-2.1109,-2.1109,-2.1109,-2.1109,-2.1109,-2.1109,-2.1109,-2.1109,-2.1109,-2.1109,-2.1109,-2.1109,-2.1109,-2.1109,-2.1109,-2.1109,-2.1109,-2.1109,-2.1109,-2.1109,-2.1109,-2.1109,-2.1029,-2.0869,-2.0735,-2.0681,-2.0681,-2.0681,-2.0775,-2.0922,-2.1056,-2.1109,-2.1109,-2.1109,-2.1109,-2.1109,-2.1109,-2.1002,-2.0869,-2.0869,-2.0869,-2.0762,-2.0174,-2.0094,-2.0107,-1.9679,-1.9559,-1.9533,-1.9457,-1.943,-1.943,-1.943,-1.9239,-1.9172,-1.9332,-1.9239,-1.9172,-1.939,-1.943,-1.943,-1.943,-1.9252,-1.9158,-1.9132,-1.8891,-1.8771,-1.8878,-1.8905,-1.8918,-1.8891,-1.9038,-1.9078,-1.8931,-1.9052,-1.9199,-1.9417,-1.9773,-1.9867,-1.9573,-2.0134,-2.0374,-2.0167,-2.0361,-2.0588,-2.0869,-2.1029,-2.1109,-2.1109,-2.1109,-2.1109,-2.1109,-2.1109,-2.1109,-2.1109,-2.1109,-2.1109,-2.1109,-2.1109,-2.1109,-2.1109,-2.1109,-2.1109,-2.1109,-2.1109,-2.1109,-2.1109,-2.1109,-2.1109,-2.1109,-2.1109,-2.1109,-2.1109,-2.1109,-2.1109,-2.1109,-2.1109,-2.1109,-2.1109,-2.1109,-2.1109,-2.1109,-2.1109,-2.1109,-2.1109,-2.1109,-2.1109,-2.1109,-2.1109,-2.1109,-2.1109,-2.1109,-2.1109,-2.1109,-2.1109,-2.1109,-2.1109,-2.1109,-2.1109,-2.1082,-2.1029,-2.0775,-2.0681,-2.0681,-2.0681,-2.0695,-2.0775,-2.1015,-2.1082,-2.1042,-2.1096,-2.1082,-2.1042,-2.1042,-2.1069,-2.1096,-2.1002,-2.1042,-2.0989,-2.0401,-2.0414,-2.0481,-1.9893,-1.9733,-1.9679,-1.9484,-1.943,-1.943,-1.943,-1.943,-1.943,-1.943,-1.943,-1.943,-1.943,-1.943,-1.943,-1.943,-1.9158,-1.9065,-1.9265,0.0,-1.8784,-1.9252,-1.9118,-1.9092,-1.9345,-1.947,-1.9332,-1.9078,-1.9332,-1.9492,-1.9492,-2.0,-2.0187,-1.9933,-2.0454,-2.0615,-2.0374,-2.0615,-2.0869,-2.1109,-2.1109,-2.1109,-2.1109,-2.1109,-2.1109,-2.1109,-2.1109,-2.1109,-2.1109,-2.1109,-2.1109,-2.1109,-2.1109,-2.1109,-2.1109,-2.1109,-2.1109,-2.1109,-2.1109,-2.1109,-2.1109,-2.1109,-2.1109,-2.1109,-2.1109,-2.1109,-2.1109,-2.1109,-2.1109,-2.1109,-2.1109,-2.1109,-2.1109,-2.1109,-2.1109,-2.1109,-2.1109,-2.1109,-2.1109,-2.1109,-2.1109,-2.1109,-2.1109,-2.1109,-2.1109,-2.1109,-2.1109,-2.1109,-2.1109,-2.1109,-2.1109,-2.1109,-2.1109,-2.0975,-2.0735,-2.0695,-2.0681,-2.0681,-2.0681,-2.0828,-2.1042,-2.1096,-2.0962,-2.0775,-2.1029,-2.0949,-2.0748,-2.0748,-2.0909,-2.1015,-2.0521,-2.0708,-2.0989,-2.0401,-2.0267,-2.0174,-1.9586,-1.9439,-1.9426,-1.943,-1.943,-1.943,-1.943,-1.943,-1.943,-1.943,-1.943,-1.943,-1.943,-1.943,-1.943,-1.943,-1.939,-1.9225,-1.9025,0.0,-1.9172,-1.9011,-1.9172,-1.9319,-1.9359,-1.9586,-1.972,-1.9666,-1.9933,-2.0094,-2.0094,-2.0428,-2.0588,-2.0548,-2.0869,-2.1015,-2.0975,-2.1015,-2.1069,-2.1109,-2.1109,-2.1109,-2.1109,-2.1109,-2.1109,-2.1109,-2.1109,-2.1109,-2.1109,-2.1109,-2.1109,-2.1109,-2.1109,-2.1109,-2.1109,-2.1109,-2.1109,-2.1109,-2.1082,-2.1109,-2.1109,-2.1109,-2.1109,-2.1109,-2.1109,-2.1109,-2.1109,-2.1109,-2.1109,-2.1109,-2.1109,-2.1109,-2.1109,-2.1109,-2.1109,-2.1109,-2.1109,-2.1109,-2.1109,-2.1109,-2.1109,-2.1109,-2.1109,-2.0962,-2.0949,-2.1109,-2.1109,-2.1109,-2.1109,-2.1109,-2.1109,-2.1109,-2.1109,-2.1029,-2.0882,-2.0575,-2.0441,-2.0441,-2.0441,-2.0428,-2.0441,-2.0748,-2.0788,-2.0695,-2.0828,-2.0895,-2.0909,-2.0909,-2.0895,-2.0855,-2.0735,-2.0788,-2.0828,-2.0548,-2.0241,-1.9907,-1.9479,-1.943,-1.943,-1.943,-1.943,-1.943,-1.943,-1.943,-1.943,-1.943,-1.943,-1.943,-1.943,-1.943,-1.947,-1.9573,-1.9332,-1.9199,-1.9372,-1.9239,-1.9132,-1.9158,-1.9279,-1.9484,-1.9586,-1.972,-1.9867,-2.0013,-2.016,-2.0307,-2.0468,-2.0601,-2.0748,-2.0909,-2.1042,-2.1109,-2.1109,-2.1109,-2.1109,-2.1109,-2.1109,-2.1109,-2.1109,-2.1109,-2.1109,-2.1109,-2.1109,-2.1109,-2.1109,-2.1109,-2.1109,-2.1109,-2.1109,-2.1109,-2.1109,-2.1109,-2.1109,-2.1109,-2.0962,-2.1002,-2.1002,-2.1002,-2.0949,-2.0909,-2.0909,-2.0962,-2.1002,-2.1002,-2.1069,-2.1109,-2.1109,-2.1109,-2.1109,-2.1109,-2.1109,-2.1109,-2.1109,-2.1109,-2.1109,-2.1109,-2.1042,-2.1002,-2.1002,-2.0722,-2.0681,-2.0909,-2.0975,-2.1002,-2.1015,-2.1082,-2.1069,-2.1015,-2.1082,-2.1029,-2.0882,-2.0494,-2.0294,-2.0167,-2.0167,-2.0094,-1.9947,-2.0401,-2.0535,-2.0494,-2.0628,-2.0775,-2.0922,-2.0989,-2.0909,-2.0802,-2.0962,-2.0909,-2.0762,-2.0695,-2.0307,-1.984,-1.9546,-1.947,-1.943,-1.943,-1.943,-1.943,-1.943,-1.947,-1.9466,-1.9466,-1.9519,-1.9573,-1.9573,-1.9573,-1.9626,-1.9773,0.0,-1.9265,-1.9639,-1.9305,-1.9118,-1.9345,-1.9484,-1.9559,-1.9773,-1.992,-2.0094,-2.0321,-2.0401,-2.0535,-2.0762,-2.0775,-2.0882,-2.1096,-2.1109,-2.1109,-2.1109,-2.1109,-2.1109,-2.1109,-2.1109,-2.1109,-2.1109,-2.1109,-2.1109,-2.1109,-2.1109,-2.1109,-2.1109,-2.1109,-2.1109,-2.1109,-2.1109,-2.1109,-2.1109,-2.1109,-2.1109,-2.1109,-2.0708,-2.0708,-2.0708,-2.0708,-2.0481,-2.0294,-2.0294,-2.0535,-2.0708,-2.0708,-2.0949,-2.1109,-2.1109,-2.1109,-2.1109,-2.1109,-2.1109,-2.1109,-2.1109,-2.1109,-2.1109,-2.1109,-2.0855,-2.0708,-2.0708,-2.0414,-2.0281,-2.0294,-2.0575,-2.0708,-2.0708,-2.0989,-2.0962,-2.0722,-2.0989,-2.0802,-2.0247,-2.0548,-2.0481,-2.0167,-2.0167,-2.0214,-2.0201,-2.0254,-2.0094,-1.9933,-2.0481,-2.0508,-2.0334,-2.0615,-2.0869,-2.1029,-2.0788,-2.0882,-2.1029,-2.0762,-2.0454,-2.0134,-1.984,-1.9573,-1.943,-1.943,-1.943,-1.943,-1.943,-1.9573,-1.9773,-1.9773,-1.9987,-2.0174,-2.0174,-2.0174,-2.0094,-1.984,0.0,0.0,-1.9439,-1.9359,-1.9345,-1.9417,-1.9599,-1.9773,-1.98,-2.0294,-2.0615,-2.0641,-2.0895,-2.1056,-2.1082,-2.1082,-2.1082,-2.1109,-2.1109,-2.1109,-2.1109,-2.1109,-2.1109,-2.1109,-2.1109,-2.1109,-2.1109,-2.1109,-2.1109,-2.1109,-2.1109,-2.1109,-2.1109,-2.1109,-2.1109,-2.1109,-2.1109,-2.1109,-2.1109,-2.1109,-2.1109,-2.1109,-2.0641,-2.0681,-2.0681,-2.0681,-2.0428,-2.0167,-2.0167,-2.0334,-2.0468,-2.0655,-2.0775,-2.0909,-2.1096,-2.1109,-2.1109,-2.1109,-2.1109,-2.1109,-2.1109,-2.1109,-2.1029,-2.0855,-2.0388,-2.0214,-2.0401,-2.012,-2.0054,-2.0167,-2.0347,-2.0401,-2.0401,-2.0508,-2.0508,-2.0401,-2.0521,-2.0441,-2.0227,-2.016,-2.0067,-1.996,-1.996,-1.9853,-1.972,-1.9893,-1.9893,-1.9826,-2.0054,-2.0294,-2.0521,-2.0641,-2.0748,-2.0855,-2.0922,-2.0895,-2.0855,-2.0922,-2.0735,-2.0481,-2.0374,-2.0134,-1.9907,-1.9907,-1.9773,-1.9679,-1.9867,-1.9853,-1.9853,-2.0027,-2.016,-2.0167,-2.0167,-2.0167,-2.0201,-2.008,0.0,-1.976,-1.9653,-1.9479,-1.9439,-1.9613,-1.9733,-1.9947,-2.0307,-2.0548,-2.0748,-2.0935,-2.1042,-2.1109,-2.1109,-2.1109,-2.1109,-2.1109,-2.1109,-2.1109,-2.1109,-2.1109,-2.1109,-2.1109,-2.1109,-2.1109,-2.1109,-2.1109,-2.1109,-2.1109,-2.1109,-2.1109,-2.1109,-2.1109,-2.1109,-2.1109,-2.1109,-2.1109,-2.1109,-2.1109,-2.1109,-2.1109,-2.0361,-2.0401,-2.0401,-2.0401,-2.016,-1.996,-1.996,-2.004,-2.0174,-2.0374,-2.0481,-2.0655,-2.0949,-2.0975,-2.1002,-2.1096,-2.1109,-2.1109,-2.1109,-2.0935,-2.0788,-2.0681,-2.0201,-1.9987,-2.0094,-1.9907,-1.9853,-1.996,-2.0054,-2.0094,-2.0094,-2.0187,-2.0187,-2.0094,-2.0127,-2.0134,-1.996,-1.984,-1.9746,-1.9666,-1.9666,-1.9546,-1.9444,-1.9586,-1.9666,-1.9679,-1.9773,-2.0054,-2.0428,-2.0615,-2.0681,-2.0722,-2.1015,-2.0975,-2.0855,-2.1056,-2.0962,-2.0815,-2.0815,-2.0601,-2.0347,-2.0254,-2.0013,-1.9853,-2.0054,-2.0013,-1.9987,-2.0127,-2.0374,-2.0508,-2.0508,-2.0428,-2.0374,-2.0374,-2.0054,-1.9826,-1.992,-1.9679,-1.9613,-1.9907,-2.0013,-2.0241,-2.0641,-2.0762,-2.0895,-2.1096,-2.1109,-2.1109,-2.1109,-2.1109,-2.1109,-2.1109,-2.1109,-2.1109,-2.1109,-2.1109,-2.1109,-2.1109,-2.1109,-2.1109,-2.1109,-2.1109,-2.1109,-2.1109,-2.1109,-2.1109,-2.1109,-2.1109,-2.1109,-2.1109,-2.1109,-2.1109,-2.1109,-2.1109,-2.1109,-2.1109,-1.98,-1.98,-1.98,-1.98,-1.9559,-1.943,-1.943,-1.9613,-1.98,-1.98,-2.0054,-2.0347,-2.0641,-2.0681,-2.0788,-2.1082,-2.1109,-2.1109,-2.1096,-2.0548,-2.0361,-2.0655,-2.0388,-2.0094,-1.98,-1.98,-1.9653,-1.943,-1.9653,-1.98,-1.98,-2.0094,-2.0067,-1.9813,-2.0094,-1.9907,-1.9444,-1.9679,-1.9626,-1.943,-1.943,-1.943,-1.943,-1.943,-1.943,-1.9399,-1.9693,-1.98,-1.9893,-2.0481,-2.0668,-2.0722,-2.1015,-2.1109,-2.1109,-2.1109,-2.1109,-2.1109,-2.1109,-2.0895,-2.0615,-2.0307,-2.0013,-1.98,-1.9813,-2.0027,-2.018,-2.0241,-2.0708,-2.1109,-2.1109,-2.0869,-2.0681,-2.0681,-2.0187,-1.9907,-2.0127,-1.9987,-1.9907,-2.0201,-2.0494,-2.0681,-2.0681,-2.0935,-2.1109,-2.1109,-2.1109,-2.1109,-2.1109,-2.1109,-2.1109,-2.1109,-2.1109,-2.1109,-2.1109,-2.1109,-2.1109,-2.1109,-2.1109,-2.1109,-2.1109,-2.1109,-2.1109,-2.1109,-2.1109,-2.1109,-2.1109,-2.1109,-2.1109,-2.1109,-2.1109,-2.1109,-2.1109,-2.1109,-2.1109,-2.1109,-1.98,-1.98,-1.98,-1.98,-1.9559,-1.943,-1.943,-1.9497,-1.9573,-1.9773,-1.988,-2.004,-2.0334,-2.0548,-2.0708,-2.0802,-2.0802,-2.0722,-2.0508,-2.0134,-1.9973,-2.0054,-1.9973,-1.9786,-1.9506,-1.9693,-1.9653,-1.943,-1.9452,-1.9492,-1.9492,-1.9586,-1.9586,-1.9506,-1.9586,-1.9533,-1.943,-1.9466,-1.9452,-1.943,-1.943,-1.943,-1.943,-1.943,-1.943,-1.943,-1.9466,-1.976,-2.0094,-2.0067,-2.0334,-2.0695,-2.0775,-2.0802,-2.0842,-2.1042,-2.1109,-2.1109,-2.1109,-2.1042,-2.0962,-2.0869,-2.0468,-2.0214,-2.0628,-2.0628,-2.0601,-2.0802,-2.0989,-2.1109,-2.1109,-2.1042,-2.0909,-2.0708,-2.0535,-2.0374,-2.0193,-2.016,-2.0214,-2.0508,-2.0615,-2.0762,-2.0962,-2.1056,-2.1109,-2.1109,-2.1109,-2.1109,-2.1109,-2.1109,-2.1109,-2.1109,-2.1109,-2.1109,-2.1109,-2.1109,-2.1109,-2.1109,-2.1109,-2.1109,-2.1109,-2.1109,-2.1109,-2.1109,-2.1109,-2.1109,-2.1109,-2.1109,-2.1109,-2.1109,-2.1109,-2.1109,-2.1109,-2.1109,-2.1109,-2.1109,-1.9626,-1.9626,-1.9626,-1.9626,-1.9479,-1.943,-1.943,-1.943,-1.9484,-1.9599,-1.9626,-1.9733,-2.0027,-2.0321,-2.0548,-2.0668,-2.0681,-2.0548,-2.0193,-2.0067,-1.9973,-1.9973,-1.9973,-1.9786,-1.943,-1.9653,-1.9653,-1.943,-1.943,-1.943,-1.943,-1.943,-1.943,-1.943,-1.943,-1.943,-1.943,-1.943,-1.943,-1.943,-1.943,-1.943,-1.943,-1.943,-1.943,-1.943,-1.943,-1.9599,-1.988,-1.9826,-2.0187,-2.0695,-2.0815,-2.0842,-2.0882,-2.1056,-2.1109,-2.1109,-2.1109,-2.1029,-2.0962,-2.1082,-2.0762,-2.0494,-2.0855,-2.0802,-2.0722,-2.0909,-2.1029,-2.1109,-2.1109,-2.1015,-2.0922,-2.0855,-2.0655,-2.0521,-2.0575,-2.0481,-2.0521,-2.0815,-2.0842,-2.0922,-2.1096,-2.1109,-2.1109,-2.1109,-2.1109,-2.1109,-2.1109,-2.1109,-2.1109,-2.1109,-2.1109,-2.1109,-2.1109,-2.1109,-2.1109,-2.1109,-2.1109,-2.1109,-2.1109,-2.1109,-2.1109,-2.1109,-2.1109,-2.1109,-2.1109,-2.1109,-2.1109,-2.1109,-2.1109,-2.1109,-2.1109,-2.1109,-2.1109,-2.1109,-1.943,-1.943,-1.943,-1.943,-1.943,-1.943,-1.943,-1.943,-1.943,-1.943,-1.943,-1.9466,-1.9733,-2.0013,-2.0307,-2.0575,-2.0601,-2.0468,-2.0174,-2.016,-2.016,-2.016,-2.016,-1.9907,-1.943,-1.9653,-1.9653,-1.943,-1.943,-1.943,-1.943,-1.943,-1.943,-1.943,-1.943,-1.943,-1.943,-1.943,-1.943,-1.943,-1.943,-1.943,-1.943,-1.943,-1.943,-1.943,-1.9457,-1.947,-1.9511,-1.9746,-2.0174,-2.0655,-2.0975,-2.1069,-2.1082,-2.1096,-2.1109,-2.1109,-2.1109,-2.0922,-2.0775,-2.1042,-2.0909,-2.0722,-2.0722,-2.0722,-2.0722,-2.0722,-2.0922,-2.1109,-2.1109,-2.0895,-2.0802,-2.1069,-2.0655,-2.0494,-2.1029,-2.0882,-2.0815,-2.1082,-2.1109,-2.1109,-2.1109,-2.1109,-2.1109,-2.1109,-2.1109,-2.1109,-2.1109,-2.1109,-2.1109,-2.1109,-2.1109,-2.1109,-2.1109,-2.1109,-2.1109,-2.1109,-2.1109,-2.1109,-2.1109,-2.1109,-2.1109,-2.1109,-2.1109,-2.1109,-2.1109,-2.1109,-2.1109,-2.1109,-2.1109,-2.1109,-2.1109,-2.1109,-2.1109,-2.1109,-1.943,-1.943,-1.943,-1.943,-1.943,-1.943,-1.943,-1.943,-1.943,-1.943,-1.943,-1.9399,-1.9452,-1.972,-1.992,-1.9987,-1.9987,-1.9867,-1.9573,-1.9559,-1.9559,-1.9559,-1.9559,-1.9492,-1.943,-1.9653,-1.9653,-1.943,-1.943,-1.943,-1.943,-1.943,-1.943,-1.943,-1.943,-1.943,-1.943,-1.943,-1.943,-1.943,-1.943,-1.943,-1.943,-1.943,-1.943,-1.9457,-1.9626,-1.9706,-1.9746,-2.004,-2.0067,-2.008,-2.0601,-2.0775,-2.0815,-2.1042,-2.1109,-2.1109,-2.1109,-2.1069,-2.1029,-2.1096,-2.1069,-2.1015,-2.1015,-2.1015,-2.1015,-2.1015,-2.1069,-2.1109,-2.1109,-2.1056,-2.1042,-2.1096,-2.1002,-2.0962,-2.1096,-2.1056,-2.1042,-2.1096,-2.1109,-2.1109,-2.1109,-2.1109,-2.1109,-2.1109,-2.1109,-2.1109,-2.1109,-2.1109,-2.1109,-2.1109,-2.1109,-2.1109,-2.1109,-2.1109,-2.1109,-2.1109,-2.1109,-2.1109,-2.1109,-2.1109,-2.1109,-2.1109,-2.1109,-2.1109,-2.1109,-2.1109,-2.1109,-2.1109,-2.1109,-2.1109,-2.1109,-2.1109,-2.1109,-2.1109,-2.0314,-1.9866,-1.9822,-2.1274,-2.0314,-1.9649,-2.0314,-1.9866,-1.943,-1.943,-1.943,-1.943,-1.943,-1.9626,-1.98,-1.98,-1.98,-1.9733,-1.9586,-1.9573,-1.9639,-1.9773,-1.9653,-1.9573,-1.9573,-1.9586,-1.9519,-1.943,-1.943,-1.943,-1.943,-1.943,-1.943,-1.943,-1.943,-1.943,-1.943,-1.943,-1.943,-1.943,-1.943,-1.943,-1.943,-1.943,-1.943,-1.947,-1.9693,-1.98,-1.9867,-2.0294,-2.0254,-2.0107,-2.0695,-2.0882,-2.0909,-2.1069,-2.1109,-2.1109,-2.1109,-2.1109,-2.1109,-2.1109,-2.1109,-2.1109,-2.1109,-2.1109,-2.1109,-2.1109,-2.1109,-2.1109,-2.1109,-2.1109,-2.1109,-2.1109,-2.1109,-2.1109,-2.1109,-2.1109,-2.1109,-2.1109,-2.1109,-2.1109,-2.1109,-2.1109,-2.1109,-2.1109,-2.1109,-2.1109,-2.1109,-2.1109,-2.1109,-2.1109,-2.1109,-2.1109,-2.1109,-2.1109,-2.1109,-2.1109,-2.1109,-2.1109,-2.1109,-2.1109,-2.1109,-2.1109,-2.1109,-2.1109,-2.1109,-2.1109,-2.1109,-2.1109,-2.1109,-2.1109,-2.1109,-2.1109,-2.1109,-2.1109,-2.1301,-2.0429,-2.0314,-2.3263,-2.1544,-2.0256,-2.1756,-2.0702,-1.9751,-1.9751,-1.9533,-1.943,-1.943,-1.9586,-1.972,-1.972,-1.972,-1.972,-1.972,-1.972,-1.9826,-2.0067,-1.9853,-1.972,-1.972,-1.9492,-1.943,-1.943,-1.943,-1.943,-1.943,-1.943,-1.943,-1.943,-1.943,-1.943,-1.943,-1.943,-1.943,-1.943,-1.943,-1.943,-1.943,-1.943,-1.943,-1.947,-1.976,-1.988,-1.9947,-2.0441,-2.0441,-2.0334,-2.0869,-2.1069,-2.1109,-2.1109,-2.1109,-2.1109,-2.1109,-2.1109,-2.1109,-2.1109,-2.1109,-2.1109,-2.1109,-2.1109,-2.1109,-2.1109,-2.1109,-2.1109,-2.1109,-2.1109,-2.1109,-2.1109,-2.1109,-2.1109,-2.1109,-2.1109,-2.1109,-2.1109,-2.1109,-2.1109,-2.1109,-2.1109,-2.1109,-2.1109,-2.1109,-2.1109,-2.1109,-2.1109,-2.1109,-2.1109,-2.1109,-2.1109,-2.1109,-2.1109,-2.1109,-2.1109,-2.1109,-2.1109,-2.1109,-2.1109,-2.1109,-2.1109,-2.1109,-2.1109,-2.1109,-2.1109,-2.1109,-2.1109,-2.1109,-2.1109,-2.1109,-2.1109,-2.1109,-2.1109,-2.1301,-2.0429,-2.0314,-2.3263,-2.2435,-2.1813,-2.3263,-2.2251,-2.1301,-2.1301,-2.0199,-1.943,-1.943,-1.9399,-1.9426,-1.9426,-1.9426,-1.9426,-1.9426,-1.9426,-1.9439,-1.9479,-1.9452,-1.9426,-1.9426,-1.9444,-1.943,-1.943,-1.943,-1.943,-1.943,-1.943,-1.943,-1.943,-1.943,-1.943,-1.943,-1.943,-1.943,-1.943,-1.943,-1.943,-1.943,-1.943,-1.943,-1.9497,-1.9987,-2.0174,-2.0187,-2.0267,-2.0267,-2.0233,-2.0628,-2.0909,-2.1109,-2.1109,-2.1109,-2.1109,-2.1109,-2.1109,-2.1109,-2.1109,-2.1109,-2.1109,-2.1109,-2.1109,-2.1109,-2.1109,-2.1109,-2.1109,-2.1109,-2.1109,-2.1109,-2.1109,-2.1109,-2.1109,-2.1109,-2.1109,-2.1109,-2.1109,-2.1109,-2.1109,-2.1109,-2.1109,-2.1109,-2.1109,-2.1109,-2.1109,-2.1109,-2.1109,-2.1109,-2.1109,-2.1109,-2.1109,-2.1109,-2.1109,-2.1109,-2.1109,-2.1109,-2.1109,-2.1109,-2.1109,-2.1109,-2.1109,-2.1109,-2.1109,-2.1109,-2.1109,-2.1109,-2.1109,-2.1109,-2.1109,-2.1109,-2.1109,-2.1109,-2.1109,-2.2533,-2.2322,-2.283,-2.5772,-2.4378,-2.3319,-2.4875,-2.3095,-2.1586,-2.1586,-2.0314,-1.943,-1.943,-1.943,-1.943,-1.943,-1.943,-1.943,-1.943,-1.943,-1.943,-1.943,-1.943,-1.943,-1.943,-1.943,-1.943,-1.943,-1.943,-1.943,-1.943,-1.943,-1.943,-1.943,-1.943,-1.943,-1.943,-1.943,-1.943,-1.943,-1.943,-1.943,-1.943,-1.943,-1.943,-1.9439,-2.0027,-2.0334,-2.0481,-2.0481,-2.0481,-2.0508,-2.0641,-2.0869,-2.1109,-2.1109,-2.1109,-2.1109,-2.1109,-2.1109,-2.1109,-2.1109,-2.1109,-2.1109,-2.1109,-2.1109,-2.1109,-2.1109,-2.1109,-2.1109,-2.1109,-2.1109,-2.1109,-2.1109,-2.1109,-2.1109,-2.1109,-2.1109,-2.1109,-2.1109,-2.1109,-2.1109,-2.1109,-2.1109,-2.1109,-2.1109,-2.1109,-2.1109,-2.1109,-2.1109,-2.1109,-2.1109,-2.1109,-2.1109,-2.1109,-2.1109,-2.1109,-2.1109,-2.1109,-2.1109,-2.1109,-2.1109,-2.1109,-2.1109,-2.1109,-2.1109,-2.1109,-2.1109,-2.1109,-2.1109,-2.1109,-2.1109,-2.1109,-2.1109,-2.1109,-2.1109]},{"header":{"parameterUnit":"m.s-1","parameterCategory":1,"la1":30.6,"la2":28.766,"lo1":-90.7593,"lo2":-88.6598,"dy":0.0162,"dx":0.0183,"nx":116,"ny":114,"refTime":"2023-04-01T06:00:00:Z","depth":0,"parameterNumber":3,"parameterNumberName":"V-component_of_WINDS"},"data":[0.0,0.0,0.0,0.0,0.0,0.0,0.0,0.0,0.0,0.0,0.0,0.0,0.0,0.0,0.0,0.0,0.0,0.0,0.0,0.0,0.0,0.0,0.0,0.0,0.0,0.0,0.0,0.0,0.0,0.0,0.0,0.0,0.0,0.0,0.0,0.0,0.0,0.0,0.0,0.0,0.0,0.0,0.0,0.0,0.0,0.0,0.0,0.0,0.0,0.0,0.0,0.0,0.0,0.0,0.0,0.0,0.0,0.0,0.0,0.0,0.0,0.0,0.0,0.0,0.0,0.0,0.0,0.0,0.0,0.0,0.0,0.0,0.0,0.0,0.0,0.0,0.0,0.0,0.0,0.0,0.0,0.0,0.0,0.0,0.0,0.0,0.0,0.0,0.0,0.0,0.0,0.0,0.0,0.0,0.0,0.0,0.0,0.0,0.0,0.0,0.0,0.0,0.0,0.0,0.0,0.0,0.0,0.0,0.0,0.0,0.0,0.0,0.0,0.0,0.0,0.0,0.0,0.0,0.0,0.0,0.0,0.0,0.0,0.0,0.0,0.0,0.0,0.0,0.0,0.0,0.0,0.0,0.0,0.0,0.0,0.0,0.0,0.0,0.0,0.0,0.0,0.0,0.0,0.0,0.0,0.0,0.0,0.0,0.0,0.0,0.0,0.0,0.0,0.0,0.0,0.0,0.0,0.0,0.0,0.0,0.0,0.0,0.0,0.0,0.0,0.0,0.0,0.0,0.0,0.0,0.0,0.0,0.0,0.0,0.0,0.0,0.0,0.0,0.0,0.0,0.0,0.0,0.0,0.0,0.0,0.0,0.0,0.0,0.0,0.0,0.0,0.0,0.0,0.0,0.0,0.0,0.0,0.0,0.0,0.0,0.0,0.0,0.0,0.0,0.0,0.0,0.0,0.0,0.0,0.0,0.0,0.0,0.0,0.0,0.0,0.0,0.0,0.0,0.0,0.0,0.0,0.0,0.0,0.0,0.0,0.0,0.0,0.0,0.0,0.0,0.0,0.0,0.0,0.0,0.0,0.0,0.0,0.0,0.0,0.0,0.0,0.0,0.0,0.0,0.0,0.0,0.0,0.0,0.0,0.0,0.0,0.0,0.0,0.0,0.0,0.0,0.0,0.0,0.0,0.0,0.0,0.0,0.0,0.0,0.0,0.0,0.0,0.0,0.0,0.0,0.0,0.0,0.0,0.0,0.0,0.0,0.0,0.0,0.0,0.0,0.0,0.0,0.0,0.0,0.0,0.0,0.0,0.0,0.0,0.0,0.0,0.0,0.0,0.0,0.0,0.0,0.0,0.0,0.0,0.0,0.0,0.0,0.0,0.0,0.0,0.0,0.0,0.0,0.0,0.0,0.0,0.0,0.0,0.0,0.0,0.0,0.0,0.0,0.0,0.0,0.0,0.0,0.0,0.0,0.0,0.0,0.0,0.0,0.0,0.0,0.0,0.0,0.0,0.0,0.0,0.0,0.0,0.0,0.0,0.0,0.0,0.0,0.0,0.0,0.0,0.0,0.0,0.0,0.0,0.0,0.0,0.0,0.0,0.0,0.0,0.0,0.0,0.0,0.0,0.0,0.0,0.0,0.0,0.0,0.0,0.0,0.0,0.0,0.0,0.0,0.0,0.0,0.0,0.0,0.0,0.0,0.0,0.0,0.0,0.0,0.0,0.0,0.0,0.0,0.0,0.0,0.0,0.0,0.0,0.0,0.0,0.0,0.0,0.0,0.0,0.0,0.0,0.0,0.0,0.0,0.0,0.0,0.0,0.0,0.0,0.0,0.0,0.0,0.0,0.0,0.0,0.0,0.0,0.0,0.0,0.0,0.0,0.0,0.0,0.0,0.0,0.0,0.0,0.0,0.0,0.0,0.0,0.0,0.0,0.0,0.0,0.0,0.0,0.0,0.0,0.0,0.0,0.0,0.0,0.0,0.0,0.0,0.0,0.0,0.0,0.0,0.0,0.0,0.0,0.0,0.0,0.0,0.0,0.0,0.0,0.0,0.0,0.0,0.0,0.0,0.0,0.0,0.0,0.0,0.0,0.0,0.0,0.0,0.0,0.0,0.0,0.0,0.0,0.0,0.0,0.0,0.0,0.0,0.0,0.0,0.0,0.0,0.0,0.0,0.0,0.0,0.0,0.0,0.0,0.0,0.0,0.0,0.0,0.0,0.0,0.0,0.0,0.0,0.0,0.0,0.0,0.0,0.0,0.0,0.0,0.0,0.0,0.0,0.0,0.0,0.0,0.0,0.0,0.0,0.0,0.0,0.0,0.0,0.0,0.0,0.0,0.0,0.0,0.0,0.0,0.0,0.0,0.0,0.0,0.0,0.0,0.0,0.0,0.0,0.0,0.0,0.0,0.0,0.0,0.0,0.0,0.0,0.0,0.0,0.0,0.0,0.0,0.0,0.0,0.0,0.0,0.0,0.0,0.0,0.0,0.0,0.0,0.0,0.0,0.0,0.0,0.0,0.0,0.0,0.0,0.0,0.0,0.0,0.0,0.0,0.0,0.0,0.0,0.0,0.0,0.0,0.0,0.0,0.0,0.0,0.0,0.0,0.0,0.0,0.0,0.0,0.0,0.0,0.0,0.0,0.0,0.0,0.0,0.0,0.0,0.0,0.0,0.0,0.0,0.0,0.0,0.0,0.0,0.0,0.0,0.0,0.0,0.0,0.0,0.0,0.0,0.0,0.0,0.0,0.0,0.0,0.0,0.0,0.0,0.0,0.0,0.0,0.0,0.0,0.0,0.0,0.0,0.0,0.0,0.0,0.0,0.0,0.0,0.0,0.0,0.0,0.0,0.0,0.0,0.0,0.0,0.0,0.0,0.0,0.0,0.0,0.0,0.0,0.0,0.0,0.0,0.0,0.0,0.0,0.0,0.0,0.0,0.0,0.0,0.0,0.0,0.0,0.0,0.0,0.0,0.0,0.0,0.0,0.0,0.0,0.0,0.0,0.0,0.0,0.0,0.0,0.0,0.0,0.0,0.0,0.0,0.0,0.0,0.0,0.0,0.0,0.0,0.0,0.0,0.0,0.0,0.0,0.0,0.0,0.0,0.0,0.0,0.0,0.0,0.0,0.0,0.0,0.0,0.0,0.0,0.0,0.0,0.0,0.0,0.0,0.0,0.0,0.0,0.0,0.0,0.0,0.0,0.0,0.0,0.0,0.0,0.0,0.0,0.0,0.0,0.0,0.0,0.0,0.0,0.0,0.0,0.0,0.0,0.0,0.0,0.0,0.0,0.0,0.0,0.0,0.0,0.0,0.0,0.0,0.0,0.0,0.0,0.0,0.0,0.0,0.0,0.0,0.0,0.0,0.0,0.0,0.0,0.0,0.0,0.0,0.0,0.0,0.0,0.0,0.0,0.0,0.0,0.0,0.0,0.0,0.0,0.0,0.0,0.0,0.0,0.0,0.0,0.0,0.0,0.0,0.0,0.0,0.0,0.0,0.0,0.0,0.0,0.0,0.0,0.0,0.0,0.0,0.0,0.0,0.0,0.0,0.0,0.0,0.0,0.0,0.0,0.0,0.0,0.0,0.0,0.0,0.0,0.0,0.0,0.0,0.0,0.0,0.0,0.0,0.0,0.0,0.0,0.0,0.0,0.0,0.0,0.0,0.0,0.0,0.0,0.0,0.0,0.0,0.0,0.0,0.0,0.0,0.0,0.0,0.0,0.0,0.0,0.0,0.0,0.0,0.0,0.0,0.0,0.0,0.0,0.0,0.0,0.0,0.0,0.0,0.0,0.0,0.0,0.0,0.0,0.0,0.0,0.0,0.0,0.0,0.0,0.0,0.0,0.0,0.0,0.0,0.0,0.0,0.0,0.0,0.0,0.0,0.0,0.0,0.0,0.0,0.0,0.0,0.0,0.0,0.0,0.0,0.0,0.0,0.0,0.0,0.0,0.0,0.0,0.0,0.0,0.0,0.0,0.0,0.0,0.0,0.0,0.0,0.0,0.0,0.0,0.0,0.0,0.0,0.0,0.0,0.0,0.0,0.0,0.0,0.0,0.0,0.0,0.0,0.0,0.0,0.0,0.0,0.0,0.0,0.0,0.0,0.0,0.0,0.0,0.0,0.0,0.0,0.0,0.0,0.0,0.0,0.0,0.0,0.0,0.0,0.0,0.0,0.0,0.0,0.0,0.0,0.0,0.0,0.0,0.0,0.0,0.0,0.0,0.0,0.0,0.0,0.0,0.0,0.0,0.0,0.0,0.0,0.0,0.0,0.0,0.0,0.0,0.0,0.0,0.0,0.0,0.0,0.0,0.0,0.0,0.0,0.0,0.0,0.0,0.0,0.0,0.0,0.0,0.0,0.0,0.0,0.0,0.0,0.0,0.0,0.0,0.0,0.0,0.0,0.0,0.0,0.0,0.0,0.0,0.0,0.0,0.0,0.0,0.0,0.0,0.0,0.0,0.0,0.0,0.0,0.0,0.0,0.0,0.0,0.0,0.0,0.0,0.0,0.0,0.0,0.0,0.0,0.0,0.0,0.0,0.0,0.0,0.0,0.0,0.0,0.0,0.0,0.0,0.0,0.0,0.0,0.0,0.0,0.0,0.0,0.0,0.0,0.0,0.0,0.0,0.0,0.0,0.0,0.0,0.0,0.0,0.0,0.0,0.0,0.0,0.0,0.0,0.0,0.0,0.0,0.0,0.0,0.0,0.0,0.0,0.0,0.0,0.0,0.0,0.0,0.0,0.0,0.0,0.0,0.0,0.0,0.0,0.0,0.0,0.0,0.0,0.0,0.0,0.0,0.0,0.0,0.0,0.0,0.0,0.0,0.0,0.0,0.0,0.0,0.0,0.0,0.0,0.0,0.0,0.0,0.0,0.0,0.0,0.0,0.0,0.0,0.0,0.0,0.0,0.0,0.0,0.0,0.0,0.0,0.0,0.0,0.0,0.0,0.0,0.0,0.0,0.0,0.0,0.0,0.0,0.0,0.0,0.0,0.0,0.0,0.0,0.0,0.0,0.0,0.0,0.0,0.0,0.0,0.0,0.0,0.0,0.0,0.0,0.0,0.0,0.0,0.0,0.0,0.0,0.0,0.0,0.0,0.0,0.0,0.0,0.0,0.0,0.0,0.0,0.0,0.0,0.0,0.0,0.0,0.0,0.0,0.0,0.0,0.0,0.0,0.0,0.0,0.0,0.0,0.0,0.0,0.0,0.0,0.0,0.0,0.0,0.0,0.0,0.0,0.0,0.0,0.0,0.0,0.0,0.0,0.0,0.0,0.0,0.0,0.0,0.0,0.0,0.0,0.0,0.0,0.0,0.0,0.0,0.0,0.0,0.0,0.0,0.0,0.0,0.0,0.0,0.0,0.0,0.0,0.0,0.0,0.0,0.0,0.0,0.0,0.0,0.0,0.0,0.0,0.0,0.0,0.0,0.0,0.0,0.0,0.0,0.0,0.0,0.0,0.0,0.0,0.0,0.0,0.0,0.0,0.0,0.0,0.0,0.0,0.0,0.0,0.0,0.0,0.0,0.0,0.0,0.0,0.0,0.0,0.0,0.0,0.0,0.0,0.0,0.0,0.0,0.0,0.0,0.0,0.0,0.0,0.0,0.0,0.0,0.0,0.0,0.0,0.0,0.0,0.0,0.0,0.0,0.0,0.0,0.0,0.0,0.0,0.0,0.0,0.0,0.0,0.0,0.0,0.0,0.0,0.0,0.0,0.0,0.0,0.0,0.0,0.0,0.0,0.0,0.0,0.0,0.0,0.0,0.0,0.0,0.0,0.0,0.0,0.0,0.0,0.0,0.0,0.0,0.0,0.0,0.0,0.0,0.0,0.0,0.0,0.0,0.0,0.0,0.0,0.0,0.0,0.0,0.0,0.0,0.0,0.0,0.0,0.0,0.0,0.0,0.0,0.0,0.0,0.0,0.0,0.0,0.0,0.0,0.0,0.0,0.0,0.0,0.0,0.0,0.0,0.0,0.0,0.0,0.0,0.0,0.0,0.0,0.0,0.0,0.0,0.0,0.0,0.0,0.0,0.0,0.0,0.0,0.0,0.0,0.0,0.0,0.0,0.0,0.0,0.0,0.0,0.0,0.0,0.0,0.0,0.0,0.0,0.0,0.0,2.9206,2.7945,0.0,0.0,0.0,0.0,0.0,0.0,0.0,0.0,0.0,0.0,0.0,0.0,0.0,0.0,0.0,0.0,0.0,0.0,0.0,0.0,0.0,0.0,0.0,0.0,0.0,0.0,0.0,0.0,0.0,0.0,0.0,0.0,0.0,0.0,0.0,0.0,0.0,0.0,0.0,0.0,0.0,0.0,0.0,0.0,0.0,0.0,0.0,0.0,0.0,0.0,0.0,0.0,0.0,0.0,0.0,0.0,0.0,0.0,0.0,0.0,0.0,0.0,0.0,0.0,0.0,0.0,0.0,0.0,0.0,0.0,0.0,0.0,0.0,0.0,0.0,0.0,0.0,0.0,0.0,0.0,0.0,0.0,0.0,0.0,0.0,0.0,0.0,0.0,0.0,0.0,0.0,0.0,0.0,0.0,0.0,0.0,0.0,0.0,0.0,0.0,0.0,0.0,0.0,0.0,0.0,0.0,0.0,0.0,0.0,0.0,0.0,0.0,0.0,0.0,3.2591,3.102,0.0,0.0,0.0,0.0,0.0,0.0,0.0,0.0,0.0,0.0,0.0,0.0,0.0,0.0,0.0,0.0,0.0,0.0,0.0,0.0,0.0,0.0,0.0,0.0,0.0,0.0,0.0,0.0,0.0,0.0,0.0,0.0,0.0,0.0,0.0,0.0,0.0,0.0,0.0,0.0,0.0,0.0,0.0,0.0,0.0,0.0,0.0,0.0,0.0,0.0,0.0,0.0,0.0,0.0,0.0,0.0,0.0,0.0,0.0,0.0,0.0,0.0,0.0,0.0,0.0,0.0,0.0,0.0,0.0,0.0,0.0,0.0,0.0,0.0,0.0,0.0,0.0,0.0,0.0,0.0,0.0,0.0,0.0,0.0,0.0,0.0,0.0,0.0,0.0,0.0,0.0,0.0,0.0,0.0,0.0,0.0,0.0,0.0,0.0,0.0,0.0,0.0,0.0,0.0,0.0,0.0,0.0,0.0,3.6214,3.7005,3.738,3.7444,3.8075,3.8936,3.6516,3.4879,3.3999,3.3367,0.0,0.0,0.0,0.0,0.0,0.0,0.0,0.0,0.0,0.0,0.0,0.0,0.0,0.0,0.0,0.0,0.0,0.0,0.0,0.0,0.0,0.0,4.9018,4.9018,4.9593,4.9999,0.0,0.0,0.0,0.0,0.0,0.0,0.0,5.1638,5.1266,5.0397,5.1692,5.2549,5.3044,5.2948,5.2739,5.2227,4.6651,0.0,0.0,0.0,0.0,0.0,0.0,0.0,0.0,0.0,0.0,0.0,0.0,0.0,0.0,0.0,0.0,0.0,0.0,0.0,0.0,0.0,0.0,0.0,0.0,0.0,0.0,0.0,0.0,0.0,0.0,0.0,0.0,0.0,0.0,0.0,0.0,0.0,0.0,0.0,0.0,0.0,0.0,0.0,3.7606,3.7729,0.0,0.0,0.0,0.0,0.0,0.0,0.0,0.0,0.0,0.0,0.0,0.0,0.0,3.7081,3.788,3.8808,3.9081,3.8696,4.0283,4.078,4.0454,4.089,4.1228,4.139,4.1498,0.0,3.7717,3.6988,0.0,0.0,0.0,0.0,0.0,0.0,0.0,0.0,0.0,0.0,0.0,0.0,0.0,0.0,0.0,0.0,0.0,0.0,0.0,0.0,0.0,4.912,4.9627,4.9627,5.0676,5.1319,5.1319,0.0,0.0,0.0,0.0,0.0,5.28,5.28,5.2992,5.3357,5.4419,5.5282,5.5821,5.5821,5.5499,5.4828,5.2071,4.9357,4.6834,4.5262,0.0,0.0,0.0,0.0,0.0,0.0,0.0,0.0,0.0,0.0,0.0,0.0,0.0,0.0,0.0,0.0,0.0,0.0,0.0,0.0,0.0,0.0,0.0,0.0,0.0,0.0,0.0,0.0,0.0,0.0,0.0,0.0,0.0,0.0,0.0,0.0,0.0,0.0,0.0,3.7545,3.8919,3.866,3.8837,3.8206,0.0,0.0,0.0,0.0,0.0,0.0,0.0,0.0,0.0,3.9344,3.9142,3.9578,4.0772,4.1387,4.1508,4.1268,4.306,4.3754,4.3454,4.3738,4.424,4.4849,4.439,4.3913,4.3251,4.0534,3.87,3.7504,0.0,0.0,0.0,0.0,3.4798,3.4798,0.0,0.0,0.0,0.0,0.0,0.0,0.0,0.0,0.0,0.0,0.0,0.0,4.8866,4.9996,5.0819,5.1257,5.2461,5.3215,5.3215,0.0,0.0,0.0,0.0,5.4042,5.4042,5.4223,5.5179,5.6881,5.7584,5.8324,5.9073,5.9073,5.8606,5.7804,5.7358,5.464,5.0379,4.8481,4.6783,0.0,0.0,0.0,0.0,0.0,0.0,0.0,0.0,0.0,0.0,0.0,0.0,0.0,0.0,0.0,0.0,0.0,0.0,0.0,0.0,0.0,0.0,0.0,0.0,0.0,0.0,0.0,0.0,0.0,0.0,0.0,0.0,0.0,0.0,0.0,0.0,0.0,0.0,3.9779,4.1108,4.0234,4.1499,4.1292,0.0,0.0,0.0,0.0,0.0,0.0,4.0281,4.0978,4.1807,4.2772,4.2481,4.2941,4.4297,4.44,4.4447,4.4429,4.5611,4.6279,4.6408,4.6014,4.6476,4.7505,4.6358,4.6388,4.703,4.3531,4.1468,4.0376,3.8996,3.7802,3.6855,3.7205,3.712,3.6968,0.0,0.0,0.0,0.0,0.0,0.0,0.0,0.0,0.0,0.0,0.0,4.8695,5.175,5.2139,5.2802,5.4335,5.5193,5.5624,5.5624,5.5603,5.561,5.561,5.561,5.561,5.561,5.6307,5.7765,6.0082,6.0734,6.1801,6.3214,6.3214,6.3174,6.3026,6.1252,5.8246,5.437,5.2236,5.1268,5.1012,0.0,0.0,0.0,0.0,0.0,0.0,0.0,0.0,0.0,0.0,0.0,0.0,0.0,0.0,0.0,0.0,0.0,0.0,0.0,0.0,0.0,0.0,0.0,0.0,0.0,0.0,0.0,0.0,0.0,0.0,0.0,0.0,0.0,0.0,0.0,0.0,0.0,0.0,0.0,4.4265,4.5759,0.0,0.0,0.0,0.0,4.2064,4.2222,4.309,4.4851,4.5012,4.595,4.7864,4.7909,4.8238,4.897,4.8985,4.8969,4.8969,4.8417,4.8521,4.906,4.779,4.7595,4.8207,4.7535,4.7266,4.7189,4.5687,4.4661,4.3856,4.1957,4.0793,4.0107,3.9473,3.9622,4.0159,0.0,0.0,0.0,0.0,0.0,0.0,0.0,0.0,0.0,4.7924,4.8703,4.9943,5.2121,5.3681,5.5206,5.6787,5.7646,5.8078,5.8107,5.7588,5.6998,5.6496,5.5971,5.6184,5.7304,5.8527,6.034,6.2695,6.3339,6.4377,6.5817,6.5209,6.5155,6.5587,6.4917,6.3844,6.2199,5.714,5.4227,5.2885,5.1135,4.962,0.0,0.0,0.0,0.0,0.0,0.0,0.0,0.0,0.0,0.0,0.0,0.0,0.0,0.0,0.0,0.0,0.0,0.0,0.0,0.0,0.0,0.0,0.0,0.0,0.0,0.0,0.0,0.0,0.0,0.0,0.0,0.0,0.0,0.0,0.0,0.0,0.0,4.701,4.8626,0.0,4.5813,4.5723,4.5933,4.6184,4.695,4.7728,4.8446,4.8432,4.8596,4.894,4.9314,4.9464,4.9299,5.0092,5.0092,4.9299,4.9464,4.9224,4.8626,4.8147,4.7848,4.7638,4.7399,4.7309,4.7279,4.677,4.6202,4.5484,4.4347,4.324,4.2213,4.1974,4.1833,4.1713,0.0,0.0,0.0,0.0,0.0,0.0,0.0,0.0,0.0,4.8223,4.9457,5.1096,5.3264,5.5323,5.7406,5.9553,5.9957,6.0072,6.0136,5.9075,5.8115,5.7317,5.7281,5.807,5.9741,6.1247,6.3092,6.5197,6.5828,6.6629,6.7568,6.6848,6.695,6.766,6.7319,6.732,6.7269,6.26,5.924,5.6887,5.4612,5.3334,5.238,0.0,0.0,0.0,0.0,0.0,0.0,0.0,0.0,0.0,0.0,0.0,0.0,0.0,0.0,0.0,0.0,0.0,0.0,0.0,0.0,0.0,0.0,0.0,0.0,0.0,0.0,0.0,0.0,0.0,0.0,0.0,0.0,0.0,0.0,4.7904,5.0286,4.9404,5.1984,5.2807,5.0174,5.011,5.0363,5.0575,5.0787,5.0943,5.1229,5.1229,5.105,5.0647,5.099,5.102,5.0647,5.1229,5.1109,5.0288,5.0242,4.9912,4.9254,4.8933,4.8685,4.8443,4.7988,4.7807,4.7807,4.7807,4.7352,4.6561,4.5663,4.4766,4.3917,4.3469,4.306,4.271,0.0,0.0,0.0,0.0,0.0,0.0,0.0,4.7736,4.8563,4.9463,5.0325,5.2087,5.5244,5.7079,5.9355,6.2523,6.2108,6.163,6.163,6.0126,5.8877,5.807,5.9538,6.119,6.2842,6.4383,6.5971,6.7631,6.8304,6.8609,6.8575,6.8339,6.8644,6.9397,6.8451,6.8421,6.9089,6.8276,6.6313,6.3328,5.9573,5.849,5.8548,0.0,0.0,0.0,0.0,0.0,0.0,0.0,0.0,0.0,0.0,0.0,0.0,0.0,0.0,0.0,0.0,0.0,0.0,0.0,0.0,0.0,0.0,0.0,0.0,0.0,0.0,0.0,0.0,0.0,0.0,0.0,0.0,0.0,4.8244,5.1067,5.2878,5.1642,5.5959,5.8096,5.556,5.4735,5.4598,5.5237,5.3509,5.272,5.335,5.338,5.335,5.332,5.335,5.335,5.332,5.269,5.236,5.23,5.0963,5.0663,5.1219,5.0279,5.0204,5.0731,4.9399,4.8851,4.8851,4.8851,4.8293,4.7246,4.5969,4.5387,4.5166,4.3918,4.3409,4.3317,0.0,0.0,0.0,0.0,0.0,0.0,0.0,4.6892,4.7736,4.8563,5.0912,5.3335,5.5376,5.807,6.0566,6.2622,6.2622,6.2475,6.2475,6.097,5.9722,5.8891,5.9869,6.1741,6.4567,6.6179,6.8044,7.0245,6.9787,6.9839,7.0378,6.9035,6.9135,7.0402,7.0141,7.0019,7.0058,6.9301,6.8104,6.6406,6.326,6.1434,6.0347,0.0,0.0,0.0,0.0,0.0,0.0,0.0,0.0,0.0,0.0,0.0,0.0,0.0,0.0,0.0,0.0,0.0,0.0,0.0,0.0,0.0,0.0,0.0,0.0,0.0,0.0,0.0,0.0,0.0,0.0,0.0,5.1534,5.2856,5.2245,5.473,5.7057,5.8159,5.958,6.0372,6.0147,5.9475,5.9165,5.9356,5.8384,5.7648,5.7379,5.7302,5.6861,5.5821,5.6798,5.6829,5.5821,5.5587,5.5197,5.4738,5.3813,5.2964,5.2146,5.1878,5.1302,5.047,5.0129,4.997,4.997,4.997,4.9813,4.9473,4.8639,4.7473,4.6309,4.6222,4.5861,4.5295,0.0,0.0,0.0,0.0,0.0,0.0,0.0,4.6104,4.7003,4.8159,5.0875,5.3445,5.539,5.818,6.0566,6.2181,6.1998,6.1814,6.1814,6.0933,6.0346,6.0236,6.1961,6.4163,6.6769,6.8385,6.9889,7.1293,7.0748,7.0726,7.1162,6.9731,6.9907,7.1372,7.0984,7.0899,7.1066,7.0612,7.0088,6.936,6.6924,6.5017,6.3294,6.0419,5.9167,5.8653,5.6218,5.5895,5.6288,5.3975,0.0,0.0,0.0,0.0,0.0,0.0,0.0,0.0,0.0,0.0,0.0,0.0,0.0,0.0,0.0,0.0,0.0,0.0,0.0,0.0,0.0,0.0,0.0,0.0,5.5219,5.7072,5.8558,5.9507,6.0553,6.2035,6.293,6.3559,6.3941,6.2912,6.223,6.223,6.105,6.0184,5.9813,5.9781,5.9268,5.8133,5.887,5.8774,5.7684,5.7032,5.6477,5.6135,5.5069,5.4141,5.3381,5.3534,5.2987,5.1918,5.1626,5.1302,5.1005,5.1005,5.0779,5.0333,0.0,0.0,0.0,0.0,4.6561,4.6147,0.0,0.0,0.0,0.0,0.0,0.0,0.0,4.5259,4.6324,4.7976,5.0398,5.2858,5.5097,5.7556,5.9648,6.108,6.0639,6.0346,6.0529,6.0456,6.0896,6.1961,6.4897,6.7283,6.9009,7.055,7.1329,7.1439,7.1329,7.1329,7.1403,7.0405,7.0685,7.203,7.1225,7.1162,7.1692,7.1763,7.1726,7.1507,7.0046,6.8441,6.6573,6.3029,6.2448,6.3226,6.1028,5.9539,5.8592,5.8254,0.0,0.0,0.0,0.0,0.0,0.0,0.0,0.0,0.0,0.0,0.0,0.0,0.0,0.0,0.0,0.0,0.0,0.0,0.0,0.0,0.0,0.0,0.0,0.0,5.893,6.1738,6.5324,6.4537,6.3802,6.4288,6.5847,6.6914,6.6812,6.5254,6.4211,6.4211,6.2554,6.1542,6.1542,6.1542,0.0,0.0,0.0,6.0032,5.9214,5.7796,5.7088,5.7055,5.5638,5.4929,5.4873,5.5077,5.4769,5.4047,5.3357,5.2696,5.2065,5.2065,5.1557,5.0677,4.9764,4.9061,4.8325,4.7039,4.6523,4.653,0.0,0.0,0.0,0.0,0.0,0.0,0.0,4.4415,4.5516,4.7113,5.0068,5.2417,5.3555,5.6418,5.8364,5.8657,5.9171,5.9979,6.1263,6.075,6.1667,6.4457,6.5815,6.754,6.9816,7.0807,7.1651,7.2275,7.1651,7.1651,7.2239,7.0775,7.058,7.1465,7.1281,7.0863,7.0335,7.0979,7.0795,7.0097,6.9776,6.8973,6.7694,6.5011,6.3768,6.3294,6.167,6.2042,6.2922,6.0486,6.0216,6.0419,5.7848,0.0,0.0,0.0,0.0,0.0,0.0,0.0,0.0,0.0,0.0,0.0,0.0,0.0,0.0,0.0,0.0,0.0,0.0,0.0,0.0,5.7273,6.0588,6.3734,6.6237,6.7352,6.7695,6.7189,6.7462,6.7455,6.688,6.6432,6.6204,6.6204,6.5328,6.4807,6.4807,6.4807,6.4162,6.2855,6.3391,6.3056,6.1716,6.0208,5.9471,5.9399,5.7964,0.0,5.6389,5.583,5.5198,5.4424,5.3717,5.3313,5.3179,5.3179,5.3076,5.2667,5.0505,4.9688,4.9654,4.8783,4.8482,4.8381,0.0,0.0,0.0,0.0,0.0,0.0,0.0,4.3828,4.4819,4.6856,4.8893,5.0765,5.2417,5.4399,5.5757,5.6161,5.7299,5.8694,6.0309,6.1153,6.3062,6.6366,6.765,6.9229,7.1248,7.1688,7.2092,7.2496,7.1688,7.1725,7.2459,7.1284,7.0917,7.1293,7.1725,7.1165,7.0046,7.0847,7.0713,6.9841,6.9388,6.8918,6.8364,6.7039,6.6318,6.5902,6.5177,6.5627,6.6393,6.4832,6.4383,6.3927,6.1592,5.9633,5.7656,0.0,0.0,0.0,0.0,0.0,0.0,0.0,0.0,0.0,0.0,0.0,0.0,0.0,0.0,5.3687,5.4431,0.0,5.8321,6.1298,6.3362,6.5527,6.8132,6.9147,6.935,6.8605,6.8504,6.8368,6.7996,6.7963,6.7793,6.7387,6.7015,6.6643,6.6271,6.6237,6.5561,6.4106,6.441,6.3903,6.2415,6.0858,6.0114,6.008,5.8592,5.7712,5.734,5.6596,5.5852,5.5108,5.4363,5.3856,5.3518,5.3518,5.3281,5.274,5.1095,5.0524,5.0507,4.9424,4.9018,4.8951,0.0,0.0,0.0,0.0,0.0,0.0,0.0,0.0,4.4198,4.6562,4.7553,4.8893,5.1059,5.216,5.3078,5.3849,5.5537,5.7373,5.9294,6.1557,6.442,6.7981,6.9412,7.0844,7.2459,7.2496,7.2496,7.2496,7.1872,7.1872,7.2496,7.1688,7.1293,7.1293,7.1835,7.1321,7.0146,7.0807,7.0697,7.0017,6.9272,6.8862,6.8728,6.8639,6.846,6.8257,6.8257,6.8115,6.7901,6.822,6.7405,6.6029,6.4848,6.365,6.1891,5.8013,5.7459,0.0,0.0,0.0,0.0,0.0,0.0,0.0,0.0,5.2503,5.3213,5.4871,5.6292,5.7744,5.9573,6.0588,6.2212,6.5392,6.617,6.7252,6.9823,7.0297,7.0195,6.9586,6.9417,6.9248,6.9113,6.9113,6.8842,6.8166,6.8132,6.7793,6.7049,6.7015,6.6339,6.485,6.4681,6.3971,6.2618,6.1095,6.025,6.008,5.8761,5.8017,5.7848,5.7137,5.6393,5.5683,5.4769,5.4059,5.3518,5.3518,5.3044,5.2232,5.1488,5.1116,5.0845,4.9492,4.9018,4.8984,0.0,0.0,0.0,0.0,0.0,0.0,0.0,0.0,0.0,4.5755,4.6709,4.759,4.86,5.0141,5.1389,5.2197,5.4399,5.7005,6.0089,6.1887,6.4897,6.9633,7.0,7.0844,7.2459,7.2496,7.2496,7.2496,7.2422,7.2422,7.2496,7.1688,7.1293,7.1256,7.066,7.0257,7.011,7.0183,7.0183,7.011,6.9989,6.9493,6.887,6.886,6.8244,6.7444,6.7444,6.649,6.5467,6.6914,6.6808,6.6138,6.6739,6.6415,6.5169,6.1966,0.0,5.76,5.5002,5.3976,5.388,5.4805,5.4634,5.5243,0.0,5.9066,5.8761,6.096,6.2076,6.2719,6.2956,6.414,6.5425,6.6508,6.7827,6.9079,7.006,7.077,7.1142,7.1075,7.0466,6.9823,6.9147,6.9113,6.9079,6.8977,6.8977,6.8605,6.7827,6.7793,6.7083,6.5595,6.4952,6.4208,6.3396,6.1907,6.0825,6.008,5.9268,5.8524,5.7848,5.7137,5.6393,5.5649,5.4228,5.3585,5.3518,5.3518,5.3044,5.2232,5.1488,5.0811,5.0101,4.9289,4.9018,4.8917,0.0,0.0,0.0,0.0,0.0,0.0,0.0,0.0,0.0,0.0,4.4525,4.5152,4.6323,4.8187,4.9481,4.9811,5.2931,5.6051,5.8804,6.141,6.4708,6.8962,6.9336,7.0082,7.1553,7.1701,7.1798,7.1798,7.2275,7.2496,7.2496,7.2165,7.1762,7.1293,7.1431,7.0734,6.9449,6.9889,6.9271,6.7957,6.7957,6.7438,6.6582,6.615,6.5462,6.488,6.633,6.6378,0.0,0.0,6.6198,6.6253,6.6048,6.5868,6.5062,6.1839,6.0837,0.0,5.8462,5.7428,5.7022,5.7758,5.8357,5.9273,6.1044,6.1005,6.1133,6.321,6.4275,6.5053,6.5899,6.6948,6.7929,6.8673,6.9316,6.9992,7.0737,7.1109,7.1142,7.0703,7.077,7.0737,7.0432,7.0398,7.0195,6.9755,6.9722,6.918,6.7963,6.7895,6.7015,6.5121,6.4749,6.4038,6.2854,6.1839,6.1129,6.0791,5.9573,5.8863,5.849,5.734,5.6156,5.504,5.4397,5.389,5.3518,5.3518,5.3315,5.2909,5.2131,5.1386,5.0608,4.9424,4.9018,4.8951,0.0,0.0,0.0,0.0,0.0,0.0,0.0,0.0,0.0,0.0,0.0,4.3159,4.4402,4.6065,4.7197,4.7417,5.0888,5.4179,5.6822,6.0015,6.3542,6.7443,6.8025,6.892,7.0312,7.0541,7.0881,7.1293,7.1872,7.2275,7.2496,7.2496,7.2202,7.1651,7.2018,7.1211,6.9596,6.9963,6.8807,6.6728,6.6728,6.5914,6.461,6.3863,6.29,6.2159,6.4347,6.4746,0.0,0.0,6.42,6.4427,6.4157,6.4312,6.4103,6.1422,6.1127,6.1451,6.0344,5.9983,6.0084,6.0605,6.2067,6.3438,6.3762,6.4044,6.4739,6.6583,6.7174,6.7755,6.905,6.9499,6.9891,7.0432,7.05,7.0703,7.1244,7.1312,7.1041,7.0297,7.0669,7.1007,7.1007,7.1176,7.1075,7.0534,7.05,6.9823,6.8301,6.8233,6.7286,6.529,6.5019,6.4275,6.3024,6.2279,6.1704,6.1298,6.0182,5.9438,5.8964,5.7273,5.5919,5.4871,5.4465,5.3991,5.3518,5.3518,5.3382,5.3078,5.23,5.1555,5.0744,4.9458,4.9018,4.9018,0.0,0.0,0.0,0.0,0.0,0.0,0.0,0.0,0.0,0.0,0.0,0.0,0.0,4.3622,4.4341,4.512,4.7979,5.1116,5.4289,5.7519,6.1153,6.5217,6.6145,6.732,6.8926,6.8972,6.9743,7.1293,7.1293,7.1762,7.2496,7.2496,7.2496,7.2422,7.1688,7.1293,7.1211,7.0403,6.9099,6.7553,6.7553,6.6088,6.3828,6.3112,6.1441,5.9681,6.1227,0.0,0.0,0.0,6.0052,5.9698,6.1202,6.223,0.0,6.1801,6.0481,0.0,0.0,6.0413,6.1911,6.3476,6.5625,6.7719,6.9211,7.0133,7.1125,7.2646,7.2197,7.1751,7.2513,7.1858,7.1244,7.1278,7.1278,7.1278,7.1312,7.1312,7.1041,7.0297,7.0195,7.0229,7.0229,7.0872,7.1312,7.1278,7.1278,7.0635,6.9147,6.9079,6.8368,6.6779,6.6034,6.529,6.4546,6.3802,6.2719,6.1298,6.1264,6.0452,5.893,5.6731,5.5716,5.5615,5.416,5.3518,5.3518,5.3518,5.3044,5.2266,5.1522,5.0777,5.0033,4.9289,4.9018,4.9018,0.0,0.0,0.0,0.0,0.0,0.0,0.0,0.0,0.0,0.0,0.0,0.0,0.0,0.0,0.0,0.0,4.5806,4.8529,5.0674,5.4761,5.8068,6.0314,6.2733,6.45,6.544,6.6158,6.7063,6.8128,6.9192,6.9853,7.0146,7.1211,7.1725,7.1725,7.1982,7.1798,7.1228,7.0367,6.8976,6.7242,6.568,6.4147,6.2658,6.0389,5.8462,5.6874,0.0,0.0,0.0,0.0,0.0,0.0,5.7569,0.0,0.0,5.851,0.0,0.0,6.1174,6.3205,6.5378,6.7484,6.9424,7.0936,7.1375,7.2101,7.2612,7.2438,7.129,7.017,6.9832,6.983,6.9704,6.9132,7.0331,7.1312,7.1312,7.1312,7.1041,7.0297,7.0195,7.0195,7.0195,7.0398,7.077,7.1278,7.1312,7.0669,6.918,6.9113,6.8166,6.6136,6.5831,6.5121,6.3903,6.3632,6.3024,6.2009,6.0994,5.9979,5.8964,5.7239,5.6156,5.5683,5.4668,5.3957,5.3518,5.3518,5.3348,5.3078,5.2841,5.2266,5.1454,5.0744,5.0168,4.9661,0.0,0.0,0.0,0.0,0.0,0.0,0.0,0.0,0.0,0.0,0.0,0.0,0.0,0.0,0.0,0.0,0.0,4.5159,4.6811,5.0242,5.3128,5.5087,5.6942,5.8497,5.9687,6.0409,6.1453,6.283,6.4674,6.5884,6.6437,6.8007,6.8852,6.9157,6.9689,6.9762,6.95,6.861,6.7097,6.5091,6.331,6.1519,5.9742,5.7273,5.5412,0.0,0.0,0.0,0.0,0.0,0.0,0.0,0.0,0.0,0.0,0.0,0.0,6.0603,6.3,6.5485,6.7944,7.033,7.2165,7.3413,7.3619,7.4038,7.4167,7.3245,7.1224,6.9386,6.8539,6.8113,6.7792,6.7223,6.8583,6.9891,7.0466,7.0534,7.0432,7.0229,7.0195,7.0195,7.0195,7.0195,7.0398,7.0872,7.0906,7.0263,6.8741,6.8673,6.7895,6.6136,6.5831,6.5121,6.3903,6.3632,6.3125,6.2381,6.0825,5.9844,5.9336,5.7611,5.6393,5.5683,5.4905,5.416,5.3518,5.3518,5.3518,5.3484,5.3179,5.2604,5.1826,5.1082,5.0338,4.9627,0.0,0.0,0.0,0.0,0.0,0.0,0.0,0.0,0.0,0.0,0.0,0.0,0.0,0.0,0.0,0.0,0.0,0.0,4.277,4.4429,4.6687,4.9664,4.9353,5.0137,5.2299,5.2404,5.3589,5.5934,5.8131,6.003,6.1524,6.3026,6.4184,6.4976,6.4943,6.5399,6.6049,6.524,6.3575,6.1398,6.0529,5.8359,5.5547,5.3991,0.0,0.0,0.0,0.0,0.0,0.0,0.0,0.0,0.0,0.0,5.7152,5.796,5.9869,6.2254,6.4751,6.7173,6.9522,7.1908,7.367,7.5065,7.5799,7.5983,7.5726,7.4845,7.1951,6.9336,6.8408,6.6883,6.5752,6.5748,6.6519,6.7608,6.9151,6.9311,6.9538,7.025,7.0371,7.0371,7.0317,7.0371,7.0338,7.0338,7.0328,6.9684,6.8201,6.8057,6.7675,6.6862,6.6144,6.5358,6.4546,6.3835,6.3091,6.2381,6.0863,6.0118,6.0013,5.7889,5.6499,5.5719,5.5042,5.4296,5.3618,5.3618,5.3618,5.355,5.277,5.2058,5.1346,5.06,4.9853,4.9182,0.0,0.0,0.0,0.0,0.0,0.0,0.0,0.0,0.0,0.0,0.0,0.0,0.0,0.0,0.0,0.0,0.0,0.0,3.9928,4.1948,4.3463,4.421,4.6692,4.8335,4.8919,5.0021,5.1188,5.2421,5.3571,5.47,5.5772,5.7947,5.937,6.0203,6.139,6.2062,6.2183,6.1216,6.045,5.9628,0.0,5.5926,5.5412,0.0,0.0,0.0,0.0,0.0,0.0,0.0,0.0,5.5921,5.6786,5.818,5.9648,6.0456,6.1998,6.398,6.6402,6.8421,7.022,7.2055,7.3266,7.4074,7.4258,7.4294,7.3744,7.1725,6.9209,6.6526,6.3891,6.5335,6.6754,6.6109,6.8972,7.167,7.2823,7.2365,7.1932,7.2104,7.2325,7.2385,7.2153,7.229,7.2454,7.2454,7.2255,7.178,7.1011,7.0273,6.9043,6.7074,6.6685,6.5662,6.3802,6.3057,6.2584,6.242,6.1505,6.0752,6.005,5.9108,5.7878,5.6532,5.6373,5.5844,5.5149,5.5149,5.5149,5.5114,5.4904,5.4723,5.4478,5.3701,5.2619,5.1459,0.0,0.0,0.0,0.0,0.0,0.0,0.0,0.0,0.0,0.0,0.0,0.0,0.0,0.0,0.0,0.0,0.0,0.0,0.0,3.9027,4.0027,4.0651,4.1764,4.2785,4.3746,4.4568,4.5225,4.5748,0.0,0.0,4.9168,5.1475,5.3201,5.4373,5.5552,5.647,5.7117,5.6131,0.0,0.0,0.0,0.0,0.0,0.0,0.0,0.0,0.0,0.0,0.0,5.483,5.6727,5.8762,6.0213,6.1557,6.2768,6.3943,6.5191,6.6659,6.8715,7.0183,7.1615,7.3597,7.3891,7.3597,7.323,7.2642,7.1321,6.8568,6.6035,6.3694,6.1491,6.3406,6.5146,6.4574,6.8184,7.1399,7.2532,7.2555,7.2722,7.3382,7.3579,7.3587,7.3462,7.3579,7.3896,7.4333,7.3479,7.2535,7.1584,7.1033,6.9995,6.8278,6.7083,6.5335,6.3024,6.2618,6.2581,6.2973,6.1874,6.1327,6.1188,6.0206,5.8879,5.7363,5.7423,5.675,5.5724,5.5724,5.5724,5.5724,5.5724,5.5511,5.5185,5.4752,5.3654,5.2278,0.0,0.0,0.0,0.0,0.0,0.0,0.0,0.0,0.0,0.0,0.0,0.0,0.0,0.0,0.0,0.0,0.0,0.0,0.0,0.0,0.0,3.8483,3.6725,3.66,3.8483,3.8546,3.8579,3.8676,4.1209,0.0,0.0,0.0,0.0,0.0,0.0,0.0,0.0,0.0,0.0,0.0,0.0,0.0,0.0,0.0,0.0,0.0,0.0,0.0,0.0,5.9334,6.0713,6.1447,6.3833,6.5191,6.6219,6.7614,6.8605,6.9559,7.1064,7.2055,7.3193,7.5395,7.4808,7.3413,7.2422,7.0954,6.8825,6.5521,6.3025,6.1153,6.0236,6.1537,6.2803,6.3057,6.6437,6.9601,7.1224,7.2142,7.308,7.4356,7.461,7.4572,7.431,7.4535,7.494,7.5574,7.4333,7.2941,7.1516,7.1233,7.0594,6.9529,6.7004,6.4752,6.2887,6.2644,6.3011,6.3864,6.244,6.208,6.2659,6.1321,5.9787,5.8243,5.8359,5.7491,5.6004,5.6004,5.6004,5.6004,5.6004,5.5604,5.5053,5.5053,5.4082,5.2758,0.0,0.0,0.0,0.0,0.0,0.0,0.0,0.0,0.0,0.0,3.7524,3.7674,0.0,0.0,0.0,0.0,0.0,0.0,0.0,0.0,0.0,0.0,3.7263,3.7233,3.7613,3.7643,3.7643,3.7677,3.8148,0.0,0.0,0.0,0.0,0.0,0.0,0.0,0.0,0.0,0.0,0.0,0.0,0.0,0.0,0.0,0.0,0.0,0.0,0.0,0.0,0.0,6.2218,6.4751,6.6512,6.8091,6.9302,6.9596,7.0257,7.1073,7.2055,7.2899,7.3744,7.4845,7.4404,7.312,7.0991,6.9265,6.699,6.3062,6.1374,6.0162,5.8694,6.0836,6.3675,6.6354,6.8934,7.1893,7.5629,7.5595,7.5221,7.5509,7.6264,7.613,7.446,7.5823,7.6207,7.4918,7.5305,7.5187,7.4238,7.2842,7.098,6.8531,6.552,6.4362,6.5252,6.4083,6.39,6.4766,6.3886,6.3199,6.2691,6.2466,6.1151,5.906,5.9714,5.9091,5.7594,5.7594,5.7594,5.7594,5.7594,5.7545,5.7399,5.7399,5.6467,5.5188,0.0,0.0,0.0,0.0,0.0,0.0,0.0,3.7225,3.7883,3.926,3.9469,3.9589,3.9888,3.9948,3.9948,0.0,0.0,0.0,0.0,0.0,0.0,0.0,0.0,0.0,0.0,3.6926,3.6926,3.6926,0.0,3.7613,3.805,3.8754,3.9955,0.0,0.0,0.0,0.0,0.0,0.0,0.0,0.0,0.0,0.0,0.0,0.0,0.0,0.0,0.0,0.0,0.0,6.1382,6.4604,6.7907,6.9779,7.0807,7.1248,7.1908,7.2716,7.3523,7.4037,7.4625,7.5873,7.4625,7.2312,6.9486,6.7283,6.4677,6.0566,5.9428,5.8914,5.8143,6.0272,6.2654,6.413,6.7477,7.0853,7.3655,7.4779,7.5616,7.6454,7.7019,7.6925,7.5959,7.6364,7.6313,7.543,7.5074,7.4661,7.4294,7.3094,7.1408,6.921,6.7271,6.618,6.6074,6.4918,6.4835,6.5712,6.4501,6.3921,6.4036,6.3195,6.1714,5.9841,6.0237,5.9501,5.7997,5.7997,5.7997,5.7997,5.7997,5.7997,5.7997,5.7997,5.7285,5.6332,0.0,0.0,0.0,0.0,0.0,0.0,0.0,3.7734,3.8601,4.0756,4.1594,4.1803,4.1294,4.1444,4.1422,0.0,0.0,0.0,0.0,0.0,0.0,0.0,0.0,0.0,0.0,0.0,0.0,3.6896,3.7255,0.0,0.0,0.0,0.0,0.0,4.1754,4.2914,0.0,0.0,0.0,0.0,0.0,0.0,0.0,0.0,0.0,0.0,0.0,0.0,5.5014,0.0,5.9393,6.2347,6.6875,6.9448,7.0881,7.1358,7.2532,7.3817,7.4478,7.5028,7.5696,7.698,7.5028,7.1872,6.8458,6.5815,6.2915,5.8841,5.7997,5.7997,5.7997,5.9538,6.0993,6.1525,6.4986,6.8494,7.0977,7.3106,7.5139,7.7053,7.7273,7.7138,7.6732,7.6338,7.5886,7.5336,7.4132,7.345,7.345,7.2644,7.1526,7.0003,6.9021,6.7844,6.6503,6.5685,6.5743,6.6671,6.5156,6.474,6.5264,6.3759,6.2181,6.0639,6.0456,5.9575,5.8253,5.807,5.7997,5.7997,5.7997,5.7997,5.7997,5.7997,5.7593,5.7079,0.0,0.0,0.0,0.0,0.0,0.0,0.0,3.8841,4.0121,4.2692,4.3629,4.4018,4.3958,4.294,4.2291,0.0,0.0,0.0,0.0,0.0,0.0,0.0,0.0,0.0,0.0,0.0,0.0,3.8212,3.7674,0.0,0.0,0.0,0.0,0.0,0.0,4.2693,4.3472,0.0,0.0,0.0,0.0,0.0,0.0,0.0,0.0,0.0,0.0,5.0792,5.197,5.5005,5.6698,5.813,6.1435,6.5542,6.9009,6.8311,7.077,7.3707,7.378,7.5432,7.709,7.7237,7.5432,7.2532,6.8605,6.5815,6.2915,5.8841,5.7997,5.7997,5.7997,5.818,5.9294,6.2192,6.3085,6.5495,7.15,7.2548,7.3854,7.6943,7.7273,7.6664,7.5016,7.5593,7.5128,7.2742,7.2565,7.2606,7.2606,7.1738,7.083,6.994,6.8302,6.7451,6.7405,6.6643,6.67,6.7569,6.6663,6.592,6.5264,6.4383,6.3062,6.1447,6.0713,5.9905,5.9038,5.829,5.7997,5.7997,5.7997,5.7997,5.7997,5.7997,5.796,5.7886,0.0,0.0,0.0,0.0,0.0,0.0,3.8123,3.8631,3.9888,4.2901,4.3858,4.4466,4.4855,4.4436,4.3698,4.25,0.0,0.0,0.0,0.0,0.0,0.0,0.0,0.0,0.0,0.0,3.8093,3.902,3.914,0.0,0.0,0.0,0.0,0.0,0.0,4.3356,4.4126,0.0,0.0,0.0,0.0,0.0,0.0,0.0,0.0,0.0,0.0,0.0,5.1354,5.2606,5.3871,5.5097,5.6322,5.97,6.3683,6.6223,6.9486,7.2459,7.345,7.5469,7.7273,7.7273,7.4404,7.0844,6.8274,6.4677,6.1153,5.8547,5.7997,5.7997,5.7997,5.7997,5.8584,6.0358,6.1043,6.2768,6.688,6.8274,7.0257,7.3964,7.4845,7.5238,7.5484,7.5403,7.4549,7.2535,7.2438,7.2496,7.2496,7.2167,7.1586,7.0784,6.9612,6.8783,6.8349,6.7575,6.7378,6.7677,6.6402,6.5632,6.5264,6.3943,6.2438,6.086,6.0529,5.9685,5.8437,5.8143,5.7997,5.7997,5.7997,5.7997,5.7997,5.7997,5.7997,5.7997,0.0,0.0,0.0,0.0,0.0,3.6148,3.8093,3.8571,3.9798,4.2901,4.3858,4.4556,4.5214,4.5125,4.4436,4.306,4.2201,0.0,0.0,0.0,0.0,0.0,0.0,0.0,0.0,0.0,3.9409,4.0277,4.0812,4.1929,0.0,0.0,4.3524,4.4773,0.0,0.0,0.0,0.0,0.0,0.0,0.0,0.0,0.0,0.0,0.0,0.0,0.0,0.0,0.0,0.0,0.0,5.3175,5.312,0.0,0.0,0.0,6.7149,7.0844,7.1982,7.4551,7.6974,7.6974,7.3487,6.9669,6.8054,6.3906,5.9942,5.8327,5.7997,5.7997,5.7997,5.7997,5.818,5.8767,5.9318,6.0639,6.3356,6.4677,6.6806,7.0624,7.1578,7.2569,7.4184,7.4258,7.3744,7.2606,7.2496,7.2422,7.2165,7.2165,7.1798,7.0991,7.0146,6.9229,6.8201,6.7614,6.721,6.699,6.5852,6.5191,6.4897,6.3723,6.2438,6.1117,6.086,6.0126,5.9024,5.8547,5.8364,5.8327,5.8107,5.7997,5.7997,5.7997,5.7997,5.7997,0.0,0.0,0.0,0.0,0.0,0.0,3.8093,3.896,4.033,4.2961,4.3858,4.4556,4.5214,4.4706,4.4317,4.4287,4.309,0.0,0.0,0.0,0.0,0.0,0.0,0.0,0.0,0.0,4.1025,4.2381,4.264,4.3545,4.5083,4.5342,4.5532,4.5674,0.0,0.0,0.0,0.0,0.0,0.0,0.0,0.0,0.0,0.0,0.0,0.0,0.0,0.0,0.0,0.0,0.0,0.0,0.0,0.0,0.0,0.0,6.3355,6.8935,6.8972,7.2459,7.613,7.613,7.3083,6.9669,6.8054,6.3906,5.9942,5.8327,5.7997,5.7997,5.7997,5.7997,5.7997,5.7997,5.8033,5.9134,6.2365,6.2817,6.4053,6.7357,6.7787,6.8385,7.0,7.1615,7.2532,7.2496,7.2496,7.2165,7.1329,7.1293,7.0954,7.0146,6.9339,6.8164,6.6549,6.6512,6.6109,6.5338,6.5301,6.4897,6.409,6.409,6.3613,6.2732,6.1924,6.1557,6.1447,5.9832,5.9184,5.9111,5.8327,5.7997,5.7997,5.7997,5.7997,5.7997,0.0,0.0,0.0,0.0,0.0,0.0,0.0,3.7644,3.899,4.1654,4.2581,4.3569,4.5125,4.4706,4.4496,4.4945,4.3429,0.0,0.0,0.0,0.0,0.0,0.0,0.0,0.0,0.0,4.2304,4.3383,4.3926,4.5061,4.6779,4.6388,4.6533,4.7192,4.6684,4.6312,0.0,0.0,0.0,0.0,0.0,0.0,0.0,0.0,0.0,0.0,0.0,0.0,0.0,0.0,0.0,0.0,0.0,0.0,0.0,0.0,0.0,6.3675,6.5856,6.8348,7.0367,7.0367,6.8164,6.5705,6.4604,6.1887,5.9281,5.8217,5.7997,5.7997,5.7997,5.7997,5.818,5.8731,5.8364,5.8547,6.0102,6.1753,6.3833,6.6549,6.9779,7.1982,7.2496,7.2532,7.2496,7.2496,7.1982,7.1578,7.1293,7.0257,6.9559,6.9302,6.9045,6.8128,6.6512,6.6512,6.6109,6.5301,6.4751,6.4347,6.4053,6.3466,6.2768,6.1924,6.1117,6.0456,5.9905,5.8841,5.84,5.8364,5.8107,5.7997,5.7997,5.7997,5.7997,5.7997,0.0,0.0,0.0,0.0,0.0,0.0,0.0,3.7375,3.8482,4.0397,4.1692,4.295,4.4407,4.4407,4.4586,4.5244,4.4167,0.0,0.0,0.0,0.0,0.0,0.0,0.0,4.2102,4.2878,4.3716,4.4607,4.5714,4.7001,4.843,4.8298,4.8316,4.8308,4.7834,4.7327,0.0,0.0,0.0,0.0,0.0,0.0,4.9018,0.0,0.0,0.0,0.0,0.0,0.0,0.0,0.0,0.0,0.0,0.0,0.0,0.0,5.5238,5.8757,6.2466,6.5104,6.6838,6.7156,6.5411,6.3466,6.289,6.0713,5.8621,5.8107,5.7997,5.7997,5.7997,5.7997,5.8143,5.8694,5.8327,5.84,5.9501,6.1227,6.3282,6.5742,6.9486,7.1872,7.1872,7.2275,7.2386,7.2092,7.1578,7.1064,7.044,6.9449,6.8641,6.8017,6.8274,6.7834,6.6512,6.6512,6.5925,6.4861,6.4347,6.3906,6.3576,6.3062,6.2548,6.1998,6.119,6.0566,0.0,5.8914,5.8437,5.8437,5.8107,5.7997,5.7997,5.7997,5.7997,5.7997,0.0,0.0,0.0,0.0,0.0,0.0,0.0,3.7853,3.8512,3.926,4.1025,4.253,4.314,4.3798,4.4526,4.5244,0.0,0.0,0.0,0.0,0.0,0.0,0.0,0.0,4.326,4.4343,4.5259,4.6033,4.7864,4.9156,4.9919,5.0759,5.0439,4.9086,4.9086,4.8274,0.0,0.0,0.0,0.0,0.0,0.0,0.0,0.0,0.0,0.0,0.0,0.0,0.0,0.0,0.0,0.0,0.0,0.0,0.0,0.0,0.0,0.0,0.0,6.2354,6.4887,6.564,6.4149,6.2523,6.245,6.0199,0.0,5.7997,5.7997,5.7997,5.7997,5.7997,5.7997,5.7997,5.7997,5.8547,6.0162,6.1337,6.2915,6.5375,6.7724,6.9119,6.9009,7.1064,7.2092,7.1329,7.1183,7.0477,6.8972,6.8788,6.8054,6.6549,6.7173,6.7136,6.6329,6.6329,6.5558,6.4016,6.4016,6.3576,6.278,6.278,6.278,6.2743,6.1887,6.152,6.1374,5.9795,5.9111,5.9038,5.829,5.7997,5.7997,5.7997,5.7997,5.7997,0.0,0.0,0.0,0.0,0.0,0.0,0.0,0.0,0.0,0.0,3.9948,4.1294,4.2462,4.318,4.3977,0.0,0.0,0.0,0.0,0.0,0.0,0.0,0.0,0.0,4.329,4.481,4.6072,4.6939,4.8667,4.9991,5.0891,5.112,5.071,4.983,4.983,4.9323,0.0,0.0,0.0,0.0,0.0,0.0,0.0,0.0,0.0,0.0,4.9018,4.9593,0.0,0.0,0.0,0.0,0.0,0.0,0.0,0.0,5.3002,5.3876,5.5536,0.0,5.8941,5.9134,5.9613,5.9881,0.0,5.9024,5.8767,5.8143,5.7997,5.7997,5.7997,5.7997,5.7997,5.7997,5.7997,5.8547,6.0162,6.3796,6.6916,6.8752,7.055,7.1174,6.9926,7.0881,7.1476,7.1293,7.0183,6.9302,6.8935,6.7724,6.688,6.6512,6.6109,6.5485,6.4677,6.464,6.4127,6.3099,6.3099,6.3025,6.278,6.278,6.278,6.2707,6.13,6.0676,6.0566,5.8951,5.829,5.8253,5.807,5.7997,5.7997,5.7997,5.7997,5.7997,0.0,0.0,0.0,0.0,0.0,0.0,0.0,0.0,0.0,0.0,0.0,4.1115,4.1871,4.303,0.0,0.0,0.0,0.0,0.0,0.0,0.0,0.0,0.0,4.303,4.329,4.4964,4.6429,4.7782,4.9426,5.0923,5.2266,5.2266,5.1657,5.0574,4.9898,4.9357,0.0,0.0,0.0,0.0,4.9154,0.0,0.0,0.0,0.0,0.0,4.9018,4.9458,0.0,5.094,5.1398,5.1888,0.0,0.0,0.0,0.0,5.3667,5.4106,5.4482,5.5472,5.6528,5.7267,5.8032,5.8621,5.8584,5.8621,5.8547,5.8107,5.7997,5.7997,5.7997,5.829,5.8437,5.807,5.8914,6.0346,6.2365,6.4934,6.732,6.9302,7.033,7.066,7.0146,7.0477,7.0624,7.0257,6.9412,6.8752,6.8385,6.7173,6.6329,6.5962,6.5191,6.4714,6.464,6.464,6.4237,6.3392,6.3392,6.3209,6.2805,6.2438,6.2254,6.2181,6.0566,5.9869,5.9758,5.851,5.7997,5.7997,5.7997,5.7997,5.7997,5.7997,5.7997,5.7997,0.0,0.0,0.0,0.0,0.0,0.0,0.0,0.0,0.0,0.0,0.0,0.0,0.0,0.0,0.0,0.0,0.0,0.0,0.0,0.0,0.0,0.0,0.0,4.2821,4.3439,4.4955,4.6604,4.8302,4.9831,5.1512,5.328,5.328,5.2539,5.115,4.9796,4.912,0.0,0.0,4.9052,4.9154,4.9052,0.0,0.0,0.0,0.0,0.0,0.0,0.0,0.0,5.1443,5.208,5.2652,5.4583,0.0,0.0,0.0,0.0,0.0,5.4757,5.5566,5.6664,5.7683,5.8032,5.8327,5.8914,5.851,5.7997,5.7997,5.7997,5.8033,5.8143,5.8657,5.8877,5.8437,6.0493,6.3025,6.5521,6.6072,6.688,6.8678,6.9119,6.9412,6.9706,6.9706,6.9449,6.8788,6.8495,6.8054,6.7357,6.6549,6.5815,6.5154,6.4347,6.4163,6.4751,6.4861,6.4567,6.3906,6.3906,6.3466,6.2585,6.1924,6.152,6.1337,5.9869,5.9184,5.9148,5.8327,5.7997,5.7997,5.7997,5.7997,5.7997,5.7997,5.7997,5.7997,0.0,0.0,0.0,0.0,0.0,0.0,0.0,0.0,0.0,0.0,0.0,0.0,0.0,0.0,0.0,0.0,0.0,0.0,0.0,0.0,0.0,4.5185,4.3898,4.3439,4.4137,4.5309,4.6547,4.787,4.9018,5.0477,5.217,5.217,5.1827,5.1151,5.0304,4.9593,4.9018,4.9018,4.9357,4.9864,4.9255,0.0,0.0,0.0,0.0,0.0,0.0,0.0,0.0,4.9443,5.0788,5.2438,5.281,0.0,0.0,0.0,0.0,0.0,5.5552,5.7604,5.9358,5.7536,5.8068,5.8877,5.8327,5.8107,5.7997,5.7997,5.7997,5.8217,5.8914,5.8547,5.8584,5.9832,6.2695,6.5595,6.8017,6.9522,7.0036,6.9009,7.011,7.0183,6.8238,6.8054,6.8017,6.7871,6.6623,6.5815,6.5668,6.4897,6.442,6.4273,6.3466,6.2732,6.2181,6.2842,6.3135,6.3025,6.3025,6.2585,6.1777,6.1667,6.1227,6.0529,5.9588,5.9184,5.9148,5.8327,5.7997,5.7997,5.7997,5.7997,5.7997,5.7997,5.7997,5.7997,0.0,0.0,0.0,0.0,0.0,0.0,0.0,0.0,0.0,0.0,0.0,0.0,0.0,0.0,0.0,0.0,0.0,0.0,0.0,0.0,4.5783,4.5843,4.4915,4.4377,4.4317,4.5142,4.6487,4.8345,4.9171,5.05,5.2074,5.1528,5.122,5.1151,4.9999,4.9323,4.9018,4.9018,4.9187,4.9492,0.0,0.0,0.0,0.0,0.0,0.0,0.0,0.0,0.0,0.0,5.0643,5.1443,5.307,0.0,0.0,0.0,0.0,0.0,5.634,5.8021,5.9648,5.8956,6.0347,6.163,6.0786,6.0272,5.9685,5.8841,5.8657,5.8914,5.9722,6.0272,6.1557,6.453,6.5191,6.6145,6.8568,6.8421,6.8128,6.8238,6.8531,6.8458,6.776,6.7283,6.7026,6.7026,6.5962,6.5301,6.5301,6.453,6.409,6.409,6.3246,6.2622,6.2254,6.2181,6.2144,6.2144,6.1704,6.1557,6.1557,6.0713,6.0126,5.9698,5.8914,5.8547,5.851,5.8143,5.7997,5.7997,5.7997,5.7997,5.7997,5.7997,5.7997,5.7997,0.0,0.0,0.0,0.0,0.0,0.0,0.0,0.0,0.0,0.0,0.0,0.0,0.0,0.0,0.0,0.0,0.0,0.0,0.0,0.0,4.5693,4.6082,4.5723,4.5398,4.5132,4.5368,4.6747,4.9264,4.9539,5.058,5.2261,5.1364,5.102,5.1117,4.983,4.9154,4.9018,4.9018,4.9077,4.9226,0.0,0.0,0.0,0.0,0.0,0.0,0.0,0.0,0.0,0.0,0.0,0.0,0.0,0.0,0.0,5.5826,5.667,5.7141,5.7141,5.8422,5.9869,6.0309,6.1704,6.2989,6.3099,6.2328,6.141,6.0786,6.0493,6.0493,6.0896,6.2144,6.42,6.754,6.7136,6.721,6.9449,6.8164,6.732,6.8164,6.7724,6.7357,6.7393,6.6696,6.6145,6.5962,6.5191,6.4714,6.4714,6.4127,6.3796,6.3796,6.2989,6.2438,6.2254,6.1447,6.1227,6.1594,6.0786,6.0639,6.1006,5.9735,5.9074,5.8854,5.8253,5.7997,5.7997,5.7997,5.7997,5.7997,5.7997,5.7997,5.7997,5.7997,5.7997,5.7997,0.0,0.0,0.0,0.0,0.0,0.0,0.0,0.0,0.0,0.0,0.0,0.0,0.0,0.0,0.0,0.0,0.0,0.0,0.0,0.0,4.5992,4.5394,4.5933,4.6634,4.7503,4.6675,4.7686,5.0658,4.9772,5.034,5.2292,5.1885,5.1518,5.1183,5.0371,4.9627,4.9018,4.9018,4.9376,4.9919,4.9919,0.0,0.0,0.0,0.0,0.0,0.0,0.0,0.0,0.0,0.0,0.0,0.0,0.0,5.6749,5.7574,5.789,5.7927,5.7927,5.9661,6.1263,6.0566,5.9979,6.0346,6.3319,6.2768,6.2218,6.442,6.4273,6.3503,6.2768,6.3392,6.4347,6.5411,6.7907,7.033,7.2018,7.2092,7.1468,7.0073,6.9889,6.8972,6.6806,6.5852,6.5081,6.431,6.3466,6.2989,6.2989,6.2952,6.289,6.289,6.2108,6.1337,6.0603,5.9795,6.0126,6.1594,6.0786,6.0052,5.9368,5.9258,5.8804,5.807,5.8033,5.7997,5.7997,5.7997,5.7997,5.7997,5.7997,5.7997,5.7997,5.7997,5.7997,5.7997,0.0,0.0,0.0,0.0,0.0,0.0,0.0,0.0,0.0,0.0,0.0,0.0,0.0,0.0,0.0,0.0,0.0,0.0,0.0,4.4436,4.5413,4.6152,4.6237,4.714,4.896,4.8324,4.9343,5.2169,5.1805,5.2218,5.3317,5.1162,5.0525,5.1151,4.9965,4.9255,4.9018,4.9018,4.9406,5.0004,5.0004,5.0445,0.0,0.0,0.0,0.0,0.0,0.0,0.0,0.0,5.1484,5.2105,5.3171,5.4001,5.4768,5.5536,5.6455,5.7152,5.6638,5.8253,6.0052,5.9735,5.9404,6.0175,6.398,6.4751,6.464,6.4567,6.5485,6.5925,6.4604,6.5448,6.6439,6.6733,6.8641,7.0293,7.0917,7.0587,7.0036,6.9449,6.8458,6.7504,6.6586,6.5301,6.42,6.3356,6.2511,6.2034,6.2034,6.2034,6.2291,6.278,6.2034,6.1447,6.1153,5.9869,5.9515,6.0126,5.9281,5.9024,5.9184,5.8694,5.829,5.7997,5.7997,5.7997,5.7997,5.7997,5.7997,5.7997,5.7997,5.7997,5.7997,5.7997,5.7997,5.7997,0.0,0.0,0.0,0.0,0.0,0.0,0.0,0.0,0.0,0.0,0.0,0.0,0.0,0.0,0.0,0.0,0.0,0.0,4.2671,4.3539,4.4489,4.5559,4.5856,4.6936,4.8882,4.8985,5.0413,5.326,5.3361,5.3742,5.4245,5.134,5.052,5.1488,4.9999,4.9357,4.9323,4.9086,4.9521,5.0335,5.0335,5.0929,0.0,0.0,0.0,0.0,0.0,0.0,0.0,0.0,5.1783,5.1922,5.2891,5.3393,5.3813,5.4547,5.5757,5.6675,5.6124,5.7189,5.8487,5.8767,5.9001,6.0175,6.4053,6.5558,6.6182,6.6329,6.6659,6.6659,6.5852,6.6145,6.6733,6.7247,6.8862,7.011,7.011,6.9412,6.8825,6.8568,6.732,6.6292,6.5778,6.4494,6.3356,6.2511,6.1667,6.1227,6.1227,6.1227,6.1484,6.2034,6.1263,6.086,6.086,5.9501,5.8841,5.8804,5.8253,5.829,5.8804,5.8253,5.7997,5.7997,5.7997,5.7997,5.7997,5.7997,5.7997,5.7997,5.7997,5.7997,5.7997,5.7997,5.7997,5.7997,0.0,0.0,0.0,0.0,0.0,0.0,0.0,0.0,0.0,0.0,0.0,0.0,0.0,0.0,0.0,0.0,0.0,0.0,4.1354,4.2581,4.329,4.3329,4.4586,4.5903,4.7292,4.8418,5.0628,5.3912,5.422,5.4615,5.493,5.2795,5.1984,5.2232,5.0744,5.0101,5.0033,4.9323,4.9809,5.1086,5.1086,5.1922,5.3103,0.0,0.0,0.0,0.0,0.0,0.0,0.0,5.3254,5.3482,5.506,5.5023,5.4546,5.5354,5.6161,5.6785,5.6785,5.6785,5.7005,5.7776,5.8621,6.0089,6.3356,6.4714,6.6476,7.0449,6.8128,6.5558,6.6366,6.5191,6.464,6.6219,6.8495,7.0073,7.0073,6.9376,6.8568,6.776,6.6953,6.5852,6.4237,6.3319,6.2475,6.163,6.086,6.0382,6.0382,6.0382,6.0382,6.0419,5.9625,5.9184,5.9184,5.84,5.7997,5.7997,5.7997,5.7997,5.7997,5.7997,5.7997,5.7997,5.7997,5.7997,5.7997,5.7997,5.7997,5.7997,5.7997,5.7997,5.7997,5.7997,5.7997,5.7997,0.0,0.0,0.0,0.0,0.0,0.0,0.0,0.0,0.0,0.0,0.0,0.0,0.0,0.0,0.0,0.0,0.0,0.0,4.1422,4.1743,4.2477,4.3591,4.3814,4.4938,4.7175,4.9742,5.2058,5.4025,5.471,5.4929,5.4649,5.2241,5.1255,5.1488,5.0541,4.9796,4.9323,4.9086,4.9521,5.0362,5.0876,5.1618,5.245,0.0,0.0,0.0,0.0,0.0,0.0,0.0,0.0,0.0,5.3775,5.4142,5.4326,5.3995,5.4876,5.5721,5.4583,5.5941,5.7556,5.7262,5.9061,6.1447,6.3613,6.5154,6.7136,7.0587,6.8568,6.6402,6.7173,6.6476,6.5742,6.5668,6.6733,6.7577,6.7577,6.688,6.6292,6.6035,6.5301,6.4383,6.3282,6.2438,6.1374,6.0015,5.9685,5.9551,5.9551,5.9551,5.9808,6.0382,5.9625,5.9184,5.9184,5.84,5.7997,5.7997,5.7997,5.7997,5.7997,5.7997,5.7997,5.7997,5.7997,5.7997,5.7997,5.7997,5.7997,5.7997,5.7997,5.7997,5.7997,5.7997,5.7997,5.7997,0.0,0.0,0.0,0.0,0.0,0.0,0.0,0.0,0.0,0.0,0.0,0.0,0.0,0.0,0.0,0.0,0.0,0.0,0.0,4.1145,4.1565,4.2805,4.29,4.4234,4.7018,5.0139,5.2113,5.2778,5.4309,5.4714,5.4126,5.2602,5.1798,5.1623,5.1183,5.0574,4.9864,4.956,4.9645,5.0033,5.0472,5.1241,5.2159,0.0,0.0,0.0,0.0,0.0,0.0,0.0,0.0,0.0,5.3203,5.3555,5.3885,5.3739,5.4363,5.506,5.473,5.5794,5.7226,5.8033,5.9942,6.2218,6.453,6.6549,6.8568,7.0844,6.9009,6.732,6.8421,6.6953,6.5595,6.5742,6.5925,6.6035,6.6035,6.5338,6.4824,6.4824,6.3796,6.2879,6.2365,6.13,6.0236,5.9258,5.8891,5.8731,5.8731,5.8731,5.8951,5.9428,5.8988,5.8731,5.8731,5.8253,5.7997,5.7997,5.7997,5.7997,5.7997,5.7997,5.7997,5.796,5.7666,5.7703,5.796,5.7666,5.7703,5.7997,5.7997,5.7997,5.7997,5.7997,5.7997,5.7997,0.0,0.0,0.0,0.0,0.0,0.0,0.0,0.0,0.0,0.0,0.0,0.0,0.0,0.0,0.0,0.0,0.0,0.0,0.0,0.0,4.0726,4.1482,4.2368,4.4148,4.6843,4.9953,5.1297,5.0801,5.3275,5.4093,5.3281,5.3382,5.2976,5.2198,5.2198,5.1792,5.1082,5.0304,4.9957,4.9919,4.9976,5.0823,5.1982,5.2017,0.0,0.0,0.0,0.0,0.0,0.0,0.0,0.0,5.3167,5.3203,5.3314,5.4069,5.4289,5.462,5.6161,5.6161,5.6455,5.9612,6.1227,6.2842,6.5925,6.8348,7.0183,7.0844,6.9339,6.8311,6.9743,6.688,6.4787,6.6256,6.5778,6.5191,6.5191,6.442,6.387,6.387,6.2438,6.1447,6.1374,6.0052,5.9148,5.9074,5.84,5.7997,5.7997,5.7997,5.7997,5.7997,5.7997,5.7997,5.7997,5.7997,5.7997,5.7997,5.7923,5.7886,5.7886,5.796,5.796,5.785,5.7042,5.7116,5.7703,5.7005,5.7116,5.7776,5.7776,5.7776,5.7776,5.7776,5.7813,5.7886,0.0,0.0,0.0,0.0,0.0,0.0,0.0,0.0,0.0,0.0,0.0,0.0,0.0,0.0,0.0,0.0,0.0,0.0,0.0,0.0,4.0935,4.2141,4.5035,4.6722,4.6905,5.0123,5.151,5.0872,5.2806,5.3044,5.1725,5.23,5.2164,5.1454,5.1454,5.1048,5.027,4.956,4.9212,4.9256,4.9809,5.0527,5.1297,5.1203,5.2009,0.0,0.0,0.0,0.0,0.0,0.0,0.0,5.3004,5.3203,5.3203,5.3408,5.3482,5.3665,5.4656,5.5721,5.7152,5.9758,6.2952,6.5815,6.7136,6.8311,6.9045,6.8568,6.9082,6.9486,6.9229,6.743,6.6109,6.6439,6.5301,6.4347,6.4347,6.3062,6.2144,6.2144,6.1263,6.0419,5.9795,5.9404,5.8927,5.8327,5.8107,5.7997,5.7997,5.7997,5.7997,5.7997,5.7997,5.7997,5.7997,5.7997,5.7997,5.7997,5.7373,5.7079,5.7079,5.7703,5.7666,5.7005,5.6198,5.5941,5.6088,5.5904,5.5941,5.6147,5.6147,5.6147,5.6147,5.6147,5.6528,5.7079,0.0,0.0,0.0,0.0,0.0,0.0,0.0,0.0,0.0,0.0,0.0,0.0,0.0,0.0,0.0,0.0,0.0,0.0,0.0,0.0,4.1377,4.351,4.6004,4.7644,4.8285,5.0301,5.1078,5.0493,5.1427,5.1826,5.1758,5.2131,5.2097,5.1725,5.1725,5.1319,5.0574,4.983,4.9323,4.9015,4.9372,4.974,5.0066,5.0311,5.0888,5.1493,5.1014,0.0,0.0,0.0,0.0,0.0,0.0,0.0,5.2197,5.2947,5.2931,5.3041,5.5023,5.6161,5.7666,6.1263,6.4347,6.6696,6.7504,6.8311,6.8678,6.7871,6.8678,6.9412,6.8972,6.7577,6.6366,6.5999,6.4897,6.3796,6.3025,6.2144,6.1447,6.108,6.0309,5.9685,5.9221,5.8877,5.8437,5.8033,5.7997,5.7997,5.7997,5.7997,5.7813,5.7446,5.7446,5.7226,5.6859,5.6859,5.6859,5.6859,5.6418,5.6235,5.6235,5.6638,5.6602,5.6161,5.5354,5.5244,5.5596,5.517,5.5244,5.5596,5.5596,5.5831,5.6161,5.6161,5.6675,5.7373,0.0,0.0,0.0,0.0,0.0,0.0,0.0,0.0,0.0,0.0,0.0,0.0,0.0,0.0,0.0,0.0,0.0,0.0,0.0,0.0,0.0,4.5173,4.6611,4.8137,4.9747,5.0514,5.0659,5.027,5.0135,5.0845,5.23,5.2164,5.2198,5.23,5.2164,5.1792,5.115,5.027,4.956,4.9018,4.9018,4.8958,4.8938,4.9337,4.9648,4.9842,5.0112,5.0391,5.0582,5.0582,0.0,0.0,0.0,0.0,5.0875,5.2344,5.2307,5.238,5.5207,5.6602,5.829,6.2768,6.5081,6.6476,6.7136,6.7907,6.8274,6.743,6.8164,6.8862,6.8715,6.7504,6.6256,6.5448,6.4604,6.3503,6.1814,6.1484,6.108,6.0309,5.9501,5.8964,5.8964,5.84,5.7997,5.7997,5.7997,5.7923,5.7813,5.7776,5.7409,5.6638,5.6602,5.6271,5.5633,5.5596,5.5596,5.5596,5.5486,5.5317,5.517,5.517,5.5244,5.5354,5.4546,5.4583,5.5133,5.4473,5.4583,5.517,5.517,5.5574,5.6198,5.6345,5.6895,5.7593,0.0,0.0,0.0,0.0,0.0,0.0,0.0,0.0,0.0,0.0,0.0,0.0,0.0,0.0,0.0,0.0,0.0,0.0,0.0,0.0,0.0,4.678,4.8447,4.9433,4.9712,5.066,5.1121,5.1082,5.0405,5.0845,5.23,5.1657,5.1691,5.2266,5.1657,5.1286,5.1083,4.9729,4.9086,4.9018,4.9018,4.8958,4.8848,4.8244,4.8756,4.9631,4.8323,4.866,4.9757,4.9757,4.9757,0.0,0.0,0.0,4.9941,5.0839,5.1059,5.1206,5.2307,5.5684,5.9515,6.2291,6.4237,6.5485,6.5595,6.6256,6.6586,6.5778,6.7393,6.8678,6.7981,6.71,6.6256,6.5448,6.4604,6.3503,6.1814,6.1006,6.0272,5.9441,5.8657,5.8143,5.8143,5.807,5.7997,5.7997,5.7997,5.7703,5.7005,5.6969,5.6602,5.5794,5.5757,5.5684,5.5596,5.5596,5.5596,5.5574,5.4876,5.4216,5.3518,5.3518,5.3922,5.4509,5.3702,5.3445,5.3518,5.3387,5.3445,5.3518,5.3518,5.3592,5.3775,5.4473,5.5244,5.6014,0.0,0.0,0.0,0.0,0.0,0.0,0.0,0.0,0.0,0.0,0.0,0.0,0.0,0.0,0.0,4.0457,0.0,0.0,0.0,0.0,0.0,4.729,4.8126,4.8961,4.9892,5.0382,5.0371,4.9965,4.9627,5.0236,5.1691,5.1792,5.2232,5.2909,5.1758,5.1185,5.1083,4.9627,4.9018,4.8951,4.8545,4.8112,4.7672,4.7244,4.7212,4.7393,4.7419,4.7808,4.8441,4.8759,4.8857,4.893,4.9297,0.0,0.0,0.0,5.0105,5.0692,5.3319,5.5904,5.8634,6.1973,6.333,6.4163,6.5081,6.5925,6.6256,6.5485,6.688,6.7981,6.7173,6.6733,6.6256,6.5448,6.4237,6.2805,6.1153,6.0236,5.9428,5.8621,5.8217,5.7997,5.7997,5.7997,5.7997,5.7997,5.7593,5.7189,5.6822,5.6381,5.5757,5.495,5.4913,5.4693,5.4252,5.4252,5.4252,5.4252,5.3922,5.3555,5.3203,5.3203,5.3408,5.3702,5.3371,5.3203,5.3203,5.3203,5.3203,5.3203,5.3203,5.3739,5.4583,5.495,5.5868,5.7005,0.0,0.0,0.0,0.0,0.0,0.0,0.0,0.0,0.0,0.0,0.0,0.0,0.0,0.0,0.0,0.0,3.9798,0.0,0.0,0.0,0.0,4.7271,4.7568,4.8256,4.9526,4.9729,4.956,4.9018,4.9018,4.9763,5.1185,5.1758,5.257,5.345,5.23,5.1589,5.115,4.983,4.9187,4.8951,4.8206,4.7361,0.0,0.0,4.6028,4.5622,4.6589,4.7146,4.747,4.7935,4.8153,4.8306,4.8306,4.8306,0.0,0.0,0.0,5.0105,5.3959,5.5427,5.6822,6.0639,6.1716,6.2328,6.398,6.5154,6.5668,6.4824,6.6109,6.7063,6.6072,6.6219,6.6182,6.5154,6.3759,6.2254,6.0639,5.9698,5.8891,5.8107,5.7997,5.7997,5.7997,5.7997,5.7997,5.7997,5.7262,5.6712,5.6528,5.5721,5.4913,5.4106,5.4106,5.3812,5.3203,5.3203,5.3203,5.3203,5.3203,5.3203,5.3203,5.3203,5.3203,5.3203,5.3203,5.3203,5.3203,5.3203,5.3203,5.3203,5.3203,5.3922,5.5023,5.5427,5.6345,5.7446,0.0,0.0,0.0,0.0,0.0,0.0,0.0,0.0,0.0,0.0,0.0,0.0,4.241,4.1205,4.0427,4.0397,3.9798,4.044,4.2875,4.3843,0.0,4.6764,4.7537,0.0,4.8007,4.8714,4.9052,4.9018,4.9018,4.9763,5.1185,5.1251,5.2063,5.3518,5.3416,5.257,5.1151,0.0,0.0,0.0,0.0,0.0,0.0,0.0,4.5637,4.5494,4.5571,4.6377,4.7406,4.7428,4.7818,4.8306,4.8306,4.8306,4.8306,0.0,0.0,0.0,5.2417,5.3371,5.4157,5.7446,5.8841,5.9808,6.141,6.3062,6.398,6.3135,6.4861,6.6072,6.4494,6.5448,6.5999,6.442,6.3392,6.2254,6.0639,5.9698,5.8891,5.8107,5.7997,5.7997,5.7997,5.7997,5.7997,5.7997,5.7262,5.6455,5.5684,5.4913,5.4106,5.3277,5.324,5.3261,5.3203,5.3203,5.3203,5.3203,5.3203,5.3203,5.3203,5.3203,5.3203,5.3203,5.3203,5.3203,5.3203,5.3203,5.3203,5.3203,5.3203,5.324,5.3518,5.5023,5.5669,5.5941,0.0,0.0,0.0,0.0,0.0,0.0,0.0,0.0,0.0,0.0,0.0,0.0,0.0,4.1602,4.0846,4.0427,4.1217,4.2341,4.3677,4.5131,0.0,4.7466,4.7736,4.8108,4.8612,4.8883,4.9018,4.9018,4.9018,4.9526,5.0507,5.1454,5.1961,5.2029,5.2029,5.1725,5.115,4.9898,0.0,0.0,0.0,0.0,0.0,0.0,4.4958,4.4988,4.5372,4.58,4.6305,4.711,4.7533,4.7704,4.7567,4.7516,4.7516,4.7516,4.7516,4.814,5.0912,5.1683,5.2417,5.5647,5.7446,5.8731,5.9832,6.1741,6.3025,6.2218,6.4254,6.5703,6.4072,6.4439,6.4751,6.42,6.2511,6.108,6.0493,5.9281,5.8327,5.8033,5.7997,5.7997,5.7997,5.7997,5.7997,5.7997,5.6785,5.5904,5.5611,5.4363,5.3518,5.3203,5.3203,5.3203,5.3203,5.3203,5.3203,5.3203,5.3203,5.3203,5.3203,5.3203,5.3203,5.3203,5.3203,5.3203,5.3203,5.3203,5.3203,5.3203,5.3203,5.3518,5.4106,5.5207,5.5941,5.6528,0.0,0.0,0.0,0.0,0.0,0.0,0.0,0.0,0.0,4.4047,0.0,0.0,0.0,0.0,4.1565,4.1243,4.2545,4.3747,4.4527,4.5963,4.7022,4.753,4.777,4.8108,4.8612,4.8883,4.9018,4.9018,4.9018,4.939,5.0101,5.1082,5.1454,5.1217,5.0947,5.098,0.0,0.0,4.9458,4.8883,4.7665,4.7022,4.6684,4.5703,4.5359,4.5382,4.5788,4.6079,4.6326,4.6932,4.728,4.7441,4.7268,4.7163,4.7113,4.7113,4.7113,4.759,4.9811,5.0398,5.1169,5.4399,5.5794,5.6895,5.8781,6.0562,6.1808,6.1855,6.3758,6.5122,6.4058,6.4056,6.416,6.3983,6.2113,6.0582,6.0443,5.9024,5.7997,5.7997,5.7997,5.7997,5.7997,5.7776,5.7593,5.7593,5.6088,5.5207,5.5207,5.3922,5.3203,5.3203,5.3203,5.3203,5.3203,5.3203,5.3203,5.3203,5.3203,5.3203,5.3203,5.3203,5.3203,5.3203,5.3203,5.3203,5.3203,5.3203,5.3203,5.3203,5.3203,5.3555,5.4142,5.5207,5.5941,5.6565,0.0,0.0,0.0,0.0,0.0,0.0,0.0,0.0,0.0,4.5304,0.0,0.0,0.0,0.0,0.0,4.2895,4.368,4.4591,4.5496,4.6368,4.6853,4.6853,0.0,0.0,0.0,4.8646,4.9018,4.9018,4.9018,4.9357,5.0067,5.0067,5.0473,5.115,5.0439,5.0507,5.115,0.0,5.0304,4.8951,4.8206,4.7496,4.6819,4.6819,4.6786,4.6786,4.6786,4.7182,4.7561,4.6888,4.7054,4.7558,4.7405,0.0,0.0,0.0,0.0,0.0,0.0,0.0,0.0,5.3482,5.3702,5.4216,5.8143,5.9464,6.0278,6.1959,6.3323,6.4257,6.4351,6.4426,6.4255,6.3723,6.2295,6.1001,6.0525,5.9011,5.7997,5.802,5.802,5.7997,5.7997,5.7262,5.6822,5.6822,5.5317,5.4399,5.4436,5.3665,5.3203,5.3203,5.3203,5.3203,5.3203,5.3167,5.3167,5.3167,5.313,5.313,5.3167,5.3167,5.3167,5.3203,5.3203,5.3203,5.3203,5.3203,5.3203,5.3203,5.3203,5.3203,5.3408,5.4987,5.5596,5.5831,0.0,0.0,0.0,0.0,0.0,0.0,4.6339,4.613,4.5873,0.0,0.0,0.0,4.3678,4.3526,4.3998,4.5246,4.6181,4.6815,4.7012,4.791,4.8376,4.8376,4.8578,4.8714,4.8714,4.8917,4.9018,4.9018,4.9018,4.912,4.9323,4.983,5.0202,0.0,5.0744,5.0439,4.9627,4.9627,0.0,4.8951,4.8206,4.78,4.7564,4.6989,4.6786,4.6786,4.6786,4.6932,4.7062,4.732,4.7133,4.6825,0.0,0.0,0.0,0.0,0.0,0.0,4.8379,0.0,0.0,0.0,0.0,0.0,5.4885,5.6518,5.8126,5.9816,6.1719,6.3253,6.384,6.4795,6.5329,6.4765,6.2728,6.1276,6.1462,5.9477,5.8119,5.8482,5.8194,5.7997,5.7997,5.7262,5.7042,5.7629,5.5647,5.4656,5.5244,5.3959,5.3203,5.3203,5.3203,5.3203,5.3203,5.2637,5.2344,5.2307,5.1756,5.1756,5.2344,5.2344,5.2637,5.3203,5.3203,5.3203,5.3203,5.3203,5.3203,5.3203,5.3203,5.3203,5.3408,5.4987,5.5596,5.5831,0.0,0.0,0.0,0.0,0.0,0.0,4.7388,4.7711,4.7885,0.0,0.0,0.0,4.5519,4.5628,4.6207,4.7218,4.7799,4.8167,4.8161,4.8671,4.9018,4.9018,4.9018,4.9018,4.9018,4.9018,4.9018,4.9018,4.9018,4.9018,4.9018,4.9424,4.9627,0.0,0.0,0.0,0.0,0.0,4.8815,4.8545,4.8409,4.8376,4.8308,4.7868,4.7699,4.7699,4.7699,4.7699,4.7725,4.7762,4.7238,4.65,0.0,0.0,0.0,0.0,0.0,0.0,0.0,0.0,0.0,0.0,0.0,0.0,5.3212,5.4481,5.5869,5.7901,5.965,6.1228,6.2536,6.3625,6.4257,6.4108,6.2484,6.143,6.1824,6.0299,5.9086,5.9008,5.857,5.8304,5.8304,5.7361,5.6859,5.6969,5.539,5.4473,5.4583,5.3702,5.3203,5.3203,5.3203,5.3041,5.2711,5.2234,5.183,5.1499,5.1022,5.1206,5.1977,5.1977,5.2454,5.3203,5.3203,5.3203,5.3203,5.3203,5.3203,5.3203,5.3203,5.3203,5.3408,5.4987,5.5596,5.5831,0.0,0.0,0.0,4.7624,4.8438,4.9097,4.9097,4.9939,5.0557,0.0,4.9993,4.9363,4.8965,4.8771,4.8777,4.9091,4.9092,4.9127,4.9125,4.912,4.9086,4.9018,4.9018,4.9018,4.9018,4.9018,4.9018,4.9018,4.9018,4.9018,4.9018,4.9018,4.8951,0.0,0.0,0.0,0.0,0.0,4.8511,4.7939,4.8714,4.9018,4.9018,4.9018,4.9018,4.9018,4.9018,4.9018,4.8883,4.8142,4.7392,0.0,0.0,0.0,0.0,0.0,4.6674,0.0,0.0,0.0,0.0,0.0,5.0017,0.0,5.2242,5.2844,5.361,5.5983,5.7246,5.8575,6.0609,6.1389,6.1876,6.2275,6.1811,6.1538,6.1864,6.1138,6.031,5.9534,5.9028,5.8713,5.8713,5.7544,5.6528,5.5904,5.5023,5.4142,5.324,5.3203,5.3203,5.3203,5.3203,5.2821,5.2013,5.1903,5.1463,5.0655,5.0655,5.1096,5.1867,5.194,5.2454,5.3203,5.3203,5.3203,5.3203,5.3203,5.3203,5.3203,5.3203,5.3203,5.3408,5.4987,5.5596,5.5831,0.0,0.0,0.0,4.9615,5.0454,5.0993,5.0993,5.1151,5.1499,5.2076,5.1089,5.0752,5.1991,5.1083,5.0712,5.153,5.1597,5.1123,4.9965,4.9864,4.9627,4.9018,4.9018,4.9018,4.9018,4.9018,4.9018,4.9018,4.9018,4.9018,4.9018,4.9018,4.868,0.0,0.0,0.0,0.0,0.0,4.8007,4.7939,4.8714,4.9018,4.9018,4.9018,4.9018,4.9018,4.9018,4.9018,4.8883,4.8142,4.7789,4.7588,0.0,0.0,0.0,4.7192,0.0,0.0,0.0,0.0,0.0,0.0,4.8901,0.0,4.9705,5.0574,5.1624,5.2802,5.449,5.6269,5.8088,5.9033,5.9772,6.0542,6.1077,6.1569,6.199,6.0684,5.9732,5.9954,5.9212,5.8713,5.8713,5.7544,5.7005,5.7483,5.6198,5.473,5.3277,5.3203,5.3203,5.3203,5.3203,5.2821,5.2013,5.1353,5.0618,4.9831,4.9831,5.0251,5.1059,5.1683,5.2454,5.3203,5.3203,5.3203,5.3203,5.3203,5.3203,5.3203,5.3203,5.3203,5.3408,5.4987,5.5596,5.5831,0.0,0.0,0.0,0.0,5.1107,5.1712,5.1712,5.2155,5.2781,5.3507,5.3313,5.3265,5.373,0.0,0.0,0.0,0.0,0.0,0.0,5.0101,4.9763,4.9052,4.9018,4.9018,4.9018,4.9018,4.9018,4.9018,4.9018,4.9018,4.9018,4.9018,4.8612,0.0,0.0,0.0,0.0,0.0,4.8477,4.8477,4.8849,4.9018,4.9018,4.9018,4.9018,4.9018,4.9018,4.9018,4.8951,4.8578,4.8176,0.0,4.7807,4.7492,4.7149,0.0,4.704,4.6991,0.0,0.0,0.0,4.8203,4.8294,0.0,0.0,4.9599,5.0097,5.097,5.1796,5.2945,5.4799,5.5352,5.5981,5.743,5.8195,5.891,5.974,6.0346,6.0685,6.0481,5.9609,5.9065,5.9065,5.8048,5.7226,5.6822,5.5684,5.4473,5.324,5.3203,5.3203,5.3203,5.3203,5.2821,5.2013,5.1206,5.0398,4.961,4.961,4.9994,5.0839,5.161,5.2454,5.3203,5.3203,5.3203,5.3203,5.3203,5.3203,5.3203,5.3203,5.3203,5.3408,5.4987,5.5596,5.5831,0.0,0.0,0.0,0.0,5.1765,5.244,0.0,0.0,5.3991,5.4702,5.5344,0.0,0.0,0.0,0.0,0.0,0.0,0.0,0.0,5.0236,4.9695,4.8849,4.8917,4.8951,4.8815,4.8951,4.9018,4.9018,4.9018,4.8951,4.8781,4.8781,4.8409,0.0,0.0,0.0,0.0,0.0,0.0,4.9018,4.9018,4.9018,4.9018,4.9018,4.9018,4.9018,4.9018,4.9018,4.9018,4.9018,4.8612,4.8108,4.8108,4.7948,0.0,0.0,0.0,0.0,0.0,0.0,0.0,0.0,0.0,4.7666,0.0,0.0,0.0,4.9286,4.9363,4.9887,5.1797,5.1919,5.229,5.4092,5.4975,5.5756,5.6747,5.9327,6.0942,6.0455,5.9611,5.9078,5.9248,5.8375,5.7152,5.5706,5.484,5.4069,5.3261,5.3203,5.3203,5.3203,5.3203,5.2747,5.1756,5.1279,5.0472,4.9353,4.9684,5.0178,5.0839,5.161,5.2454,5.3203,5.3203,5.3203,5.3203,5.3203,5.3203,5.3203,5.3203,5.3203,5.3408,5.484,5.5464,5.5794,5.174,5.174,0.0,0.0,0.0,0.0,0.0,0.0,0.0,5.548,0.0,0.0,0.0,0.0,0.0,0.0,0.0,0.0,5.2063,5.0811,4.9492,4.8075,4.8646,4.8714,4.8041,4.868,4.9018,4.9018,4.9018,4.868,4.8007,0.0,0.0,0.0,4.6346,0.0,0.0,0.0,4.78,4.9018,4.9018,4.9018,4.9018,4.9018,4.9018,4.9018,4.9018,4.9018,4.9018,0.0,4.8951,4.8883,0.0,4.8406,4.7886,4.7785,0.0,0.0,0.0,0.0,0.0,0.0,4.7653,0.0,4.5973,0.0,4.6695,4.6675,0.0,4.8642,5.0184,0.0,0.0,5.167,5.3104,5.4146,5.4312,5.6191,5.7954,5.8897,5.8244,5.7992,5.8701,5.7639,5.6565,5.5647,5.484,5.4069,5.3261,5.3203,5.3203,5.3203,5.3203,5.2491,5.0949,5.1536,5.0692,4.8489,4.9958,5.0729,5.0839,5.161,5.2454,5.3203,5.3203,5.3203,5.3203,5.3203,5.3203,5.3203,5.3203,5.3203,5.3314,5.4216,5.4987,5.5721,0.0,0.0,0.0,0.0,0.0,0.0,0.0,0.0,0.0,0.0,0.0,0.0,5.6393,5.6055,0.0,0.0,0.0,5.3078,5.1758,5.1082,0.0,4.8612,4.8849,4.8849,4.8545,4.8849,4.9018,4.9018,4.9018,4.8612,0.0,0.0,0.0,0.0,4.7361,4.7733,4.7906,4.8037,4.8443,4.9018,4.9018,4.9018,0.0,4.9018,4.9018,4.9018,4.9018,4.9018,4.9018,0.0,4.9018,0.0,0.0,0.0,0.0,0.0,0.0,0.0,0.0,0.0,0.0,0.0,0.0,0.0,4.6731,0.0,4.6506,0.0,0.0,0.0,0.0,0.0,0.0,0.0,5.171,5.2862,5.3125,5.4093,5.5696,5.8154,5.7488,5.6826,5.6906,5.7273,5.6785,5.5023,5.5023,5.4546,5.3298,5.3203,5.3203,5.3203,5.2747,5.2197,5.1499,5.0912,5.0088,4.9003,4.9738,5.0362,5.0839,5.161,5.2454,5.3203,5.3203,5.3203,5.3203,5.3203,5.3203,5.3203,5.3203,5.3203,5.3298,5.4106,5.4913,5.5721,0.0,0.0,0.0,0.0,0.0,0.0,5.3518,5.4431,5.5243,5.5683,5.663,5.7171,5.6833,5.6799,5.6359,0.0,5.4634,5.3585,5.1961,5.1251,5.0236,4.8781,4.8883,4.8917,4.8714,4.8917,4.9018,4.9018,4.9018,4.8612,0.0,0.0,0.0,0.0,4.8264,4.8605,4.8507,4.8636,4.8815,4.9018,4.9018,4.9018,4.9018,4.9018,4.9018,4.9018,4.9018,4.9018,4.9018,4.9018,4.9018,0.0,4.9018,4.9018,0.0,0.0,0.0,0.0,4.7564,0.0,0.0,0.0,0.0,0.0,0.0,0.0,0.0,0.0,0.0,0.0,0.0,0.0,0.0,0.0,0.0,5.2083,5.24,5.2884,5.4223,5.698,5.6799,5.6376,5.6279,5.6895,5.6528,5.4546,5.4509,5.4106,5.2931,5.2858,5.2968,5.3167,5.2637,5.2123,5.1683,5.0749,4.9884,4.9187,4.9664,5.0215,5.0839,5.161,5.2454,5.3203,5.3203,5.3203,5.3203,5.3203,5.3203,5.3203,5.3203,5.3203,5.3298,5.4106,5.4913,5.5721,0.0,5.3518,0.0,0.0,0.0,5.3518,5.3518,5.3551,5.4093,5.5478,5.575,5.6055,5.6731,5.6799,5.6799,0.0,5.4769,5.3518,5.345,5.1352,4.9492,4.7973,0.0,4.868,0.0,4.8646,4.9018,4.9018,4.9018,4.8612,0.0,0.0,0.0,0.0,4.8127,4.8619,4.985,4.8473,4.8376,4.9018,4.9018,4.9018,4.9018,0.0,4.9018,4.9018,4.9018,0.0,0.0,4.9018,4.9018,4.9018,4.9018,0.0,0.0,0.0,0.0,0.0,0.0,0.0,0.0,4.7187,0.0,0.0,0.0,0.0,4.5886,0.0,0.0,0.0,0.0,0.0,0.0,0.0,0.0,0.0,0.0,5.2711,5.3691,5.4931,5.6124,5.7101,5.785,5.6565,5.5317,5.4473,5.2968,5.2087,5.205,5.205,5.238,5.3167,5.3167,5.2417,5.0839,5.1573,5.0729,4.8379,4.9994,5.0765,5.0839,5.161,5.2454,5.3203,5.3203,5.3203,5.3203,5.3203,5.3203,5.3203,5.3203,5.3203,5.3298,5.4106,5.4913,5.5721,0.0,0.0,0.0,0.0,5.3518,5.3518,5.3518,5.3923,5.4769,5.6224,5.6867,5.7611,5.8863,5.8558,5.8084,5.7577,5.5953,5.4566,5.3551,5.2266,5.1116,5.0103,5.0306,5.0135,0.0,0.0,0.0,0.0,0.0,0.0,0.0,0.0,0.0,0.0,0.0,4.952,4.9947,4.9014,0.0,0.0,0.0,4.9289,4.9661,0.0,4.9018,4.9018,4.9018,4.9018,4.9018,4.9018,4.9018,4.9018,4.9018,4.9018,4.9018,4.9018,4.9018,4.9018,0.0,4.9018,4.8781,4.7767,0.0,0.0,0.0,0.0,0.0,0.0,0.0,0.0,0.0,0.0,0.0,0.0,0.0,0.0,0.0,5.2234,5.2737,5.3695,5.5095,5.5684,5.4913,5.528,5.4803,5.2931,5.2307,5.1756,5.1242,5.172,5.2123,5.2417,5.2417,5.1903,5.0802,5.0545,4.9701,4.8306,4.9444,5.0288,5.0839,5.161,5.2454,5.3203,5.3203,5.3203,5.3203,5.3203,5.3203,5.3203,5.3203,5.3203,5.3203,5.3518,5.4436,5.5816,5.3518,0.0,0.0,0.0,5.3518,5.3518,5.3518,5.4363,5.5412,5.663,5.7679,5.866,5.9607,5.9302,5.8693,5.7949,5.6562,5.5209,5.3957,5.2875,5.1961,5.1219,5.1185,5.0845,0.0,0.0,0.0,0.0,0.0,5.0063,0.0,0.0,0.0,0.0,0.0,5.039,5.0342,4.968,4.9255,0.0,0.0,4.9661,0.0,0.0,4.939,4.9357,4.9086,4.9018,4.9018,4.9018,4.9018,4.9018,4.9018,4.8815,4.8612,4.8612,4.8409,4.8206,4.8206,4.8409,4.8376,4.7394,4.6955,0.0,4.5872,0.0,4.6287,0.0,0.0,0.0,0.0,0.0,0.0,0.0,0.0,0.0,0.0,5.1756,5.1867,5.2674,5.3922,5.4546,5.4106,5.473,5.4289,5.216,5.172,5.1206,5.0398,5.1132,5.1683,5.1977,5.227,5.1903,5.0802,5.0545,4.9884,4.8783,4.9904,5.0749,5.1242,5.205,5.2711,5.3203,5.3203,5.3203,5.3203,5.3203,5.3203,5.3203,5.3203,5.3203,5.3203,5.3518,5.4656,5.6198,5.3518,5.3518,5.3518,5.3518,5.3518,5.3518,5.3518,5.4804,5.6022,5.6765,5.8155,5.9069,5.9133,5.9066,5.8727,5.8017,5.6562,5.5412,5.4702,5.3213,5.2063,0.0,5.1319,5.098,5.0202,0.0,0.0,0.0,0.0,0.0,0.0,0.0,0.0,0.0,5.1112,0.0,5.1043,5.0488,4.9788,4.9215,4.9927,5.0232,5.0202,5.0168,5.0135,5.0033,4.9289,4.9018,4.9018,4.9018,4.9018,4.9018,4.9018,4.8545,4.7939,4.7939,4.7428,4.6853,4.6887,4.7394,4.7567,4.621,4.6346,4.665,0.0,0.0,4.7056,0.0,0.0,0.0,0.0,0.0,0.0,0.0,0.0,0.0,0.0,0.0,5.1059,5.183,5.2527,5.3628,5.5317,5.473,5.3592,5.205,5.1169,5.0325,4.9574,5.0362,5.1206,5.1903,5.2747,5.2454,5.0875,5.161,5.1206,4.9684,5.1263,5.1977,5.2013,5.2821,5.3203,5.3203,5.3203,5.3203,5.3203,5.3203,5.3203,5.3203,5.3203,5.3203,5.3371,5.4179,5.5427,5.6859,5.3518,5.3518,5.3518,5.3518,5.3518,5.3518,5.3518,5.531,5.6882,5.7516,5.9041,6.0211,6.0664,5.9708,5.893,5.8727,5.69,5.5649,5.5446,0.0,0.0,5.2942,5.2909,5.2536,5.1758,5.2501,0.0,5.1804,0.0,0.0,5.1738,0.0,0.0,0.0,0.0,5.1086,5.1157,5.156,5.1644,5.1563,5.1735,5.1785,5.1691,0.0,5.0913,5.0744,4.9458,4.9018,4.9018,4.9018,4.9018,4.9018,4.9018,4.8883,4.8714,4.8714,4.8206,4.7767,4.8308,4.8173,4.7939,4.8105,4.7902,4.7597,4.7365,0.0,0.0,0.0,0.0,0.0,0.0,0.0,0.0,0.0,0.0,0.0,0.0,0.0,0.0,5.1022,5.0178,5.0692,5.3555,5.2564,5.1536,5.1132,4.9774,4.8857,4.8636,5.0582,5.1499,5.1132,5.2491,5.2711,5.1683,5.1903,5.1499,5.0508,5.1499,5.1977,5.2013,5.2821,5.3203,5.3203,5.3203,5.3203,5.3203,5.3203,5.3203,5.3203,5.3203,5.3592,5.4179,5.4987,5.5537,5.6088,5.3518,5.3518,5.3684,5.4359,5.451,5.449,5.449,5.6195,5.7691,5.8354,5.9563,6.0324,6.0337,5.9525,5.8761,5.8084,5.6594,5.5581,5.5243,0.0,0.0,5.3518,5.3518,5.3112,5.2334,5.3066,0.0,5.2899,0.0,0.0,5.2803,0.0,0.0,0.0,0.0,5.1544,5.1565,5.1749,5.2206,5.2809,5.2475,5.2532,0.0,5.2369,5.1822,5.1138,5.0313,4.9593,4.9018,4.9018,4.9018,4.9018,4.9018,4.8781,4.8545,4.8545,4.8003,4.753,4.7936,4.7733,4.753,4.7936,4.7733,4.7496,4.7804,4.7906,4.7973,0.0,4.8714,4.8772,0.0,0.0,0.0,0.0,0.0,0.0,0.0,0.0,0.0,0.0,5.0068,5.0655,5.2491,5.0875,4.9884,5.0251,4.937,4.8526,4.781,5.0472,5.1463,5.0288,5.2527,5.3188,5.2013,5.2711,5.2454,5.1316,5.2123,5.2527,5.2527,5.3004,5.3203,5.3203,5.3203,5.3203,5.3203,5.3203,5.3408,5.3775,5.4106,5.4509,5.5023,5.5831,5.6124,5.6308,5.3618,5.3717,5.4203,5.5466,5.5894,5.6125,5.623,5.7515,5.8686,5.9269,6.0048,6.025,5.9489,5.9182,5.8443,5.7079,5.6196,5.5381,5.4668,5.3923,5.3518,5.3518,5.3518,5.3179,5.2469,5.3172,5.3567,0.0,0.0,0.0,0.0,0.0,0.0,0.0,0.0,0.0,0.0,5.1728,5.2323,5.3644,5.3012,5.3172,5.3783,5.3783,5.2874,5.1552,5.1466,5.0449,4.9107,4.9015,4.9107,4.9256,4.9168,4.8757,4.8303,4.8303,4.7733,4.7097,4.717,4.7077,4.6955,4.7056,4.709,4.7259,4.7872,4.8041,4.824,4.8883,4.9018,4.8727,4.7864,0.0,0.0,0.0,0.0,0.0,0.0,0.0,0.0,0.0,0.0,0.0,5.1646,4.9848,4.9003,4.9867,4.9684,4.8893,4.748,5.0215,5.1206,4.9794,5.2564,5.3518,5.2307,5.3592,5.3592,5.2307,5.2931,5.3203,5.3203,5.3203,5.3203,5.3203,5.3203,5.324,5.3371,5.3371,5.3849,5.462,5.5427,5.5757,5.5831,5.6675,5.6969,5.7079,5.4296,5.4909,5.5408,5.5667,5.6819,5.79,5.8573,6.0012,6.0841,6.0276,6.1456,6.2015,6.1164,5.9921,5.88,5.7871,5.6495,5.5408,5.4669,0.0,0.0,5.3518,5.3518,5.345,5.3281,5.3994,5.4356,0.0,0.0,0.0,0.0,0.0,0.0,0.0,0.0,0.0,5.3939,5.3314,0.0,5.5284,5.515,5.5197,5.5312,5.5312,5.436,5.2964,5.2405,5.1187,4.9751,4.9199,4.9751,5.0608,5.0004,5.0154,5.054,5.054,4.9575,4.8653,4.928,4.8582,4.7868,4.8477,4.8612,4.8646,4.8781,4.8815,4.8849,4.8984,4.9018,4.8778,4.8018,0.0,0.0,0.0,0.0,0.0,0.0,0.0,0.0,0.0,0.0,4.9224,0.0,5.0215,5.0692,5.1499,5.0345,4.9463,4.917,5.0325,5.0875,5.0618,5.1756,5.2931,5.3959,5.3592,5.3592,5.3959,5.3445,5.3203,5.3203,5.3203,5.3203,5.3203,5.3203,5.3592,5.4179,5.4179,5.4656,5.5464,5.6271,5.6602,5.6712,5.7483,5.7776,5.7813,5.5645,5.5724,0.0,5.7303,5.8166,5.9128,6.0326,6.1506,6.1957,6.1145,6.1315,6.14,6.099,6.0255,5.9329,5.8184,5.7351,5.6462,5.5258,5.4845,5.4485,5.4074,5.4074,5.3881,5.3518,5.3791,5.4346,5.5129,0.0,0.0,0.0,0.0,0.0,0.0,0.0,5.3697,0.0,0.0,5.502,5.5682,5.5684,5.5948,5.6313,5.6313,5.5625,5.4551,5.3816,5.2759,5.1511,4.9999,5.023,5.1034,5.0689,5.0823,5.1086,5.1086,5.0603,5.0126,5.0476,4.9811,4.9041,4.9433,4.9213,4.8953,4.8975,4.9018,4.9018,4.9018,4.9018,4.8991,4.8957,4.8821,0.0,0.0,0.0,0.0,0.0,0.0,0.0,0.0,0.0,0.0,0.0,0.0,5.0435,4.9517,4.9554,4.906,4.7774,5.0068,5.1022,5.0178,5.1756,5.3004,5.3775,5.3812,5.3812,5.3775,5.3408,5.3203,5.3203,5.3203,5.3203,5.3203,5.3203,5.3665,5.4473,5.5317,5.5868,5.6308,5.7116,5.7409,5.7483,5.785,5.7997,5.7997,5.6783,5.6644,5.7011,5.8871,5.9527,6.0176,6.141,6.2291,6.2585,6.1924,6.1298,6.0919,6.0919,6.0611,5.9857,5.8465,5.8045,5.7242,5.5794,5.5724,5.5437,5.4878,5.4848,5.4575,5.3979,5.3929,5.4478,0.0,0.0,0.0,0.0,0.0,0.0,0.0,0.0,0.0,0.0,5.5342,5.5797,5.5944,5.5964,5.6421,5.7116,5.7116,5.667,5.5897,5.5135,5.44,5.346,5.1423,5.1096,5.153,5.1368,5.1419,5.1555,5.1555,5.1419,5.1317,5.1317,5.0789,5.024,5.0223,4.9799,4.9382,4.9443,4.9466,4.9466,4.9466,4.9466,4.9568,5.0044,5.0091,0.0,0.0,0.0,0.0,0.0,0.0,0.0,0.0,0.0,0.0,4.9958,5.0325,4.9591,4.7259,4.8636,4.8839,4.7021,4.9664,5.0802,4.9904,5.1867,5.3115,5.3445,5.3922,5.3922,5.3445,5.3277,5.3203,5.3203,5.3203,5.3277,5.3482,5.3482,5.4032,5.5023,5.6455,5.7079,5.7116,5.774,5.7997,5.7997,5.7997,5.7997,5.7997,5.6887,5.7958,5.8956,5.9161,6.0408,6.1435,6.1594,6.2291,6.2743,6.267,6.262,6.2595,6.2595,6.1299,6.0074,5.9258,5.7844,5.6626,5.5752,5.5724,5.5695,5.561,5.561,5.5581,5.5495,5.551,5.5549,0.0,0.0,5.5136,0.0,0.0,0.0,0.0,0.0,5.4399,5.4466,5.5342,5.6104,5.6722,5.6765,5.7216,5.7904,5.7904,5.7391,5.6626,5.5922,5.5558,5.5162,5.3544,5.302,5.2893,5.2242,5.2486,5.298,5.298,5.2531,5.2018,5.2018,5.1533,5.1015,5.1008,5.0972,5.0911,5.0903,5.0903,5.0903,5.0903,5.0903,5.0864,5.0808,5.078,5.08,0.0,0.0,0.0,0.0,0.0,4.9994,4.8489,0.0,0.0,4.7663,4.882,4.8967,4.7223,4.8636,4.9831,5.0325,4.926,4.926,5.0655,5.161,5.2821,5.4289,5.3665,5.3665,5.4289,5.3555,5.3203,5.3203,5.3203,5.3592,5.4289,5.4289,5.517,5.6638,5.7519,5.7886,5.7886,5.796,5.7997,5.7997,5.7997,5.7997,5.7997,5.8896,5.9493,5.9942,5.9942,6.0456,6.1043,6.152,6.1447,6.152,6.2034,6.2071,6.1887,6.141,6.0786,6.0103,5.9322,5.864,5.7934,5.7141,5.708,5.6902,5.6421,5.6421,5.6204,5.5724,5.5724,5.5944,0.0,0.0,0.0,0.0,0.0,0.0,5.4693,5.5464,5.5831,5.5882,5.6729,5.7251,5.7533,5.7533,5.7726,5.7997,5.7997,5.7483,5.6703,5.5948,5.5359,5.4708,5.3624,5.3544,5.3769,5.3018,5.2959,5.3203,5.3203,5.298,5.2769,5.2769,5.2554,5.2242,5.1825,5.1692,5.1593,5.1189,5.1086,5.1086,5.1086,5.1419,5.1694,5.1609,5.1978,5.2251,5.2229,0.0,0.0,0.0,0.0,0.0,4.915,0.0,0.0,0.0,4.8012,4.8453,4.9241,4.9958,5.0251,5.0088,4.9884,5.0325,5.1463,5.1353,5.205,5.3665,5.3371,5.3371,5.3702,5.3371,5.3203,5.3203,5.3203,5.3665,5.4436,5.5427,5.6235,5.6859,5.7666,5.7997,5.7997,5.7997,5.7997,5.7997,5.7997,5.7997,5.7997,5.9575,5.9869,6.0052,6.0052,6.0236,6.0676,6.1484,6.1117,6.086,6.119,6.1263,6.1043,6.0456,6.0199,5.9808,5.9258,5.8964,5.8621,5.8033,5.7997,5.7774,5.7252,5.7216,0.0,5.6385,5.6358,5.6659,5.7216,5.6672,0.0,0.0,5.5978,5.5596,5.5633,5.6455,5.6822,5.6859,5.7666,5.7997,5.7997,5.7997,5.7997,5.7997,5.7997,5.7666,5.7079,5.6492,5.5941,5.5354,5.4546,5.4656,5.4876,5.3592,5.3203,5.3203,5.3203,5.3203,5.3203,5.3203,5.3203,5.3082,5.2554,5.2404,5.2312,5.1825,5.1728,5.1728,5.1728,5.2065,5.2404,5.2404,5.2872,5.3203,5.3203,0.0,0.0,0.0,5.1042,0.0,0.0,4.8049,4.7241,4.7883,4.7626,4.8177,4.9921,5.0508,5.0545,4.9978,5.0031,5.0545,5.161,5.1316,5.183,5.3188,5.3203,5.3203,5.3203,5.3445,5.3424,5.3203,5.3702,5.4326,5.517,5.6565,5.7152,5.7189,5.7776,5.7997,5.7997,5.7997,5.7997,5.7997,5.7997,5.7997,5.7997,5.8033,5.8694,5.9184,5.9184,5.9869,6.0676,6.1484,6.1594,6.13,6.0529,6.0419,6.0419,6.0419,5.9685,5.9184,5.9184,5.8474,5.7997,5.7997,5.7997,5.7997,0.0,5.7997,5.7973,5.7973,5.7973,5.7973,5.7997,0.0,0.0,5.6785,5.5978,5.5596,5.5633,5.6455,5.6822,5.6859,5.7666,5.7997,5.7997,5.7997,5.7997,5.7997,5.7997,5.7997,5.796,5.796,5.796,5.7813,5.7042,5.6785,5.6345,5.3937,5.3203,5.3203,5.3203,5.3203,5.3203,5.3203,5.3203,5.3203,5.3203,5.3203,5.3167,5.3203,5.3167,5.3167,5.3167,5.3203,5.3203,5.3203,5.3167,5.3203,5.3203,0.0,0.0,0.0,5.1977,0.0,4.9794,4.9574,4.8893,4.7259,4.781,4.8306,4.8343,4.9848,5.0802,5.0802,4.9224,4.9114,5.0765,5.1573,5.238,5.3167,5.3203,5.3203,5.3203,5.3995,5.3959,5.324,5.484,5.6014,5.6822,5.7629,5.7997,5.7997,5.7997,5.7997,5.7997,5.7997,5.7997,5.7997,5.7997,5.7997,5.7997,5.9538,5.9832,5.9869,5.9294,5.9404,5.9869,6.0676,5.9832,5.9465,6.0309,5.9428,5.8767,5.8767,5.8547,5.84,5.84,5.8143,5.7997,5.7997,5.7997,5.7997,5.7997,5.7997,5.7997,5.7997,5.7997,5.7997,5.7997,5.7997,5.7886,5.7593,5.7373,5.7226,5.7262,5.7483,5.7629,5.7629,5.7886,5.7997,5.7997,5.7997,5.7997,5.7997,5.7997,5.7666,5.7189,5.7189,5.6822,5.6308,5.6051,5.5611,5.5133,5.4913,5.4473,5.3922,5.3371,5.3203,5.3203,5.3203,5.3203,5.3203,5.3203,5.3203,5.3203,5.3203,5.2784,5.2527,5.3115,5.2747,5.2564,5.3093,5.3203,5.3203,5.3203,5.3203,0.0,5.2858,0.0,5.0986,5.0472,4.9407,4.8306,4.7186,4.781,4.8563,4.9114,4.9684,5.0215,5.0765,5.0802,5.1059,5.161,5.1867,5.238,5.3167,5.3203,5.3482,5.4032,5.4289,5.4546,5.4876,5.5941,5.6565,5.6859,5.7666,5.7997,5.7997,5.7997,5.7997,5.7997,5.7997,5.7997,5.7997,5.7997,5.7997,5.7997,5.9391,5.9501,5.9355,5.8841,5.8767,5.9024,5.9832,5.9098,5.8804,5.9832,5.9061,5.8327,5.8033,5.7997,5.7997,5.7997,5.7997,5.7997,5.7997,5.7997,5.7997,5.7997,5.7997,5.7997,5.7997,5.7997,5.7997,5.7997,5.7997,5.7997,5.7997,5.7997,5.7997,5.7997,5.7997,5.7997,5.7997,5.7997,5.7997,5.7997,5.7997,5.7997,5.7997,5.7997,5.7703,5.7262,5.7262,5.6932,5.6492,5.6492,5.6161,5.5794,5.5978,5.5721,5.5097,5.3995,5.3849,5.3959,5.3371,5.3445,5.3592,5.3277,5.3203,5.3203,5.3203,5.2821,5.2601,5.3093,5.2821,5.2601,5.3115,5.3203,5.3203,5.3203,5.3203,5.3203,5.3203,0.0,5.0912,0.0,0.0,4.871,4.8507,4.8967,4.9334,4.9574,5.0161,5.0455,5.0362,5.1096,5.1683,5.1977,5.227,5.2711,5.3203,5.3812,5.4216,5.4399,5.4693,5.5427,5.6492,5.6712,5.6969,5.7299,5.7776,5.7997,5.7997,5.7997,5.7997,5.7997,5.7997,5.7997,5.7997,5.7997,5.7997,5.7997,5.7997,5.7997,5.7997,5.7997,5.7997,5.8253,5.9074,5.9148,5.9148,5.9184,5.9148,5.8817,5.807,5.7997,5.7997,5.7997,5.7997,5.7997,5.7997,5.7997,5.7997,5.7997,5.7997,5.7997,5.7997,5.7997,5.7997,5.7997,5.7997,5.7997,5.7997,5.7997,5.7997,5.7997,5.7997,5.796,5.7923,5.7923,5.7923,5.7923,5.7923,5.796,5.7997,5.7997,5.7997,5.7997,5.7997,5.7997,5.7997,5.7997,5.796,5.7776,5.7042,5.6822,5.6492,5.4876,5.4913,5.517,5.3628,5.3739,5.4142,5.3408,5.3203,5.3203,5.3203,5.3188,5.3151,5.3167,5.3188,5.3151,5.3167,5.3203,5.3203,5.3203,5.3203,5.3167,5.3093,5.183,5.1132,5.183,5.0639,5.0051,5.0729,5.0839,5.0582,4.9831,5.1153,5.1353,4.9941,5.0618,5.1353,5.205,5.2931,5.335,5.335,5.484,5.5244,5.4583,5.5354,5.6528,5.796,5.7226,5.7299,5.7997,5.7997,5.7997,5.7997,5.7997,5.7997,5.7997,5.7997,5.7997,5.7997,5.7997,5.7997,5.7997,5.7997,5.7997,5.7997,5.7997,5.7997,5.8253,5.9074,5.8694,5.851,5.9111,5.8694,5.8217,5.8033,5.7997,5.7997,5.7997,5.7997,5.7997,5.7997,5.7997,5.7997,5.7997,5.7997,5.7997,5.7997,5.7997,5.7997,5.7997,5.7997,5.7997,5.7997,5.7997,5.7997,5.7997,5.7997,5.7666,5.7079,5.7079,5.7079,5.7079,5.7079,5.7446,5.7997,5.7997,5.7997,5.7997,5.7997,5.7997,5.7997,5.7997,5.7593,5.7042,5.6859,5.6822,5.6492,5.4876,5.4509,5.4473,5.3482,5.3314,5.3445,5.324,5.3203,5.3203,5.3203,5.2711,5.2454,5.3057,5.2711,5.2454,5.3115,5.3203,5.3203,5.3203,5.3203,5.3004,5.238,5.194,5.1573,0.0,5.1279,5.1279,5.0839,5.1353,5.1646,0.0,0.0,5.2087,5.2344,5.3115,5.3371,5.2931,5.4289,5.5023,5.5023,5.539,5.5794,5.6235,5.7042,5.7629,5.7997,5.7813,5.7813,5.7997,5.7997,5.7997,5.7997,5.7997,5.7997,5.7997,5.7997,5.7997,5.7997,5.7997,5.7997,5.7997,5.7997,5.7997,5.7997,5.7997,5.7997,5.8143,5.8584,5.829,5.8143,5.8584,5.8253,5.7997,5.7997,5.7997,5.7997,5.7997,5.7997,5.7997,5.7997,5.7997,5.7997,5.7997,5.7997,5.7997,5.7997,5.7997,5.7997,5.7997,5.7997,5.7997,5.7997,5.7997,5.7997,5.7997,5.7997,5.7776,5.7336,5.6969,5.6822,5.6822,5.6822,5.7079,5.7483,5.785,5.7997,5.7997,5.7997,5.7997,5.7997,5.7997,5.7703,5.7336,5.7336,5.7336,5.7042,5.5427,5.5207,5.5244,5.4069,5.3739,5.3665,5.3277,5.3203,5.3203,5.3203,5.2858,5.2674,5.3115,5.2858,5.2674,5.3093,5.3203,5.3203,5.3203,5.2894,5.2637,5.2564,5.1903,5.1573,5.1867,5.194,5.1977,5.1903,5.2307,5.2417,5.2013,5.2344,5.2747,5.3167,5.4326,5.4583,5.3775,5.5317,5.5978,5.5596,5.5941,5.6565,5.7336,5.7776,5.7997,5.7997,5.7997,5.7997,5.7997,5.7997,5.7997,5.7997,5.7997,5.7997,5.7997,5.7997,5.7997,5.7997,5.7997,5.7997,5.7997,5.7997,5.7997,5.7997,5.7997,5.7997,5.7997,5.7997,5.7997,5.7997,5.7997,5.7997,5.7997,5.7997,5.7997,5.7997,5.7997,5.7997,5.7997,5.7997,5.7997,5.7997,5.7997,5.7997,5.7997,5.7997,5.7997,5.7997,5.7997,5.7997,5.7997,5.7997,5.7997,5.7997,5.7997,5.7997,5.7923,5.7776,5.7079,5.6822,5.6822,5.6822,5.6859,5.7079,5.774,5.7923,5.7813,5.796,5.7923,5.7813,5.7813,5.7886,5.796,5.7703,5.7813,5.7666,5.6051,5.6088,5.6271,5.4656,5.4216,5.4069,5.335,5.3203,5.3203,5.3203,5.3203,5.3203,5.3203,5.3203,5.3203,5.3203,5.3203,5.3203,5.3203,5.2637,5.238,5.2931,0.0,5.161,5.2894,5.2527,5.2454,5.3151,5.3314,5.3115,5.2417,5.3115,5.3555,5.3555,5.495,5.5464,5.4766,5.6198,5.6638,5.5978,5.6638,5.7336,5.7997,5.7997,5.7997,5.7997,5.7997,5.7997,5.7997,5.7997,5.7997,5.7997,5.7997,5.7997,5.7997,5.7997,5.7997,5.7997,5.7997,5.7997,5.7997,5.7997,5.7997,5.7997,5.7997,5.7997,5.7997,5.7997,5.7997,5.7997,5.7997,5.7997,5.7997,5.7997,5.7997,5.7997,5.7997,5.7997,5.7997,5.7997,5.7997,5.7997,5.7997,5.7997,5.7997,5.7997,5.7997,5.7997,5.7997,5.7997,5.7997,5.7997,5.7997,5.7997,5.7997,5.7997,5.7629,5.6969,5.6859,5.6822,5.6822,5.6822,5.7226,5.7813,5.796,5.7593,5.7079,5.7776,5.7556,5.7005,5.7005,5.7446,5.774,5.6381,5.6895,5.7666,5.6051,5.5684,5.5427,5.3812,5.3408,5.3371,5.3203,5.3203,5.3203,5.3203,5.3203,5.3203,5.3203,5.3203,5.3203,5.3203,5.3203,5.3203,5.3203,5.3093,5.2821,5.227,0.0,5.2674,5.2234,5.2674,5.3078,5.3188,5.3812,5.4179,5.4032,5.4766,5.5207,5.5207,5.6124,5.6565,5.6455,5.7336,5.774,5.7629,5.774,5.7886,5.7997,5.7997,5.7997,5.7997,5.7997,5.7997,5.7997,5.7997,5.7997,5.7997,5.7997,5.7997,5.7997,5.7997,5.7997,5.7997,5.7997,5.7997,5.7997,5.7923,5.7997,5.7997,5.7997,5.7997,5.7997,5.7997,5.7997,5.7997,5.7997,5.7997,5.7997,5.7997,5.7997,5.7997,5.7997,5.7997,5.7997,5.7997,5.7997,5.7997,5.7997,5.7997,5.7997,5.7997,5.7593,5.7556,5.7997,5.7997,5.7997,5.7997,5.7997,5.7997,5.7997,5.7997,5.7776,5.7373,5.6528,5.6161,5.6161,5.6161,5.6124,5.6161,5.7005,5.7116,5.6859,5.7226,5.7409,5.7446,5.7446,5.7409,5.7299,5.6969,5.7116,5.7226,5.6455,5.5611,5.4693,5.3518,5.3203,5.3203,5.3203,5.3203,5.3203,5.3203,5.3203,5.3203,5.3203,5.3203,5.3203,5.3203,5.3203,5.3314,5.3775,5.3115,5.2747,5.3225,5.2858,5.2564,5.2637,5.2968,5.335,5.3812,5.4179,5.4583,5.4987,5.539,5.5794,5.6235,5.6602,5.7005,5.7446,5.7813,5.7997,5.7997,5.7997,5.7997,5.7997,5.7997,5.7997,5.7997,5.7997,5.7997,5.7997,5.7997,5.7997,5.7997,5.7997,5.7997,5.7997,5.7997,5.7997,5.7997,5.7997,5.7997,5.7997,5.7593,5.7703,5.7703,5.7703,5.7556,5.7446,5.7446,5.7593,5.7703,5.7703,5.7886,5.7997,5.7997,5.7997,5.7997,5.7997,5.7997,5.7997,5.7997,5.7997,5.7997,5.7997,5.7813,5.7703,5.7703,5.6932,5.6822,5.7446,5.7629,5.7703,5.774,5.7923,5.7886,5.774,5.7923,5.7776,5.7373,5.6308,5.5757,5.5596,5.5596,5.5207,5.4803,5.6051,5.6418,5.6308,5.6675,5.7079,5.7483,5.7666,5.7446,5.7152,5.7593,5.7446,5.7042,5.6859,5.5794,5.4509,5.3702,5.3314,5.3203,5.3203,5.3203,5.3203,5.3203,5.3314,5.3482,5.3482,5.3628,5.3775,5.3775,5.3775,5.3922,5.4326,0.0,5.2931,5.3959,5.3041,5.2527,5.3151,5.335,5.3739,5.4326,5.473,5.5207,5.5831,5.6051,5.6418,5.7042,5.7079,5.7373,5.796,5.7997,5.7997,5.7997,5.7997,5.7997,5.7997,5.7997,5.7997,5.7997,5.7997,5.7997,5.7997,5.7997,5.7997,5.7997,5.7997,5.7997,5.7997,5.7997,5.7997,5.7997,5.7997,5.7997,5.7997,5.6895,5.6895,5.6895,5.6895,5.6271,5.5757,5.5757,5.6418,5.6895,5.6895,5.7556,5.7997,5.7997,5.7997,5.7997,5.7997,5.7997,5.7997,5.7997,5.7997,5.7997,5.7997,5.7299,5.6895,5.6895,5.6088,5.5721,5.5757,5.6528,5.6895,5.6895,5.7666,5.7593,5.6932,5.7666,5.7152,5.5816,5.6455,5.6271,5.5596,5.5596,5.5537,5.55,5.5647,5.5207,5.4766,5.6271,5.6345,5.5868,5.6638,5.7336,5.7776,5.7116,5.7373,5.7776,5.7042,5.6198,5.5317,5.4509,5.3775,5.3203,5.3203,5.3203,5.3203,5.3203,5.3775,5.4326,5.4326,5.4913,5.5427,5.5427,5.5427,5.5207,5.4509,0.0,0.0,5.3408,5.3188,5.3151,5.3167,5.3849,5.4326,5.4399,5.5757,5.6638,5.6712,5.7409,5.785,5.7923,5.7923,5.7923,5.7997,5.7997,5.7997,5.7997,5.7997,5.7997,5.7997,5.7997,5.7997,5.7997,5.7997,5.7997,5.7997,5.7997,5.7997,5.7997,5.7997,5.7997,5.7997,5.7997,5.7997,5.7997,5.7997,5.7997,5.7997,5.6712,5.6822,5.6822,5.6822,5.6124,5.5596,5.5596,5.5868,5.6235,5.6748,5.7079,5.7446,5.796,5.7997,5.7997,5.7997,5.7997,5.7997,5.7997,5.7997,5.7776,5.7299,5.6014,5.5537,5.6051,5.528,5.5097,5.5596,5.5904,5.6051,5.6051,5.6345,5.6345,5.6051,5.6381,5.6161,5.5574,5.539,5.5133,5.484,5.484,5.4546,5.4179,5.4656,5.4656,5.4473,5.5097,5.5757,5.6381,5.6712,5.7005,5.7299,5.7483,5.7409,5.7299,5.7483,5.6969,5.6271,5.5978,5.5317,5.4693,5.4693,5.4326,5.4069,5.4583,5.4546,5.4546,5.5023,5.539,5.5596,5.5596,5.5596,5.55,5.517,0.0,5.4289,5.3995,5.3518,5.3408,5.3885,5.4216,5.4803,5.5794,5.6455,5.7005,5.7519,5.7813,5.7997,5.7997,5.7997,5.7997,5.7997,5.7997,5.7997,5.7997,5.7997,5.7997,5.7997,5.7997,5.7997,5.7997,5.7997,5.7997,5.7997,5.7997,5.7997,5.7997,5.7997,5.7997,5.7997,5.7997,5.7997,5.7997,5.7997,5.7997,5.7997,5.5941,5.6051,5.6051,5.6051,5.539,5.484,5.484,5.506,5.5427,5.5978,5.6271,5.6748,5.7556,5.7629,5.7703,5.796,5.7997,5.7997,5.7997,5.7519,5.7116,5.6822,5.55,5.4913,5.5207,5.4693,5.4546,5.484,5.5097,5.5207,5.5207,5.5464,5.5464,5.5207,5.5486,5.5317,5.484,5.4509,5.4252,5.4032,5.4032,5.3702,5.324,5.3812,5.4032,5.4069,5.4326,5.5097,5.6124,5.6638,5.6822,5.6932,5.774,5.7629,5.7299,5.785,5.7593,5.7189,5.7189,5.6602,5.5904,5.5647,5.4987,5.4546,5.5097,5.4987,5.4913,5.5486,5.5978,5.6345,5.6345,5.6124,5.5978,5.5978,5.5097,5.4473,5.473,5.4069,5.3885,5.4693,5.4987,5.5611,5.6712,5.7042,5.7409,5.796,5.7997,5.7997,5.7997,5.7997,5.7997,5.7997,5.7997,5.7997,5.7997,5.7997,5.7997,5.7997,5.7997,5.7997,5.7997,5.7997,5.7997,5.7997,5.7997,5.7997,5.7997,5.7997,5.7997,5.7997,5.7997,5.7997,5.7997,5.7997,5.7997,5.7997,5.4399,5.4399,5.4399,5.4399,5.3739,5.3203,5.3203,5.3885,5.4399,5.4399,5.5097,5.5904,5.6712,5.6822,5.7116,5.7923,5.7997,5.7997,5.796,5.6455,5.5941,5.6748,5.6014,5.5207,5.4399,5.4399,5.3995,5.3203,5.3995,5.4399,5.4399,5.5207,5.5133,5.4436,5.5207,5.4693,5.324,5.4069,5.3922,5.3203,5.3203,5.3203,5.3203,5.3203,5.3203,5.3298,5.4106,5.4399,5.4656,5.6271,5.6785,5.6932,5.774,5.7997,5.7997,5.7997,5.7997,5.7997,5.7997,5.7409,5.6638,5.5794,5.4987,5.4399,5.4436,5.5023,5.5633,5.5611,5.6895,5.7997,5.7997,5.7336,5.6822,5.6822,5.5464,5.4693,5.5486,5.4913,5.4693,5.55,5.6308,5.6822,5.6822,5.7519,5.7997,5.7997,5.7997,5.7997,5.7997,5.7997,5.7997,5.7997,5.7997,5.7997,5.7997,5.7997,5.7997,5.7997,5.7997,5.7997,5.7997,5.7997,5.7997,5.7997,5.7997,5.7997,5.7997,5.7997,5.7997,5.7997,5.7997,5.7997,5.7997,5.7997,5.7997,5.7997,5.4399,5.4399,5.4399,5.4399,5.3739,5.3203,5.3203,5.3387,5.3775,5.4326,5.462,5.506,5.5868,5.6455,5.6895,5.7152,5.7152,5.6932,5.6345,5.5317,5.4876,5.5097,5.4876,5.4363,5.3592,5.4106,5.3995,5.3203,5.3445,5.3555,5.3555,5.3812,5.3812,5.3592,5.3812,5.3665,5.3203,5.3482,5.3445,5.3203,5.3203,5.3203,5.3203,5.3203,5.3203,5.3203,5.3482,5.4289,5.5207,5.5133,5.5868,5.6859,5.7079,5.7152,5.7262,5.7813,5.7997,5.7997,5.7997,5.7813,5.7593,5.7336,5.6235,5.5537,5.6675,5.6675,5.6602,5.7152,5.7666,5.7997,5.7997,5.7813,5.7446,5.6895,5.6418,5.5978,5.5669,5.539,5.5537,5.6345,5.6638,5.7042,5.7593,5.785,5.7997,5.7997,5.7997,5.7997,5.7997,5.7997,5.7997,5.7997,5.7997,5.7997,5.7997,5.7997,5.7997,5.7997,5.7997,5.7997,5.7997,5.7997,5.7997,5.7997,5.7997,5.7997,5.7997,5.7997,5.7997,5.7997,5.7997,5.7997,5.7997,5.7997,5.7997,5.7997,5.3922,5.3922,5.3922,5.3922,5.3518,5.3203,5.3203,5.3203,5.335,5.3849,5.3922,5.4216,5.5023,5.5831,5.6455,5.6785,5.6822,5.6455,5.5669,5.5133,5.4876,5.4876,5.4876,5.4363,5.3203,5.3995,5.3995,5.3203,5.3203,5.3203,5.3203,5.3203,5.3203,5.3203,5.3203,5.3203,5.3203,5.3203,5.3203,5.3203,5.3203,5.3203,5.3203,5.3203,5.3203,5.3203,5.3203,5.3849,5.462,5.4473,5.5464,5.6859,5.7189,5.7262,5.7373,5.785,5.7997,5.7997,5.7997,5.7776,5.7593,5.7923,5.7042,5.6308,5.7299,5.7152,5.6932,5.7446,5.7776,5.7997,5.7997,5.774,5.7483,5.7299,5.6748,5.6381,5.6528,5.6271,5.6381,5.7189,5.7262,5.7483,5.796,5.7997,5.7997,5.7997,5.7997,5.7997,5.7997,5.7997,5.7997,5.7997,5.7997,5.7997,5.7997,5.7997,5.7997,5.7997,5.7997,5.7997,5.7997,5.7997,5.7997,5.7997,5.7997,5.7997,5.7997,5.7997,5.7997,5.7997,5.7997,5.7997,5.7997,5.7997,5.7997,5.7997,5.3203,5.3203,5.3203,5.3203,5.3203,5.3203,5.3203,5.3203,5.3203,5.3203,5.3203,5.3482,5.4216,5.4987,5.5794,5.6528,5.6602,5.6235,5.5427,5.539,5.539,5.539,5.539,5.4693,5.3203,5.3995,5.3995,5.3203,5.3203,5.3203,5.3203,5.3203,5.3203,5.3203,5.3203,5.3203,5.3203,5.3203,5.3203,5.3203,5.3203,5.3203,5.3203,5.3203,5.3203,5.3203,5.3277,5.3314,5.3424,5.4252,5.5427,5.6748,5.7629,5.7886,5.7923,5.796,5.7997,5.7997,5.7997,5.7483,5.7079,5.7813,5.7446,5.6932,5.6932,5.6932,5.6932,5.6932,5.7483,5.7997,5.7997,5.7409,5.7152,5.7886,5.6748,5.6308,5.7776,5.7373,5.7189,5.7923,5.7997,5.7997,5.7997,5.7997,5.7997,5.7997,5.7997,5.7997,5.7997,5.7997,5.7997,5.7997,5.7997,5.7997,5.7997,5.7997,5.7997,5.7997,5.7997,5.7997,5.7997,5.7997,5.7997,5.7997,5.7997,5.7997,5.7997,5.7997,5.7997,5.7997,5.7997,5.7997,5.7997,5.7997,5.7997,5.7997,5.3203,5.3203,5.3203,5.3203,5.3203,5.3203,5.3203,5.3203,5.3203,5.3203,5.3203,5.3298,5.3445,5.4179,5.473,5.4913,5.4913,5.4583,5.3775,5.3739,5.3739,5.3739,5.3739,5.3555,5.3203,5.3995,5.3995,5.3203,5.3203,5.3203,5.3203,5.3203,5.3203,5.3203,5.3203,5.3203,5.3203,5.3203,5.3203,5.3203,5.3203,5.3203,5.3203,5.3203,5.3203,5.3277,5.3922,5.4142,5.4252,5.506,5.5133,5.517,5.6602,5.7079,5.7189,5.7813,5.7997,5.7997,5.7997,5.7886,5.7776,5.796,5.7886,5.774,5.774,5.774,5.774,5.774,5.7886,5.7997,5.7997,5.785,5.7813,5.796,5.7703,5.7593,5.796,5.785,5.7813,5.796,5.7997,5.7997,5.7997,5.7997,5.7997,5.7997,5.7997,5.7997,5.7997,5.7997,5.7997,5.7997,5.7997,5.7997,5.7997,5.7997,5.7997,5.7997,5.7997,5.7997,5.7997,5.7997,5.7997,5.7997,5.7997,5.7997,5.7997,5.7997,5.7997,5.7997,5.7997,5.7997,5.7997,5.7997,5.7997,5.7997,5.2747,5.2959,5.3017,5.2325,5.2747,5.3082,5.2747,5.2959,5.3203,5.3203,5.3203,5.3203,5.3203,5.3922,5.4399,5.4399,5.4399,5.4216,5.3812,5.3775,5.3959,5.4326,5.3995,5.3775,5.3775,5.3812,5.3628,5.3203,5.3203,5.3203,5.3203,5.3203,5.3203,5.3203,5.3203,5.3203,5.3203,5.3203,5.3203,5.3203,5.3203,5.3203,5.3203,5.3203,5.3203,5.3314,5.4106,5.4399,5.4583,5.5757,5.5647,5.5244,5.6859,5.7373,5.7446,5.7886,5.7997,5.7997,5.7997,5.7997,5.7997,5.7997,5.7997,5.7997,5.7997,5.7997,5.7997,5.7997,5.7997,5.7997,5.7997,5.7997,5.7997,5.7997,5.7997,5.7997,5.7997,5.7997,5.7997,5.7997,5.7997,5.7997,5.7997,5.7997,5.7997,5.7997,5.7997,5.7997,5.7997,5.7997,5.7997,5.7997,5.7997,5.7997,5.7997,5.7997,5.7997,5.7997,5.7997,5.7997,5.7997,5.7997,5.7997,5.7997,5.7997,5.7997,5.7997,5.7997,5.7997,5.7997,5.7997,5.7997,5.7997,5.7997,5.7997,5.7997,5.2229,5.2702,5.2747,5.1343,5.2172,5.2769,5.2042,5.2554,5.3002,5.3002,5.3124,5.3203,5.3203,5.3812,5.4179,5.4179,5.4179,5.4179,5.4179,5.4179,5.4473,5.5133,5.4546,5.4179,5.4179,5.3555,5.3203,5.3203,5.3203,5.3203,5.3203,5.3203,5.3203,5.3203,5.3203,5.3203,5.3203,5.3203,5.3203,5.3203,5.3203,5.3203,5.3203,5.3203,5.3203,5.3314,5.4289,5.462,5.4803,5.6161,5.6161,5.5868,5.7336,5.7886,5.7997,5.7997,5.7997,5.7997,5.7997,5.7997,5.7997,5.7997,5.7997,5.7997,5.7997,5.7997,5.7997,5.7997,5.7997,5.7997,5.7997,5.7997,5.7997,5.7997,5.7997,5.7997,5.7997,5.7997,5.7997,5.7997,5.7997,5.7997,5.7997,5.7997,5.7997,5.7997,5.7997,5.7997,5.7997,5.7997,5.7997,5.7997,5.7997,5.7997,5.7997,5.7997,5.7997,5.7997,5.7997,5.7997,5.7997,5.7997,5.7997,5.7997,5.7997,5.7997,5.7997,5.7997,5.7997,5.7997,5.7997,5.7997,5.7997,5.7997,5.7997,5.7997,5.2229,5.2702,5.2747,5.1343,5.1752,5.2018,5.1343,5.179,5.2229,5.2229,5.2791,5.3203,5.3203,5.3298,5.3371,5.3371,5.3371,5.3371,5.3371,5.3371,5.3408,5.3518,5.3445,5.3371,5.3371,5.324,5.3203,5.3203,5.3203,5.3203,5.3203,5.3203,5.3203,5.3203,5.3203,5.3203,5.3203,5.3203,5.3203,5.3203,5.3203,5.3203,5.3203,5.3203,5.3203,5.3387,5.4913,5.5427,5.5464,5.5684,5.5684,5.578,5.6675,5.7446,5.7997,5.7997,5.7997,5.7997,5.7997,5.7997,5.7997,5.7997,5.7997,5.7997,5.7997,5.7997,5.7997,5.7997,5.7997,5.7997,5.7997,5.7997,5.7997,5.7997,5.7997,5.7997,5.7997,5.7997,5.7997,5.7997,5.7997,5.7997,5.7997,5.7997,5.7997,5.7997,5.7997,5.7997,5.7997,5.7997,5.7997,5.7997,5.7997,5.7997,5.7997,5.7997,5.7997,5.7997,5.7997,5.7997,5.7997,5.7997,5.7997,5.7997,5.7997,5.7997,5.7997,5.7997,5.7997,5.7997,5.7997,5.7997,5.7997,5.7997,5.7997,5.7997,5.1667,5.1801,5.1579,5.0174,5.0823,5.1317,5.0581,5.1419,5.2112,5.2112,5.2747,5.3203,5.3203,5.3203,5.3203,5.3203,5.3203,5.3203,5.3203,5.3203,5.3203,5.3203,5.3203,5.3203,5.3203,5.3203,5.3203,5.3203,5.3203,5.3203,5.3203,5.3203,5.3203,5.3203,5.3203,5.3203,5.3203,5.3203,5.3203,5.3203,5.3203,5.3203,5.3203,5.3203,5.3203,5.3408,5.5023,5.5868,5.6271,5.6271,5.6271,5.6345,5.6712,5.7336,5.7997,5.7997,5.7997,5.7997,5.7997,5.7997,5.7997,5.7997,5.7997,5.7997,5.7997,5.7997,5.7997,5.7997,5.7997,5.7997,5.7997,5.7997,5.7997,5.7997,5.7997,5.7997,5.7997,5.7997,5.7997,5.7997,5.7997,5.7997,5.7997,5.7997,5.7997,5.7997,5.7997,5.7997,5.7997,5.7997,5.7997,5.7997,5.7997,5.7997,5.7997,5.7997,5.7997,5.7997,5.7997,5.7997,5.7997,5.7997,5.7997,5.7997,5.7997,5.7997,5.7997,5.7997,5.7997,5.7997,5.7997,5.7997,5.7997,5.7997,5.7997,5.7997]}]]